ftp/pub/palmer/observations_modified/2019/June/AR190616_BASE.txt

Download

Sample DateTime	Unit Id	WS Avg 2min	WD Avg 2min	WGS 10min	WGD 10min	Air Temp	Rel Humidity	Dew Point	Pyranometer	Quantum	Air Pressure	Snow Level	Rainfall	PW Current	Visibility	CBase 1	CBase 2	CBase 3	Vert Vis
2019/06/16  00:00:00  BASE  1.764    313  7.56168  308  -0.1  100   -0.1  0     0     973.5    NA       0.0000   -SN      BR    6000  0    
2019/06/16  00:01:00  BASE  1.47588  326  7.56168  308  -0.0  100   -0.0  0     0     973.6    NA       0.0000   -SN      BR    4900  0    
2019/06/16  00:02:00  BASE  2.18736  4    7.56168  308  0.1   100   0.1   0     0     973.6    NA       0.0000   -SN      BR    5000  300  
2019/06/16  00:03:00  BASE  1.77576  350  7.56168  308  0.2   100   0.2   0     0     973.6    NA       0.0000   -SN      BR    5000  300  
2019/06/16  00:04:00  BASE  0.92904  256  7.56168  308  0.2   100   0.2   0     0     973.6    NA       0.0000   -SN      BR    5000  360  
2019/06/16  00:05:00  BASE  1.21716  192  7.56168  308  0.2   100   0.2   0     0     973.6    NA       0.0000   -SN      BR    5000  330  
2019/06/16  00:06:00  BASE  2.19324  177  7.56168  308  0.1   100   0.1   0     0     973.6    NA       0.0000   -SN      BR    4100  0    
2019/06/16  00:07:00  BASE  2.71656  170  5.71536  328  -0.0  100   -0.0  0     0     973.6    NA       0.0000   -SN      BR    3600  0    
2019/06/16  00:08:00  BASE  2.91648  167  3.62796  311  -0.1  100   -0.1  0     0     973.6    NA       0.0000   -SN      BR    3900  360  
2019/06/16  00:09:00  BASE  2.69892  168  3.41628  171  -0.3  100   -0.3  0     0     973.6    NA       0.0000   -SN      BR    4500  360  
2019/06/16  00:10:00  BASE  1.9698   161  3.41628  171  -0.4  100   -0.4  0     0     973.6    NA       0.0000   -SN      BR    4100  2070 
2019/06/16  00:11:00  BASE  1.68168  141  3.41628  171  -0.5  100   -0.5  0     0     973.6    NA       0.0000   -SN      BR    5000  0    
2019/06/16  00:12:00  BASE  1.83456  116  3.41628  171  -0.5  100   -0.5  0     0     973.6    NA       0.0000   -SN      BR    7000  0    
2019/06/16  00:13:00  BASE  2.0286   105  3.41628  171  -0.5  100   -0.5  0     0     973.6    NA       0.0000   -SN      BR    7000  0    
2019/06/16  00:14:00  BASE  2.37552  114  3.48096  112  -0.4  100   -0.4  0     0     973.6    NA       0.0000   -SN      BR    7000  390  
2019/06/16  00:15:00  BASE  3.087    119  3.86904  116  -0.4  100   -0.4  0     0     973.6    NA       0.0000   -SN      BR    5000  300  
2019/06/16  00:16:00  BASE  3.89844  103  5.41548  55   -0.3  100   -0.3  0     0     973.5    NA       0.0000   -SN      BR    3700  230  
2019/06/16  00:17:00  BASE  3.4692   66   5.41548  55   -0.2  100   -0.2  0     0     973.6    NA       0.0000   -SN      BR    3400  230  
2019/06/16  00:18:00  BASE  2.06976  46   5.41548  55   -0.1  100   -0.1  0     0     973.6    NA       0.0000   -SN      BR    4100  0    
2019/06/16  00:19:00  BASE  1.52292  44   5.41548  55   0.0   100   0.0   0     0     973.7    NA       0.0000   -SN      BR    4900  0    
2019/06/16  00:20:00  BASE  1.53468  74   5.41548  55   0.2   100   0.2   0     0     973.7    NA       0.0000   -SN      BR    5000  360  
2019/06/16  00:21:00  BASE  2.4696   115  5.41548  55   0.2   100   0.2   0     0     973.6    NA       0.0000   -SN      BR    4700  330  
2019/06/16  00:22:00  BASE  3.68088  123  5.41548  55   0.1   100   0.1   0     0     973.7    NA       0.0000   -SN      BR    3600  330  
2019/06/16  00:23:00  BASE  3.7632   118  5.41548  55   0.0   100   0.0   0     0     973.7    NA       0.0000   -SN      BR    3600  360  
2019/06/16  00:24:00  BASE  3.1458   120  5.41548  55   -0.0  100   -0.0  0     0     973.7    NA       0.0000   -SN      BR    3500  360  
2019/06/16  00:25:00  BASE  2.45784  119  5.41548  55   -0.1  100   -0.1  0     0     973.7    NA       0.0000   -SN      BR    3400  0    
2019/06/16  00:26:00  BASE  2.22264  125  4.44528  126  -0.1  100   -0.1  0     0     973.7    NA       0.0000   -SN      BR    3400  0    
2019/06/16  00:27:00  BASE  2.34024  145  4.44528  126  -0.1  100   -0.1  0     0     973.7    NA       0.0000   -SN      BR    3400  0    
2019/06/16  00:28:00  BASE  2.4696   153  4.44528  126  -0.1  100   -0.1  0     0     973.7    NA       0.0000   -SN      BR    3100  0    
2019/06/16  00:29:00  BASE  2.1462   145  4.44528  126  -0.2  100   -0.2  0     0     973.7    NA       0.0000   -SN      BR    3100  0    
2019/06/16  00:30:00  BASE  1.97568  141  4.44528  126  -0.2  100   -0.2  0     0     973.7    NA       0.0000   -SN      BR    3400  0    
2019/06/16  00:31:00  BASE  2.11092  142  4.44528  126  -0.2  100   -0.2  0     0     973.7    NA       0.0000   -SN      BR    3400  0    
2019/06/16  00:32:00  BASE  1.7052   126  4.47468  9    -0.3  100   -0.3  0     0     973.7    NA       0.0000   -SN      BR    3400  0    
2019/06/16  00:33:00  BASE  3.86316  34   7.05012  346  -0.3  100   -0.3  0     0     973.4    NA       0.0000   -SN      BR    5000  0    
2019/06/16  00:34:00  BASE  8.12616  355  13.1888  8    -0.2  100   -0.2  0     0     973.0    NA       0.0000   -SN      BR    SQ    9999 
2019/06/16  00:35:00  BASE  8.66124  351  13.1888  8    -0.1  100   -0.1  0     0     973.3    NA       0.0000   -SN      BR    SQ    9999 
2019/06/16  00:36:00  BASE  7.18536  350  13.1888  8    -0.1  100   -0.1  0     0     973.4    NA       0.0000   -SN      BR    9999  0    
2019/06/16  00:37:00  BASE  7.72044  3    13.1888  8    0.0   100   0.0   0     0     973.3    NA       0.0000   -SN      BR    9999  0    
2019/06/16  00:38:00  BASE  8.48484  14   13.1888  8    0.1   100   0.1   0     0     973.3    NA       0.0000   -SN      BR    9999  1610 
2019/06/16  00:39:00  BASE  9.56676  17   13.1888  8    0.2   100   0.2   0     0     973.0    NA       0.0000   -SN      BR    9999  2820 
2019/06/16  00:40:00  BASE  11.0544  10   13.1888  8    0.2   100   0.2   0     0     973.0    NA       0.0000   -SN      BR    9999  0    
2019/06/16  00:41:00  BASE  11.5718  8    13.1888  8    0.2   100   0.2   0     0     973.0    NA       0.0000   -SN      BR    9999  430  
2019/06/16  00:42:00  BASE  11.4601  14   13.1888  8    0.3   100   0.3   0     0     973.1    NA       0.0000   -SN      9999  0     0    
2019/06/16  00:43:00  BASE  11.8835  17   13.7004  17   0.3   100   0.3   0     0     972.9    NA       0.0000   -SN      9999  0     0    
2019/06/16  00:44:00  BASE  13.0066  16   15.188   17   0.3   100   0.3   0     0     972.8    NA       0.0000   -SN      9000  0     0    
2019/06/16  00:45:00  BASE  12.789   16   15.188   17   0.3   100   0.3   0     0     972.9    NA       0.0000   -SN      9000  0     0    
2019/06/16  00:46:00  BASE  11.9834  15   15.188   17   0.3   100   0.3   0     0     973.0    NA       0.0000   -SN      9999  0     0    
2019/06/16  00:47:00  BASE  11.3131  14   15.188   17   0.3   100   0.3   0     0     973.0    NA       0.0000   -SN      9999  0     0    
2019/06/16  00:48:00  BASE  11.2661  16   15.188   17   0.3   100   0.3   0     0     973.0    NA       0.0000   -SN      9999  0     0    
2019/06/16  00:49:00  BASE  11.7012  18   15.188   17   0.3   100   0.3   0     0     973.1    NA       0.0000   -SN      9999  2590  0    
2019/06/16  00:50:00  BASE  12.4656  18   15.188   17   0.3   100   0.3   0     0     972.9    NA       0.0000   -SN      9999  2760  0    
2019/06/16  00:51:00  BASE  12.889   20   15.188   17   0.3   100   0.3   0     0     973.0    NA       0.0000   -SN      9999  0     0    
2019/06/16  00:52:00  BASE  11.9246  18   15.188   17   0.3   100   0.3   0     0     973.1    NA       0.0000   -SN      9999  390   0    
2019/06/16  00:53:00  BASE  10.7369  17   15.188   17   0.3   100   0.3   0     0     973.2    NA       0.0000   -SN      9999  0     0    
2019/06/16  00:54:00  BASE  10.2841  21   13.9768  17   0.3   100   0.3   0     0     973.3    NA       0.0000   -SN      9999  0     0    
2019/06/16  00:55:00  BASE  10.7898  23   13.9768  17   0.3   100   0.3   0     0     973.2    NA       0.0000   -SN      9999  0     0    
2019/06/16  00:56:00  BASE  10.2018  23   13.9768  17   0.3   100   0.3   0     0     973.4    NA       0.0000   -SN      9999  0     0    
2019/06/16  00:57:00  BASE  10.1195  20   13.9768  17   0.3   100   0.3   0     0     973.3    NA       0.0000   -SN      9999  690   0    
2019/06/16  00:58:00  BASE  11.807   21   13.9768  17   0.3   100   0.3   0     0     973.1    NA       0.0000   -SN      9000  430   0    
2019/06/16  00:59:00  BASE  11.8247  25   13.9768  17   0.4   100   0.4   0     0     973.3    NA       0.0000   -SN      7000  0     0    
2019/06/16  01:00:00  BASE  11.1308  26   13.7651  20   0.4   100   0.4   0     0     973.3    NA       0.0000   -SN      8000  0     0    
2019/06/16  01:01:00  BASE  10.7075  23   13.7651  20   0.4   100   0.4   0     0     973.4    NA       0.0000   -SN      9999  0     0    
2019/06/16  01:02:00  BASE  10.2488  20   13.7651  20   0.5   100   0.5   0     0     973.4    NA       0.0000   -SN      9999  0     0    
2019/06/16  01:03:00  BASE  10.2547  18   13.7651  20   0.5   100   0.5   0     0     973.4    NA       0.0000   -SN      9999  0     0    
2019/06/16  01:04:00  BASE  10.1842  14   13.7651  20   0.5   100   0.5   0     0     973.4    NA       0.0000   -SN      9999  0     0    
2019/06/16  01:05:00  BASE  10.043   16   13.7651  20   0.5   100   0.5   0     0     973.6    NA       0.0000   -SN      9999  0     0    
2019/06/16  01:06:00  BASE  9.94308  19   13.7651  20   0.4   100   0.4   0     0     973.6    NA       0.0000   -SN      9999  0     0    
2019/06/16  01:07:00  BASE  9.5844   16   13.7651  20   0.4   100   0.4   0     0     973.6    NA       0.2540   -SN      9999  0     0    
2019/06/16  01:08:00  BASE  8.75532  14   13.7651  20   0.4   100   0.4   0     0     973.7    NA       0.0000   -SN      9999  0     0    
2019/06/16  01:09:00  BASE  8.44368  17   13.7651  20   0.4   100   0.4   0     0     973.7    NA       0.0000   -SN      9999  2950  0    
2019/06/16  01:10:00  BASE  8.38488  19   12.5832  18   0.4   100   0.4   0     0     973.7    NA       0.0000   -SN      9999  590   0    
2019/06/16  01:11:00  BASE  8.43192  21   12.5832  18   0.5   100   0.5   0     0     973.7    NA       0.0000   -SN      9999  390   0    
2019/06/16  01:12:00  BASE  9.03756  21   11.86    21   0.5   100   0.5   0     0     973.7    NA       0.0000   -SN      9999  0     0    
2019/06/16  01:13:00  BASE  9.54324  19   11.7071  18   0.5   100   0.5   0     0     973.7    NA       0.0000   -SN      9999  0     0    
2019/06/16  01:14:00  BASE  9.21984  17   11.2249  17   0.6   100   0.6   0     0     973.8    NA       0.0000   -SN      9999  0     0    
2019/06/16  01:15:00  BASE  8.97876  13   11.2249  17   0.6   100   0.6   0     0     973.8    NA       0.0000   -SN      9999  1870  0    
2019/06/16  01:16:00  BASE  9.79608  16   11.6483  18   0.6   100   0.6   0     0     973.7    NA       0.0000   -SN      9999  0     0    
2019/06/16  01:17:00  BASE  10.1254  19   11.6483  18   0.6   100   0.6   0     0     973.8    NA       0.0000   -SN      9999  3510  0    
2019/06/16  01:18:00  BASE  9.33156  16   11.6483  18   0.6   100   0.6   0     0     973.8    NA       0.0000   -SN      9999  1120  0    
2019/06/16  01:19:00  BASE  9.01992  11   11.6483  18   0.6   100   0.6   0     0     973.7    NA       0.0000   -SN      9999  3510  0    
2019/06/16  01:20:00  BASE  10.3606  13   12.9184  21   0.6   100   0.6   0     0     973.6    NA       0.0000   9999     3540  0     0    
2019/06/16  01:21:00  BASE  10.0901  20   12.9184  21   0.7   100   0.7   0     0     973.9    NA       0.0000   9999     3350  0     0    
2019/06/16  01:22:00  BASE  8.74944  22   12.9184  21   0.7   100   0.7   0     0     973.9    NA       0.0000   9999     3510  0     0    
2019/06/16  01:23:00  BASE  8.25552  21   12.9184  21   0.8   100   0.7   0     0     974.0    NA       0.0000   9999     2990  3480  0    
2019/06/16  01:24:00  BASE  8.88468  21   12.9184  21   0.8   99    0.7   0     0     973.8    NA       0.0000   9999     2920  3580  0    
2019/06/16  01:25:00  BASE  10.6075  21   12.9184  21   0.8   99    0.6   0     0     973.8    NA       0.0000   9999     2790  0     0    
2019/06/16  01:26:00  BASE  11.2308  22   12.9184  21   0.7   99    0.5   0     0     973.7    NA       0.0000   9999     2760  0     0    
2019/06/16  01:27:00  BASE  11.319   20   12.9184  21   0.7   98    0.4   0     0     973.8    NA       0.0000   -SN      9999  3740  0    
2019/06/16  01:28:00  BASE  11.5248  21   12.9478  24   0.6   98    0.4   0     0     973.7    NA       0.0000   -SN      9999  4360  0    
2019/06/16  01:29:00  BASE  11.7718  21   12.9478  24   0.6   98    0.3   0     0     973.7    NA       0.0000   -SN      9999  3640  0    
2019/06/16  01:30:00  BASE  12.1304  20   13.5534  18   0.6   98    0.3   0     0     973.7    NA       0.0000   -SN      9999  3580  0    
2019/06/16  01:31:00  BASE  12.4715  22   14.0062  22   0.5   98    0.3   0     0     973.7    NA       0.0000   -SN      9999  3810  0    
2019/06/16  01:32:00  BASE  12.9478  22   14.7941  21   0.5   98    0.3   0     0     973.6    NA       0.0000   -SN      9999  0     0    
2019/06/16  01:33:00  BASE  13.3241  22   14.7941  21   0.5   98    0.3   0     0     973.6    NA       0.0000   -SN      9999  0     0    
2019/06/16  01:34:00  BASE  13.6416  22   15.1234  22   0.5   99    0.3   0     0     973.5    NA       0.0000   -SN      9999  0     0    
2019/06/16  01:35:00  BASE  13.6122  23   15.1528  22   0.5   99    0.3   0     0     973.5    NA       0.0000   -SN      9999  0     0    
2019/06/16  01:36:00  BASE  14.0414  23   16.1524  27   0.5   99    0.4   0     0     973.4    NA       0.2540   -SN      9999  0     0    
2019/06/16  01:37:00  BASE  14.6412  18   16.1524  27   0.5   99    0.3   0     0     973.3    NA       0.0000   -SN      9999  0     0    
2019/06/16  01:38:00  BASE  13.8592  13   16.1524  27   0.5   99    0.3   0     0     973.5    NA       0.0000   -SN      9999  0     0    
2019/06/16  01:39:00  BASE  13.3182  14   16.1524  27   0.4   99    0.3   0     0     973.5    NA       0.0000   -SN      9999  0     0    
2019/06/16  01:40:00  BASE  12.9654  13   16.1524  27   0.4   99    0.3   0     0     973.6    NA       0.0000   -SN      9999  0     0    
2019/06/16  01:41:00  BASE  13.0418  11   16.1524  27   0.4   100   0.3   0     0     973.5    NA       0.0000   -SN      9999  0     0    
2019/06/16  01:42:00  BASE  14.0826  12   16.1524  27   0.3   100   0.3   0     0     973.4    NA       0.0000   -SN      9999  0     0    
2019/06/16  01:43:00  BASE  15.0058  14   16.1524  27   0.3   100   0.3   0     0     973.2    NA       0.0000   -SN      9999  0     0    
2019/06/16  01:44:00  BASE  15.0469  15   16.1524  27   0.3   100   0.3   0     0     973.4    NA       0.0000   -SN      9999  0     0    
2019/06/16  01:45:00  BASE  14.5589  13   16.1524  27   0.3   100   0.3   0     0     973.4    NA       0.0000   -SN      9999  0     0    
2019/06/16  01:46:00  BASE  14.4648  12   16.0348  11   0.3   100   0.3   0     0     973.4    NA       0.0000   -SN      9999  0     0    
2019/06/16  01:47:00  BASE  14.7588  14   16.0348  11   0.3   100   0.3   0     0     973.3    NA       0.0000   -SN      9999  0     0    
2019/06/16  01:48:00  BASE  14.7764  14   16.0348  11   0.2   100   0.2   0     0     973.4    NA       0.0000   -SN      9999  0     0    
2019/06/16  01:49:00  BASE  14.8823  14   16.758   16   0.2   100   0.2   0     0     973.4    NA       0.0000   -SN      9999  0     0    
2019/06/16  01:50:00  BASE  15.6055  15   16.758   16   0.2   100   0.2   0     0     973.1    NA       0.0000   -SN      9999  0     0    
2019/06/16  01:51:00  BASE  16.0583  16   17.4224  17   0.2   100   0.2   0     0     973.2    NA       0.0000   -SN      9999  0     0    
2019/06/16  01:52:00  BASE  15.8642  16   17.4224  17   0.2   100   0.2   0     0     973.3    NA       0.0000   -SN      9999  0     0    
2019/06/16  01:53:00  BASE  15.4409  17   17.4224  17   0.1   100   0.1   0     0     973.3    NA       0.0000   -SN      9999  0     0    
2019/06/16  01:54:00  BASE  15.7584  17   17.4224  17   0.1   100   0.1   0     0     973.3    NA       0.0000   -SN      9999  0     0    
2019/06/16  01:55:00  BASE  16.2641  15   17.4224  17   0.1   100   0.1   0     0     973.2    NA       0.0000   -SN      9999  0     0    
2019/06/16  01:56:00  BASE  15.1528  13   17.4224  17   0.1   100   0.1   0     0     973.4    NA       0.0000   -SN      9999  0     0    
2019/06/16  01:57:00  BASE  14.8764  14   17.4224  17   0.1   100   0.1   0     0     973.2    NA       0.0000   -SN      9999  0     0    
2019/06/16  01:58:00  BASE  15.9054  17   17.4224  17   0.1   100   0.1   0     0     973.1    NA       0.0000   -SN      9999  0     0    
2019/06/16  01:59:00  BASE  16.4816  19   17.9105  19   0.0   100   0.0   0     0     973.2    NA       0.0000   -SN      9999  0     0    
2019/06/16  02:00:00  BASE  16.2229  18   17.9105  19   0.0   100   0.0   0     0     973.4    NA       0.0000   -SN      9000  0     0    
2019/06/16  02:01:00  BASE  15.7525  15   17.9105  19   0.0   100   0.0   0     0     973.4    NA       0.0000   -SN      9999  0     0    
2019/06/16  02:02:00  BASE  15.9877  15   17.9105  19   0.0   100   0.0   0     0     973.4    NA       0.0000   -SN      9999  0     0    
2019/06/16  02:03:00  BASE  16.1524  15   17.9105  19   0.0   100   0.0   0     0     973.4    NA       0.0000   -SN      9999  0     0    
2019/06/16  02:04:00  BASE  16.1112  15   17.9105  19   0.0   100   0.0   0     0     973.4    NA       0.0000   -SN      9999  0     0    
2019/06/16  02:05:00  BASE  16.2876  15   18.1222  16   0.0   100   0.0   0     0     973.4    NA       0.0000   -SN      9999  0     0    
2019/06/16  02:06:00  BASE  16.905   16   19.21    16   0.0   100   0.0   0     0     973.4    NA       0.0000   -SN      7000  0     0    
2019/06/16  02:07:00  BASE  17.1755  16   19.21    16   -0.0  100   -0.0  0     0     973.4    NA       0.0000   -SN      BR    5000  0    
2019/06/16  02:08:00  BASE  16.6639  15   19.21    16   -0.0  100   -0.0  0     0     973.6    NA       0.0000   -SN      BR    5000  0    
2019/06/16  02:09:00  BASE  16.07    15   19.21    16   -0.0  100   -0.0  0     0     973.7    NA       0.0000   -SN      BR    6000  0    
2019/06/16  02:10:00  BASE  15.9348  14   19.21    16   -0.0  100   -0.0  0     0     973.7    NA       0.0000   -SN      BR    8000  0    
2019/06/16  02:11:00  BASE  16.17    15   19.21    16   -0.0  100   -0.0  0     0     973.7    NA       0.0000   -SN      BR    8000  0    
2019/06/16  02:12:00  BASE  16.0877  14   19.21    16   -0.0  100   -0.0  0     0     973.7    NA       0.0000   -SN      BR    7000  0    
2019/06/16  02:13:00  BASE  15.9113  14   19.21    16   -0.0  100   -0.0  0     0     973.8    NA       0.0000   -SN      BR    8000  0    
2019/06/16  02:14:00  BASE  15.9348  15   19.21    16   -0.0  100   -0.0  0     0     973.8    NA       0.0000   -SN      BR    9999  0    
2019/06/16  02:15:00  BASE  15.6937  14   19.21    16   0.0   100   0.0   0     0     974.0    NA       0.0000   -SN      BR    9999  0    
2019/06/16  02:16:00  BASE  15.2586  15   18.3632  9    0.0   100   0.0   0     0     973.9    NA       0.0000   -SN      BR    9999  0    
2019/06/16  02:17:00  BASE  14.9411  12   17.8164  15   0.0   100   0.0   0     0     973.9    NA       0.0000   -SN      BR    9999  0    
2019/06/16  02:18:00  BASE  15.1998  10   17.8164  15   0.0   100   0.0   0     0     974.1    NA       0.0000   -SN      BR    9999  0    
2019/06/16  02:19:00  BASE  15.5761  9    17.8164  15   0.1   100   0.1   0     0     974.0    NA       0.0000   -SN      9999  0     0    
2019/06/16  02:20:00  BASE  15.4056  6    17.7282  12   0.1   100   0.1   0     0     973.9    NA       0.0000   -SN      9999  0     0    
2019/06/16  02:21:00  BASE  15.0646  6    17.7282  12   0.1   100   0.1   0     0     974.1    NA       0.0000   -SN      9999  0     0    
2019/06/16  02:22:00  BASE  14.6294  5    17.7282  12   0.1   100   0.1   0     0     974.1    NA       0.0000   -SN      9999  0     0    
2019/06/16  02:23:00  BASE  13.8239  358  17.4224  8    0.1   100   0.1   0     0     974.3    NA       0.0000   -SN      9999  0     0    
2019/06/16  02:24:00  BASE  13.7768  358  17.2402  1    0.1   100   0.1   0     0     974.2    NA       0.0000   -SN      9999  0     0    
2019/06/16  02:25:00  BASE  14.0944  2    17.2402  1    0.1   100   0.1   0     0     974.3    NA       0.0000   -SN      9999  0     0    
2019/06/16  02:26:00  BASE  13.9591  1    17.2402  1    0.1   100   0.1   0     0     974.3    NA       0.0000   9999     0     0     0    
2019/06/16  02:27:00  BASE  13.9121  0    17.2402  1    0.1   100   0.1   0     0     974.3    NA       0.0000   9999     0     0     0    
2019/06/16  02:28:00  BASE  14.3354  1    17.2402  1    0.1   100   0.1   0     0     974.2    NA       0.0000   9999     0     0     0    
2019/06/16  02:29:00  BASE  14.065   3    17.2402  1    0.0   100   0.0   0     0     974.5    NA       0.0000   9999     0     0     0    
2019/06/16  02:30:00  BASE  13.7886  1    16.2112  4    0.0   100   0.0   0     0     974.6    NA       0.0000   9999     0     0     0    
2019/06/16  02:31:00  BASE  14.306   360  15.6996  3    0.0   100   0.0   0     0     974.6    NA       0.0000   9999     0     0     0    
2019/06/16  02:32:00  BASE  13.8768  6    15.6996  3    -0.0  100   -0.0  0     0     974.7    NA       0.0000   9999     0     0     0    
2019/06/16  02:33:00  BASE  13.0595  3    15.6996  3    -0.0  100   -0.0  0     0     974.9    NA       0.0000   9999     0     0     0    
2019/06/16  02:34:00  BASE  12.3245  351  15.6996  3    -0.1  100   -0.1  0     0     975.1    NA       0.0000   9999     0     0     0    
2019/06/16  02:35:00  BASE  11.8952  348  15.6996  3    -0.1  100   -0.1  0     0     975.1    NA       0.0000   9999     0     0     0    
2019/06/16  02:36:00  BASE  11.8129  355  15.6996  3    -0.0  100   -0.0  0     0     975.2    NA       0.0000   9999     0     0     0    
2019/06/16  02:37:00  BASE  11.4013  357  15.6996  3    -0.0  100   -0.0  0     0     975.3    NA       0.0000   9999     0     0     0    
2019/06/16  02:38:00  BASE  11.0544  356  15.6996  3    -0.0  100   -0.0  0     0     975.3    NA       0.0000   9999     0     0     0    
2019/06/16  02:39:00  BASE  11.4248  356  15.6996  3    -0.1  100   -0.1  0     0     975.2    NA       0.0000   9999     0     0     0    
2019/06/16  02:40:00  BASE  11.6306  354  15.6996  3    -0.1  100   -0.1  0     0     975.3    NA       0.0000   9999     360   0     0    
2019/06/16  02:41:00  BASE  11.4484  352  14.0062  348  -0.1  100   -0.1  0     0     975.3    NA       0.0000   9999     0     0     0    
2019/06/16  02:42:00  BASE  11.5366  351  14.0062  348  -0.1  100   -0.1  0     0     975.2    NA       0.0000   9999     0     0     0    
2019/06/16  02:43:00  BASE  12.2069  357  14.0062  348  -0.1  100   -0.1  0     0     975.2    NA       0.0000   9999     0     0     0    
2019/06/16  02:44:00  BASE  12.4538  0    14.1884  354  -0.2  100   -0.2  0     0     975.3    NA       0.0000   9999     390   0     0    
2019/06/16  02:45:00  BASE  12.154   357  14.1884  354  -0.2  100   -0.2  0     0     975.3    NA       0.0000   9999     2030  0     0    
2019/06/16  02:46:00  BASE  11.6071  356  14.1884  354  -0.3  100   -0.3  0     0     975.4    NA       0.0000   9999     0     0     0    
2019/06/16  02:47:00  BASE  11.2778  353  14.1884  354  -0.3  100   -0.3  0     0     975.5    NA       0.0000   9999     0     0     0    
2019/06/16  02:48:00  BASE  11.1132  347  14.1884  354  -0.3  100   -0.3  0     0     975.6    NA       0.0000   9999     0     0     0    
2019/06/16  02:49:00  BASE  10.5722  349  14.1884  354  -0.3  100   -0.3  0     0     975.6    NA       0.0000   9999     0     0     0    
2019/06/16  02:50:00  BASE  11.2249  349  14.1884  354  -0.2  100   -0.2  0     0     975.5    NA       0.0000   9999     0     0     0    
2019/06/16  02:51:00  BASE  11.7306  350  14.1884  354  -0.2  100   -0.2  0     0     975.6    NA       0.0000   9999     0     0     0    
2019/06/16  02:52:00  BASE  12.2069  349  15.3056  339  -0.2  100   -0.2  0     0     975.4    NA       0.0000   9999     260   0     0    
2019/06/16  02:53:00  BASE  12.2069  344  15.3056  339  -0.2  100   -0.2  0     0     975.6    NA       0.0000   9999     0     0     0    
2019/06/16  02:54:00  BASE  11.6012  347  15.3056  344  -0.2  100   -0.2  0     0     975.7    NA       0.0000   9999     0     0     0    
2019/06/16  02:55:00  BASE  12.689   344  15.3056  344  -0.3  100   -0.3  0     0     975.4    NA       0.0000   9999     0     0     0    
2019/06/16  02:56:00  BASE  13.8004  337  15.3056  344  -0.3  100   -0.3  0     0     975.5    NA       0.0000   UP       9999  0     0    
2019/06/16  02:57:00  BASE  13.7474  335  15.3056  344  -0.3  100   -0.3  0     0     975.6    NA       0.0000   UP       9999  0     0    
2019/06/16  02:58:00  BASE  13.3652  332  15.3056  344  -0.4  100   -0.4  0     0     975.8    NA       0.0000   UP       9999  0     0    
2019/06/16  02:59:00  BASE  13.5534  329  15.3056  344  -0.4  100   -0.4  0     0     975.8    NA       0.0000   UP       9999  0     0    
2019/06/16  03:00:00  BASE  13.2653  330  15.3056  344  -0.4  100   -0.4  0     0     975.9    NA       0.0000   UP       9999  0     0    
2019/06/16  03:01:00  BASE  12.4597  331  15.3056  344  -0.5  100   -0.5  0     0     976.0    NA       0.0000   UP       9999  0     0    
2019/06/16  03:02:00  BASE  12.4127  331  15.3056  344  -0.5  100   -0.5  0     0     976.0    NA       0.0000   UP       9999  0     0    
2019/06/16  03:03:00  BASE  12.6008  329  15.3056  344  -0.5  100   -0.5  0     0     976.1    NA       0.0000   UP       9999  0     0    
2019/06/16  03:04:00  BASE  11.7306  327  15.2468  340  -0.5  100   -0.5  0     0     976.5    NA       0.0000   UP       9999  0     0    
2019/06/16  03:05:00  BASE  10.8133  327  15.2468  340  -0.6  100   -0.6  0     0     976.4    NA       0.0000   UP       8000  0     0    
2019/06/16  03:06:00  BASE  10.8133  325  14.9705  331  -0.6  100   -0.6  0     0     976.6    NA       0.0000   UP       BR    6000  0    
2019/06/16  03:07:00  BASE  10.1489  325  14.9705  331  -0.6  100   -0.6  0     0     976.7    NA       0.0000   UP       BR    6000  0    
2019/06/16  03:08:00  BASE  9.85488  328  14.9705  331  -0.6  100   -0.6  0     0     976.6    NA       0.0000   UP       BR    6000  0    
2019/06/16  03:09:00  BASE  10.4782  327  13.7651  323  -0.6  100   -0.6  0     0     976.6    NA       0.0000   UP       BR    7000  0    
2019/06/16  03:10:00  BASE  10.3547  327  13.7651  323  -0.6  100   -0.6  0     0     976.7    NA       0.0000   UP       BR    7000  0    
2019/06/16  03:11:00  BASE  9.80784  327  13.7651  323  -0.6  100   -0.6  0     0     976.7    NA       0.0000   UP       BR    7000  0    
2019/06/16  03:12:00  BASE  9.70788  326  13.7651  323  -0.6  100   -0.6  0     0     976.7    NA       0.0000   UP       BR    7000  230  
2019/06/16  03:13:00  BASE  10.0666  326  12.4009  323  -0.6  100   -0.6  0     0     976.7    NA       0.0000   UP       BR    7000  260  
2019/06/16  03:14:00  BASE  10.0372  327  12.4009  323  -0.6  100   -0.6  0     0     976.9    NA       0.0000   UP       BR    9999  260  
2019/06/16  03:15:00  BASE  9.37272  326  12.4009  323  -0.6  100   -0.6  0     0     976.9    NA       0.0000   UP       BR    9999  230  
2019/06/16  03:16:00  BASE  8.94348  325  12.4009  323  -0.6  100   -0.6  0     0     977.0    NA       0.0000   UP       BR    9999  0    
2019/06/16  03:17:00  BASE  8.7024   325  12.4009  323  -0.6  100   -0.6  0     0     977.0    NA       0.0000   UP       BR    9999  230  
2019/06/16  03:18:00  BASE  8.19672  327  12.4009  323  -0.6  100   -0.6  0     0     977.1    NA       0.0000   UP       BR    9999  230  
2019/06/16  03:19:00  BASE  7.92036  328  11.3425  326  -0.6  100   -0.6  0     0     977.1    NA       0.0000   9999     260   0     0    
2019/06/16  03:20:00  BASE  8.10852  329  11.3425  326  -0.7  100   -0.7  0     0     977.1    NA       0.0000   9999     230   0     0    
2019/06/16  03:21:00  BASE  8.14968  330  11.3425  326  -0.7  100   -0.7  0     0     977.1    NA       0.0000   9999     230   0     0    
2019/06/16  03:22:00  BASE  7.71456  332  11.3425  326  -0.7  100   -0.7  0     0     977.2    NA       0.0000   9999     200   0     0    
2019/06/16  03:23:00  BASE  7.0854   331  10.6487  331  -0.7  100   -0.7  0     0     977.2    NA       0.0000   9999     0     0     0    
2019/06/16  03:24:00  BASE  6.5562   327  9.70788  329  -0.7  100   -0.7  0     0     977.3    NA       0.0000   9999     200   0     0    
2019/06/16  03:25:00  BASE  6.20928  330  9.64908  324  -0.7  100   -0.7  0     0     977.3    NA       0.0000   9999     200   0     0    
2019/06/16  03:26:00  BASE  5.86236  334  9.31392  340  -0.7  100   -0.7  0     0     977.3    NA       0.0000   9999     0     0     0    
2019/06/16  03:27:00  BASE  5.7918   332  9.31392  340  -0.7  100   -0.7  0     0     977.3    NA       0.0000   9999     0     0     0    
2019/06/16  03:28:00  BASE  6.10344  332  9.31392  340  -0.7  100   -0.7  0     0     977.3    NA       0.0000   9999     0     0     0    
2019/06/16  03:29:00  BASE  6.1152   337  9.31392  340  -0.7  100   -0.7  0     0     977.3    NA       0.0000   UP       7000  0     0    
2019/06/16  03:30:00  BASE  5.97996  339  8.95524  329  -0.7  100   -0.7  0     0     977.3    NA       0.0000   UP       7000  0     0    
2019/06/16  03:31:00  BASE  6.1446   339  8.67888  331  -0.7  100   -0.7  0     0     977.3    NA       0.0000   UP       9000  0     0    
2019/06/16  03:32:00  BASE  6.3504   340  7.53228  328  -0.8  100   -0.8  0     0     977.3    NA       0.0000   UP       9999  0     0    
2019/06/16  03:33:00  BASE  6.33864  341  7.10892  339  -0.8  100   -0.8  0     0     977.3    NA       0.0000   UP       9999  0     0    
2019/06/16  03:34:00  BASE  6.30924  340  7.10892  339  -0.8  100   -0.8  0     0     977.4    NA       0.0000   UP       9999  0     0    
2019/06/16  03:35:00  BASE  6.06816  337  7.10892  339  -0.8  100   -0.8  0     0     977.4    NA       0.0000   UP       9999  0     0    
2019/06/16  03:36:00  BASE  5.99172  338  7.10892  339  -0.8  100   -0.8  0     0     977.4    NA       0.0000   UP       9999  260   0    
2019/06/16  03:37:00  BASE  6.53856  334  8.4378   334  -0.8  100   -0.8  0     0     977.3    NA       0.0000   UP       BR    9999  300  
2019/06/16  03:38:00  BASE  7.09128  332  8.4378   334  -0.8  100   -0.8  0     0     977.3    NA       0.0000   UP       9999  430   0    
2019/06/16  03:39:00  BASE  7.2618   331  8.4378   334  -0.8  100   -0.8  0     0     977.4    NA       0.0000   UP       9999  390   0    
2019/06/16  03:40:00  BASE  7.28532  330  8.4378   334  -0.8  100   -0.8  0     0     977.4    NA       0.0000   UP       9999  260   0    
2019/06/16  03:41:00  BASE  7.25004  329  8.4378   334  -0.8  100   -0.8  0     0     977.4    NA       0.0000   UP       9999  430   0    
2019/06/16  03:42:00  BASE  7.26768  328  8.4378   334  -0.8  100   -0.8  0     0     977.5    NA       0.0000   UP       9999  820   0    
2019/06/16  03:43:00  BASE  7.13832  329  8.4378   334  -0.9  100   -0.9  0     0     977.5    NA       0.0000   UP       9999  490   0    
2019/06/16  03:44:00  BASE  6.71496  328  8.4378   334  -0.9  100   -0.9  0     0     977.6    NA       0.0000   UP       9999  360   0    
2019/06/16  03:45:00  BASE  6.50916  328  8.4378   334  -0.9  100   -0.9  0     0     977.6    NA       0.0000   UP       6000  0     0    
2019/06/16  03:46:00  BASE  6.50328  330  8.4378   334  -0.9  100   -0.9  0     0     977.5    NA       0.0000   6000     0     0     0    
2019/06/16  03:47:00  BASE  6.3504   333  8.25552  328  -0.9  100   -0.9  0     0     977.6    NA       0.0000   UP       8000  300   1150 
2019/06/16  03:48:00  BASE  6.4974   334  8.04384  327  -0.9  100   -0.9  0     0     977.5    NA       0.0000   UP       9999  300   0    
2019/06/16  03:49:00  BASE  6.75612  333  7.74396  325  -0.9  100   -0.9  0     0     977.5    NA       0.0000   UP       BR    8000  0    
2019/06/16  03:50:00  BASE  6.28572  334  7.74396  325  -0.9  100   -0.9  0     0     977.6    NA       0.0000   UP       BR    8000  360  
2019/06/16  03:51:00  BASE  5.98584  337  7.74396  325  -0.9  100   -0.9  0     0     977.6    NA       0.0000   UP       BR    9999  390  
2019/06/16  03:52:00  BASE  6.0858   337  7.47348  337  -0.9  100   -0.9  0     0     977.6    NA       0.2540   UP       BR    9999  360  
2019/06/16  03:53:00  BASE  6.01524  338  7.47348  337  -0.9  100   -0.9  0     0     977.7    NA       0.0000   UP       BR    9999  300  
2019/06/16  03:54:00  BASE  6.25632  339  7.47348  337  -0.9  100   -0.9  0     0     977.6    NA       0.0000   UP       BR    9999  300  
2019/06/16  03:55:00  BASE  6.60912  338  7.47348  337  -0.9  100   -0.9  0     0     977.6    NA       0.0000   UP       9999  300   0    
2019/06/16  03:56:00  BASE  6.50916  334  7.47348  337  -0.9  100   -0.9  0     0     977.7    NA       0.0000   UP       9999  0     0    
2019/06/16  03:57:00  BASE  6.20928  331  7.47348  337  -0.9  100   -0.9  0     0     977.7    NA       0.0000   UP       BR    5000  0    
2019/06/16  03:58:00  BASE  6.25632  330  7.3206   333  -0.9  100   -0.9  0     0     977.7    NA       0.0000   UP       BR    3900  0    
2019/06/16  03:59:00  BASE  6.321    329  7.07952  337  -0.9  100   -0.9  0     0     977.7    NA       0.0000   UP       BR    4100  0    
2019/06/16  04:00:00  BASE  6.62088  330  7.71456  332  -0.9  100   -0.9  0     0     977.6    NA       0.0000   UP       BR    4600  0    
2019/06/16  04:01:00  BASE  7.06188  332  7.80276  336  -0.9  100   -0.9  0     0     977.6    NA       0.0000   UP       BR    5000  0    
2019/06/16  04:02:00  BASE  7.35     333  8.19672  335  -0.9  100   -0.9  0     0     977.5    NA       0.0000   UP       BR    5000  230  
2019/06/16  04:03:00  BASE  7.56168  335  8.19672  335  -0.9  100   -0.9  0     0     977.6    NA       0.0000   UP       BR    5000  0    
2019/06/16  04:04:00  BASE  7.86744  333  8.50248  334  -0.9  100   -0.9  0     0     977.5    NA       0.0000   UP       BR    5000  0    
2019/06/16  04:05:00  BASE  7.938    332  8.50248  334  -0.9  100   -0.9  0     0     977.6    NA       0.0000   UP       BR    5000  330  
2019/06/16  04:06:00  BASE  7.83216  330  8.67888  323  -0.9  100   -0.9  0     0     977.7    NA       0.0000   UP       BR    5000  300  
2019/06/16  04:07:00  BASE  8.02032  328  8.71416  327  -0.9  100   -0.9  0     0     977.7    NA       0.0000   UP       BR    5000  0    
2019/06/16  04:08:00  BASE  7.75572  328  8.71416  327  -0.9  100   -0.9  0     0     977.8    NA       0.0000   UP       BR    4400  0    
2019/06/16  04:09:00  BASE  7.30884  324  8.71416  327  -0.9  100   -0.9  0     0     977.9    NA       0.0000   UP       BR    4000  0    
2019/06/16  04:10:00  BASE  7.05012  318  8.71416  327  -0.9  100   -0.9  0     0     978.0    NA       0.0000   UP       BR    7000  300  
2019/06/16  04:11:00  BASE  7.09716  315  8.71416  327  -0.9  100   -0.9  0     0     978.0    NA       0.0000   UP       BR    9999  360  
2019/06/16  04:12:00  BASE  7.04424  314  8.71416  327  -0.9  100   -0.9  0     0     978.1    NA       0.0000   UP       BR    9999  360  
2019/06/16  04:13:00  BASE  6.54444  314  8.71416  327  -0.9  100   -0.9  0     0     978.2    NA       0.0000   UP       BR    9999  300  
2019/06/16  04:14:00  BASE  6.51504  311  8.71416  327  -0.9  100   -0.9  0     0     978.2    NA       0.0000   UP       BR    9999  260  
2019/06/16  04:15:00  BASE  6.82668  310  8.71416  327  -0.9  100   -0.9  0     0     978.2    NA       0.0000   UP       BR    9999  300  
2019/06/16  04:16:00  BASE  6.72672  314  8.71416  327  -0.9  100   -0.9  0     0     978.2    NA       0.0000   UP       BR    9999  300  
2019/06/16  04:17:00  BASE  6.39156  315  8.10852  316  -0.9  100   -0.9  0     0     978.2    NA       0.0000   UP       BR    9999  300  
2019/06/16  04:18:00  BASE  6.03288  317  8.10852  316  -0.9  100   -0.9  0     0     978.3    NA       0.0000   UP       9999  260   0    
2019/06/16  04:19:00  BASE  6.09168  323  8.10852  316  -0.9  100   -0.9  0     0     978.1    NA       0.0000   9999     300   0     0    
2019/06/16  04:20:00  BASE  6.16812  326  8.10852  316  -0.9  100   -0.9  0     0     978.2    NA       0.0000   9999     260   0     0    
2019/06/16  04:21:00  BASE  5.7036   325  7.98504  306  -0.9  100   -0.9  0     0     978.3    NA       0.0000   9999     330   1150  0    
2019/06/16  04:22:00  BASE  5.68596  323  7.98504  306  -0.9  100   -0.9  0     0     978.3    NA       0.0000   9999     560   0     0    
2019/06/16  04:23:00  BASE  5.71536  322  7.98504  306  -0.9  100   -0.9  0     0     978.3    NA       0.0000   9999     430   0     0    
2019/06/16  04:24:00  BASE  5.34492  320  7.3206   316  -0.9  100   -0.9  0     0     978.4    NA       0.0000   9999     390   0     0    
2019/06/16  04:25:00  BASE  5.2038   321  7.13832  311  -0.9  100   -0.9  0     0     978.4    NA       0.0000   9999     300   0     0    
2019/06/16  04:26:00  BASE  5.3508   320  6.89724  318  -0.9  100   -0.9  0     0     978.4    NA       0.0000   9999     300   0     0    
2019/06/16  04:27:00  BASE  5.68008  319  6.80316  324  -0.9  100   -0.9  0     0     978.3    NA       0.0000   9999     300   0     0    
2019/06/16  04:28:00  BASE  5.56248  320  6.80316  324  -0.9  100   -0.9  0     0     978.4    NA       0.0000   9999     260   0     0    
2019/06/16  04:29:00  BASE  5.45076  322  6.80316  324  -0.8  100   -0.8  0     0     978.3    NA       0.0000   9999     230   0     0    
2019/06/16  04:30:00  BASE  5.84472  324  6.80316  324  -0.8  100   -0.8  0     0     978.2    NA       0.0000   9999     230   0     0    
2019/06/16  04:31:00  BASE  5.95644  320  6.80316  324  -0.8  100   -0.8  0     0     978.3    NA       0.0000   9999     260   0     0    
2019/06/16  04:32:00  BASE  5.4978   317  6.53268  315  -0.8  100   -0.8  0     0     978.4    NA       0.0000   9999     260   0     0    
2019/06/16  04:33:00  BASE  4.89804  318  6.53268  315  -0.8  100   -0.8  0     0     978.5    NA       0.0000   9999     300   0     0    
2019/06/16  04:34:00  BASE  4.80396  320  6.53268  315  -0.8  100   -0.8  0     0     978.4    NA       0.0000   9999     300   0     0    
2019/06/16  04:35:00  BASE  4.77456  320  6.53268  315  -0.8  100   -0.8  0     0     978.5    NA       0.0000   9999     330   0     0    
2019/06/16  04:36:00  BASE  4.86276  319  6.53268  315  -0.8  100   -0.8  0     0     978.4    NA       0.0000   9999     330   0     0    
2019/06/16  04:37:00  BASE  5.01564  317  6.53268  315  -0.9  100   -0.9  0     0     978.4    NA       0.0000   9999     330   0     0    
2019/06/16  04:38:00  BASE  4.63932  317  6.53268  315  -0.9  100   -0.9  0     0     978.5    NA       0.0000   9999     330   0     0    
2019/06/16  04:39:00  BASE  4.45704  316  6.53268  315  -0.9  100   -0.9  0     0     978.5    NA       0.0000   9999     430   0     0    
2019/06/16  04:40:00  BASE  4.5276   312  6.53268  315  -0.9  100   -0.9  0     0     978.5    NA       0.0000   9999     560   1510  0    
2019/06/16  04:41:00  BASE  4.5276   309  5.92704  315  -0.9  100   -0.9  0     0     978.5    NA       0.0000   9999     430   0     0    
2019/06/16  04:42:00  BASE  4.4982   308  5.68596  307  -0.9  100   -0.9  0     0     978.4    NA       0.0000   9999     430   0     0    
2019/06/16  04:43:00  BASE  4.56876  309  5.56836  313  -0.9  100   -0.9  0     0     978.4    NA       0.0000   9999     430   0     0    
2019/06/16  04:44:00  BASE  4.39236  310  5.56836  313  -0.9  100   -0.9  0     0     978.5    NA       0.0000   9999     460   0     0    
2019/06/16  04:45:00  BASE  4.18068  313  5.56836  313  -0.9  100   -0.9  0     0     978.4    NA       0.0000   9999     430   0     0    
2019/06/16  04:46:00  BASE  4.13364  316  5.1744   307  -0.9  100   -0.9  0     0     978.4    NA       0.0000   9999     430   0     0    
2019/06/16  04:47:00  BASE  4.13364  320  5.1744   307  -0.9  100   -0.9  0     0     978.3    NA       0.0000   9999     620   0     0    
2019/06/16  04:48:00  BASE  4.45704  324  5.1744   307  -0.9  100   -0.9  0     0     978.2    NA       0.0000   9999     430   0     0    
2019/06/16  04:49:00  BASE  4.6158   328  5.1744   307  -0.9  100   -0.9  0     0     978.2    NA       0.0000   9999     850   0     0    
2019/06/16  04:50:00  BASE  4.6158   331  5.1744   307  -0.9  100   -0.9  0     0     978.2    NA       0.0000   9999     720   0     0    
2019/06/16  04:51:00  BASE  4.80984  333  5.2332   330  -0.9  100   -0.9  0     0     978.1    NA       0.0000   9999     430   0     0    
2019/06/16  04:52:00  BASE  4.88628  333  5.2332   330  -0.9  100   -0.9  0     0     978.1    NA       0.0000   9999     460   0     0    
2019/06/16  04:53:00  BASE  4.89804  330  5.3214   324  -0.9  100   -0.9  0     0     978.1    NA       0.0000   9999     720   1710  0    
2019/06/16  04:54:00  BASE  4.851    328  5.3214   324  -0.9  100   -0.9  0     0     978.3    NA       0.0000   9999     720   0     0    
2019/06/16  04:55:00  BASE  4.56876  323  5.3214   324  -0.9  100   -0.9  0     0     978.4    NA       0.0000   9999     390   0     0    
2019/06/16  04:56:00  BASE  4.3512   319  5.3214   324  -0.9  100   -0.9  0     0     978.5    NA       0.0000   9999     430   0     0    
2019/06/16  04:57:00  BASE  4.22772  318  5.3214   324  -0.9  100   -0.9  0     0     978.4    NA       0.0000   9999     460   0     0    
2019/06/16  04:58:00  BASE  4.15128  318  5.3214   324  -0.9  100   -0.9  0     0     978.4    NA       0.0000   9999     390   0     0    
2019/06/16  04:59:00  BASE  4.16304  315  5.3214   324  -0.9  100   -0.9  0     0     978.5    NA       0.0000   9999     390   0     0    
2019/06/16  05:00:00  BASE  4.06308  314  5.3214   324  -0.9  100   -0.9  0     0     978.5    NA       0.0000   9999     750   0     0    
2019/06/16  05:01:00  BASE  4.02192  315  5.3214   324  -0.9  100   -0.9  0     0     978.4    NA       0.0000   9999     1050  0     0    
2019/06/16  05:02:00  BASE  4.0572   315  5.3214   324  -1.0  100   -1.0  0     0     978.5    NA       0.0000   9999     430   0     0    
2019/06/16  05:03:00  BASE  3.89844  314  5.08032  332  -1.0  100   -1.0  0     0     978.5    NA       0.0000   9999     390   1480  0    
2019/06/16  05:04:00  BASE  3.65148  313  4.93332  322  -1.0  100   -1.0  0     0     978.5    NA       0.0000   9999     360   1710  0    
2019/06/16  05:05:00  BASE  3.33396  319  4.86864  314  -1.0  100   -1.0  0     0     978.5    NA       0.0000   9999     390   1570  0    
2019/06/16  05:06:00  BASE  3.3222   328  4.59816  314  -0.9  100   -0.9  0     0     978.5    NA       0.0000   9999     660   0     0    
2019/06/16  05:07:00  BASE  3.5868   328  4.59816  314  -0.9  100   -0.9  0     0     978.5    NA       0.0000   9999     460   1180  0    
2019/06/16  05:08:00  BASE  3.62796  328  4.59816  314  -0.9  100   -0.9  0     0     978.5    NA       0.0000   9999     390   0     0    
2019/06/16  05:09:00  BASE  3.822    329  4.44528  315  -0.9  100   -0.9  0     0     978.4    NA       0.0000   9999     360   0     0    
2019/06/16  05:10:00  BASE  3.97488  327  4.44528  315  -0.9  100   -0.9  0     0     978.5    NA       0.0000   9999     360   0     0    
2019/06/16  05:11:00  BASE  3.58092  327  4.38648  330  -0.9  100   -0.9  0     0     978.6    NA       0.0000   9999     360   0     0    
2019/06/16  05:12:00  BASE  3.57504  331  4.38648  333  -0.9  100   -0.9  0     0     978.5    NA       0.0000   9999     430   0     0    
2019/06/16  05:13:00  BASE  3.97488  332  4.38648  333  -0.9  100   -0.9  0     0     978.5    NA       0.0000   9999     460   1510  0    
2019/06/16  05:14:00  BASE  3.8808   328  4.41588  329  -0.9  100   -0.9  0     0     978.5    NA       0.0000   9999     430   0     0    
2019/06/16  05:15:00  BASE  4.03368  324  4.62756  318  -1.0  100   -1.0  0     0     978.4    NA       0.0000   9999     430   0     0    
2019/06/16  05:16:00  BASE  4.25712  318  4.62756  318  -1.0  100   -1.0  0     0     978.6    NA       0.0000   9999     360   0     0    
2019/06/16  05:17:00  BASE  4.02192  318  4.62756  318  -1.0  100   -1.0  0     0     978.6    NA       0.0000   9999     360   1210  0    
2019/06/16  05:18:00  BASE  3.68676  317  4.62756  318  -1.0  100   -1.0  0     0     978.8    NA       0.0000   9999     360   0     0    
2019/06/16  05:19:00  BASE  3.56328  315  4.62756  318  -1.0  100   -1.0  0     0     978.8    NA       0.0000   9999     390   0     0    
2019/06/16  05:20:00  BASE  3.52212  317  4.62756  318  -1.0  100   -1.0  0     0     978.8    NA       0.0000   9999     390   0     0    
2019/06/16  05:21:00  BASE  3.4692   318  4.62756  318  -1.0  100   -1.0  0     0     978.8    NA       0.0000   9999     460   0     0    
2019/06/16  05:22:00  BASE  3.822    319  4.62756  318  -1.0  100   -1.0  0     0     978.6    NA       0.0000   9999     660   0     0    
2019/06/16  05:23:00  BASE  4.06308  319  4.62756  318  -1.0  100   -1.0  0     0     978.6    NA       0.0000   9999     1080  1610  0    
2019/06/16  05:24:00  BASE  3.92196  318  4.62756  318  -1.0  100   -1.0  0     0     978.8    NA       0.0000   9999     850   0     0    
2019/06/16  05:25:00  BASE  3.88668  317  4.59816  321  -1.0  100   -1.0  0     0     978.8    NA       0.0000   9999     1180  0     0    
2019/06/16  05:26:00  BASE  3.97488  317  4.59816  321  -1.0  100   -1.0  0     0     978.9    NA       0.0000   9999     1210  0     0    
2019/06/16  05:27:00  BASE  3.91608  317  4.59816  321  -1.0  100   -1.0  0     0     979.0    NA       0.0000   9999     1180  0     0    
2019/06/16  05:28:00  BASE  3.7044   318  4.59816  321  -1.0  100   -1.0  0     0     979.0    NA       0.0000   9999     1020  0     0    
2019/06/16  05:29:00  BASE  3.68088  320  4.59816  321  -1.0  100   -1.0  0     0     979.0    NA       0.0000   9999     430   0     0    
2019/06/16  05:30:00  BASE  3.5868   316  4.59816  321  -1.0  100   -1.0  0     0     979.1    NA       0.0000   9999     330   0     0    
2019/06/16  05:31:00  BASE  3.34572  309  4.59816  321  -1.0  100   -1.0  0     0     979.1    NA       0.0000   9999     260   0     0    
2019/06/16  05:32:00  BASE  3.087    306  4.263    315  -1.0  100   -1.0  0     0     979.2    NA       0.0000   9999     260   0     0    
2019/06/16  05:33:00  BASE  2.8518   307  4.1454   316  -0.9  100   -0.9  0     0     979.2    NA       0.0000   UP       9999  260   0    
2019/06/16  05:34:00  BASE  2.81652  310  4.1454   316  -0.9  100   -0.9  0     0     979.2    NA       0.0000   UP       9999  260   0    
2019/06/16  05:35:00  BASE  2.793    314  4.1454   316  -0.9  100   -0.9  0     0     979.2    NA       0.0000   UP       9999  330   0    
2019/06/16  05:36:00  BASE  2.74596  318  4.02192  315  -0.9  100   -0.9  0     0     979.2    NA       0.0000   UP       9999  300   0    
2019/06/16  05:37:00  BASE  2.92824  322  3.99252  318  -0.9  100   -0.9  0     0     979.1    NA       0.0000   UP       9999  360   0    
2019/06/16  05:38:00  BASE  2.98704  323  3.99252  318  -0.9  100   -0.9  0     0     979.2    NA       0.0000   UP       9999  390   0    
2019/06/16  05:39:00  BASE  2.92236  323  3.59856  316  -0.9  100   -0.9  0     0     979.2    NA       0.0000   UP       9999  660   0    
2019/06/16  05:40:00  BASE  2.95176  324  3.38688  305  -0.9  100   -0.9  0     0     979.2    NA       0.0000   UP       9999  750   0    
2019/06/16  05:41:00  BASE  2.90472  325  3.32808  316  -0.9  100   -0.9  0     0     979.1    NA       0.0000   UP       9999  850   0    
2019/06/16  05:42:00  BASE  3.01056  328  3.41628  328  -0.9  100   -0.9  0     0     979.1    NA       0.0000   UP       9999  490   0    
2019/06/16  05:43:00  BASE  3.48096  329  4.1454   328  -0.9  100   -0.9  0     0     978.8    NA       0.0000   UP       9999  390   0    
2019/06/16  05:44:00  BASE  3.62796  330  4.1454   328  -0.9  100   -0.9  0     0     979.0    NA       0.0000   9999     330   0     0    
2019/06/16  05:45:00  BASE  3.30456  332  4.1454   328  -0.9  100   -0.9  0     0     979.0    NA       0.0000   9999     330   0     0    
2019/06/16  05:46:00  BASE  3.08112  331  4.1454   328  -0.9  100   -0.9  0     0     979.1    NA       0.0000   9999     330   0     0    
2019/06/16  05:47:00  BASE  2.94588  328  4.1454   328  -0.9  100   -0.9  0     0     979.1    NA       0.0000   9999     330   0     0    
2019/06/16  05:48:00  BASE  2.87532  327  4.1454   328  -0.9  100   -0.9  0     0     979.1    NA       0.0000   9999     300   0     0    
2019/06/16  05:49:00  BASE  2.78124  327  4.1454   328  -0.9  100   -0.9  0     0     979.1    NA       0.0000   9999     300   0     0    
2019/06/16  05:50:00  BASE  2.62248  328  4.1454   328  -0.9  100   -0.9  0     0     979.2    NA       0.0000   9999     260   0     0    
2019/06/16  05:51:00  BASE  2.48136  325  4.1454   328  -0.9  100   -0.9  0     0     979.2    NA       0.0000   9999     330   1280  0    
2019/06/16  05:52:00  BASE  2.47548  320  4.1454   328  -0.9  100   -0.9  0     0     979.2    NA       0.0000   9999     330   0     0    
2019/06/16  05:53:00  BASE  2.47548  316  3.65736  327  -0.9  100   -0.9  0     0     979.2    NA       0.0000   9999     300   0     0    
2019/06/16  05:54:00  BASE  2.26968  315  3.38688  329  -0.9  100   -0.9  0     0     979.3    NA       0.0000   9999     300   0     0    
2019/06/16  05:55:00  BASE  2.07564  316  3.29868  327  -0.9  100   -0.9  0     0     979.3    NA       0.0000   9999     300   0     0    
2019/06/16  05:56:00  BASE  2.04036  315  3.02232  326  -0.9  100   -0.9  0     0     979.3    NA       0.0000   9999     300   0     0    
2019/06/16  05:57:00  BASE  1.92276  315  3.02232  326  -0.9  100   -0.9  0     0     979.3    NA       0.0000   9999     330   0     0    
2019/06/16  05:58:00  BASE  1.72872  318  2.96352  318  -1.0  100   -1.0  0     0     979.4    NA       0.0000   9999     330   0     0    
2019/06/16  05:59:00  BASE  1.66992  323  2.96352  318  -1.0  100   -1.0  0     0     979.3    NA       0.0000   9999     360   0     0    
2019/06/16  06:00:00  BASE  1.7052   326  2.78124  322  -1.0  100   -1.0  0     0     979.2    NA       0.0000   9999     330   0     0    
2019/06/16  06:01:00  BASE  1.75224  327  2.75184  320  -1.0  100   -1.0  0     0     979.2    NA       0.0000   9999     300   0     0    
2019/06/16  06:02:00  BASE  1.84044  326  2.56956  316  -1.0  100   -1.0  0     0     979.1    NA       0.0000   UP       9999  330   0    
2019/06/16  06:03:00  BASE  1.82868  325  2.21088  315  -1.0  100   -1.0  0     0     979.2    NA       0.0000   UP       9999  330   0    
2019/06/16  06:04:00  BASE  1.74636  325  2.21088  315  -1.0  100   -1.0  0     0     979.2    NA       0.0000   UP       9999  330   1350 
2019/06/16  06:05:00  BASE  1.68168  326  2.1756   318  -1.0  100   -1.0  0     0     979.2    NA       0.0000   UP       9999  360   0    
2019/06/16  06:06:00  BASE  1.63464  326  2.0286   325  -1.0  100   -1.0  0     0     979.2    NA       0.0000   UP       9999  360   0    
2019/06/16  06:07:00  BASE  1.66404  325  2.0286   325  -1.0  100   -1.0  0     0     979.2    NA       0.0000   UP       9999  360   0    
2019/06/16  06:08:00  BASE  1.71108  326  2.0286   325  -1.0  100   -1.0  0     0     979.2    NA       0.0000   UP       9999  430   1710 
2019/06/16  06:09:00  BASE  1.64052  328  2.0286   325  -1.0  100   -1.0  0     0     979.2    NA       0.0000   UP       9999  390   0    
2019/06/16  06:10:00  BASE  1.56996  327  2.0286   325  -1.1  100   -1.1  0     0     979.2    NA       0.0000   UP       9999  390   0    
2019/06/16  06:11:00  BASE  1.5876   326  2.0286   325  -1.1  100   -1.1  0     0     979.2    NA       0.0000   9999     430   0     0    
2019/06/16  06:12:00  BASE  1.59348  327  1.96392  327  -1.1  100   -1.1  0     0     979.1    NA       0.0000   9999     430   0     0    
2019/06/16  06:13:00  BASE  1.60524  328  1.90512  326  -1.1  100   -1.1  0     0     979.1    NA       0.0000   9999     390   0     0    
2019/06/16  06:14:00  BASE  1.64052  327  1.90512  326  -1.1  100   -1.1  0     0     979.1    NA       0.0000   9999     390   0     0    
2019/06/16  06:15:00  BASE  1.63464  326  1.90512  326  -1.1  100   -1.1  0     0     979.1    NA       0.0000   9999     330   0     0    
2019/06/16  06:16:00  BASE  1.6464   324  1.90512  326  -1.1  100   -1.1  0     0     979.1    NA       0.0000   9999     330   0     0    
2019/06/16  06:17:00  BASE  1.68756  320  1.90512  326  -1.1  100   -1.1  0     0     979.2    NA       0.0000   9999     360   2100  0    
2019/06/16  06:18:00  BASE  1.66404  318  1.78752  315  -1.1  100   -1.1  0     0     979.2    NA       0.0000   9999     360   2170  0    
2019/06/16  06:19:00  BASE  1.51704  318  1.78752  315  -1.1  100   -1.1  0     0     979.2    NA       0.0000   9999     360   2030  0    
2019/06/16  06:20:00  BASE  1.4112   320  1.78752  315  -1.1  100   -1.1  0     0     979.3    NA       0.0000   9999     360   2170  0    
2019/06/16  06:21:00  BASE  1.4994   322  1.78752  315  -1.1  100   -1.1  0     0     979.2    NA       0.0000   9000     330   0     0    
2019/06/16  06:22:00  BASE  1.59348  324  1.81692  327  -1.2  100   -1.2  0     0     979.2    NA       0.0000   8000     300   0     0    
2019/06/16  06:23:00  BASE  1.617    322  1.81692  327  -1.2  100   -1.2  0     0     979.2    NA       0.0000   7000     260   0     0    
2019/06/16  06:24:00  BASE  1.62288  324  1.81692  327  -1.2  100   -1.2  0     0     979.1    NA       0.0000   BR       9000  360   1310 
2019/06/16  06:25:00  BASE  1.78752  332  2.24028  324  -1.2  100   -1.2  0     0     978.8    NA       0.0000   BR       9999  360   0    
2019/06/16  06:26:00  BASE  1.88748  331  2.24028  324  -1.2  100   -1.2  0     0     978.9    NA       0.0000   BR       9999  620   2030 
2019/06/16  06:27:00  BASE  1.8228   328  2.24028  324  -1.2  100   -1.2  0     0     978.9    NA       0.0000   9999     1570  2300  0    
2019/06/16  06:28:00  BASE  1.764    331  2.24028  324  -1.2  100   -1.2  0     0     979.0    NA       0.0000   9999     1210  0     0    
2019/06/16  06:29:00  BASE  1.69932  330  2.24028  324  -1.2  100   -1.2  0     0     979.0    NA       0.0000   9999     820   1710  0    
2019/06/16  06:30:00  BASE  1.62876  328  2.24028  324  -1.2  100   -1.2  0     0     979.0    NA       0.0000   9999     620   1870  0    
2019/06/16  06:31:00  BASE  1.6464   328  2.24028  324  -1.2  100   -1.2  0     0     979.0    NA       0.0000   9999     950   1770  0    
2019/06/16  06:32:00  BASE  1.7052   330  2.24028  324  -1.2  100   -1.2  0     0     978.9    NA       0.0000   9999     950   1900  0    
2019/06/16  06:33:00  BASE  1.68756  329  2.24028  324  -1.2  100   -1.2  0     0     979.0    NA       0.0000   9999     890   0     0    
2019/06/16  06:34:00  BASE  1.65816  329  2.24028  324  -1.2  100   -1.2  0     0     978.9    NA       0.0000   9999     920   0     0    
2019/06/16  06:35:00  BASE  1.66992  331  2.0286   329  -1.2  100   -1.2  0     0     978.8    NA       0.0000   9999     950   1940  0    
2019/06/16  06:36:00  BASE  1.68168  330  2.0286   329  -1.2  100   -1.2  0     0     978.9    NA       0.0000   9999     1150  1770  0    
2019/06/16  06:37:00  BASE  1.63464  329  1.93452  332  -1.2  100   -1.2  0     0     978.9    NA       0.0000   9999     1080  1940  0    
2019/06/16  06:38:00  BASE  1.5876   328  1.93452  332  -1.2  100   -1.2  0     0     979.0    NA       0.0000   9999     1050  0     0    
2019/06/16  06:39:00  BASE  1.61112  329  1.93452  332  -1.2  100   -1.2  0     0     978.9    NA       0.0000   9999     1180  1840  0    
2019/06/16  06:40:00  BASE  1.65228  331  1.93452  332  -1.2  100   -1.2  0     0     979.0    NA       0.0000   9999     1050  1870  0    
2019/06/16  06:41:00  BASE  1.63464  330  1.93452  332  -1.2  100   -1.2  0     0     979.0    NA       0.0000   9999     1640  0     0    
2019/06/16  06:42:00  BASE  1.59348  329  1.93452  332  -1.2  100   -1.2  0     0     979.0    NA       0.0000   9999     1740  0     0    
2019/06/16  06:43:00  BASE  1.58172  327  1.93452  332  -1.2  100   -1.2  0     0     979.0    NA       0.0000   9999     1800  0     0    
2019/06/16  06:44:00  BASE  1.59936  327  1.93452  332  -1.2  100   -1.2  0     0     979.0    NA       0.0000   9999     1710  0     0    
2019/06/16  06:45:00  BASE  1.62288  329  1.75224  335  -1.2  100   -1.2  0     0     979.1    NA       0.0000   9999     1610  0     0    
2019/06/16  06:46:00  BASE  1.65816  330  1.75224  332  -1.2  100   -1.2  0     0     979.0    NA       0.0000   9999     1120  1570  0    
2019/06/16  06:47:00  BASE  1.66992  331  1.75224  331  -1.2  100   -1.2  0     0     979.0    NA       0.0000   9999     1510  0     0    
2019/06/16  06:48:00  BASE  1.64052  330  1.75224  331  -1.2  100   -1.2  0     0     979.0    NA       0.0000   9999     980   1510  0    
2019/06/16  06:49:00  BASE  1.58172  332  1.75224  331  -1.2  100   -1.2  0     0     979.1    NA       0.0000   9999     950   1870  0    
2019/06/16  06:50:00  BASE  1.51704  333  1.75224  331  -1.2  100   -1.2  0     0     979.1    NA       0.0000   9999     890   0     0    
2019/06/16  06:51:00  BASE  1.51116  331  1.75224  331  -1.2  100   -1.2  0     0     979.0    NA       0.0000   9999     980   1640  0    
2019/06/16  06:52:00  BASE  1.56408  332  1.75224  331  -1.2  100   -1.2  0     0     979.0    NA       0.0000   9999     1180  0     0    
2019/06/16  06:53:00  BASE  1.59348  333  1.75224  331  -1.2  100   -1.2  0     0     979.0    NA       0.0000   9999     1120  0     0    
2019/06/16  06:54:00  BASE  1.56408  333  1.75224  331  -1.2  100   -1.2  0     0     979.0    NA       0.0000   9999     1120  0     0    
2019/06/16  06:55:00  BASE  1.55232  330  1.75224  331  -1.2  100   -1.2  0     0     979.0    NA       0.0000   9999     1120  0     0    
2019/06/16  06:56:00  BASE  1.55232  327  1.75224  331  -1.2  100   -1.2  0     0     979.0    NA       0.0000   9999     1180  0     0    
2019/06/16  06:57:00  BASE  1.47     327  1.75224  331  -1.2  100   -1.2  0     0     979.1    NA       0.0000   9999     360   0     0    
2019/06/16  06:58:00  BASE  1.35828  329  1.69344  326  -1.2  100   -1.2  0     0     979.1    NA       0.0000   9999     330   1440  0    
2019/06/16  06:59:00  BASE  1.28184  330  1.69344  326  -1.2  100   -1.2  0     0     979.1    NA       0.0000   9999     390   0     0    
2019/06/16  07:00:00  BASE  1.21716  329  1.69344  326  -1.2  100   -1.2  0     0     979.1    NA       0.0000   9999     660   0     0    
2019/06/16  07:01:00  BASE  1.19364  331  1.69344  326  -1.2  100   -1.2  0     0     979.0    NA       0.0000   9999     460   0     0    
2019/06/16  07:02:00  BASE  1.18188  333  1.69344  326  -1.2  100   -1.2  0     0     979.0    NA       0.0000   9999     430   0     0    
2019/06/16  07:03:00  BASE  1.21128  335  1.69344  326  -1.2  100   -1.2  0     0     979.0    NA       0.0000   9999     390   0     0    
2019/06/16  07:04:00  BASE  1.37004  337  1.69344  326  -1.2  100   -1.2  0     0     979.0    NA       0.0000   9999     360   0     0    
2019/06/16  07:05:00  BASE  1.48176  338  1.69344  326  -1.2  100   -1.2  0     0     978.9    NA       0.0000   9999     360   0     0    
2019/06/16  07:06:00  BASE  1.5582   338  1.72284  340  -1.1  100   -1.1  0     0     978.9    NA       0.0000   9999     360   1410  0    
2019/06/16  07:07:00  BASE  1.617    338  1.72284  340  -1.1  100   -1.1  0     0     978.9    NA       0.0000   9999     330   0     0    
2019/06/16  07:08:00  BASE  1.52292  338  1.72284  340  -1.1  100   -1.1  0     0     979.0    NA       0.0000   9999     300   0     0    
2019/06/16  07:09:00  BASE  1.4406   339  1.72284  340  -1.1  100   -1.1  0     0     979.0    NA       0.0000   9999     330   0     0    
2019/06/16  07:10:00  BASE  1.3818   340  1.72284  340  -1.2  100   -1.2  0     0     979.0    NA       0.0000   9999     360   0     0    
2019/06/16  07:11:00  BASE  1.29948  342  1.72284  340  -1.2  100   -1.2  0     0     978.9    NA       0.0000   9999     360   0     0    
2019/06/16  07:12:00  BASE  1.31124  342  1.72284  340  -1.2  100   -1.2  0     0     978.9    NA       0.0000   9999     330   0     0    
2019/06/16  07:13:00  BASE  1.42884  342  1.72284  340  -1.2  100   -1.2  0     0     978.8    NA       0.0000   9999     360   0     0    
2019/06/16  07:14:00  BASE  1.54644  340  1.75224  334  -1.2  100   -1.2  0     0     978.7    NA       0.0000   9999     390   0     0    
2019/06/16  07:15:00  BASE  1.63464  336  1.78752  333  -1.2  100   -1.2  0     0     978.6    NA       0.0000   9999     360   0     0    
2019/06/16  07:16:00  BASE  1.65228  334  1.78752  333  -1.2  100   -1.2  0     0     978.7    NA       0.0000   9999     360   0     0    
2019/06/16  07:17:00  BASE  1.63464  330  1.78752  333  -1.2  100   -1.2  0     0     978.7    NA       0.0000   9999     390   0     0    
2019/06/16  07:18:00  BASE  1.63464  333  1.78752  333  -1.1  100   -1.1  0     0     978.6    NA       0.0000   9999     430   0     0    
2019/06/16  07:19:00  BASE  1.59348  339  1.78752  333  -1.1  100   -1.1  0     0     978.6    NA       0.0000   9999     360   0     0    
2019/06/16  07:20:00  BASE  1.51704  340  1.78752  333  -1.1  100   -1.1  0     0     978.6    NA       0.0000   9999     330   0     0    
2019/06/16  07:21:00  BASE  1.50528  338  1.78752  333  -1.1  100   -1.1  0     0     978.6    NA       0.0000   9999     300   0     0    
2019/06/16  07:22:00  BASE  1.43472  339  1.78752  333  -1.1  100   -1.1  0     0     978.6    NA       0.0000   9999     330   0     0    
2019/06/16  07:23:00  BASE  1.31712  340  1.78752  333  -1.1  100   -1.1  0     0     978.6    NA       0.0000   9999     330   0     0    
2019/06/16  07:24:00  BASE  1.2936   339  1.78752  333  -1.1  100   -1.1  0     0     978.6    NA       0.0000   9999     330   0     0    
2019/06/16  07:25:01  BASE  1.33476  339  1.75224  330  -1.1  100   -1.1  0     0     978.5    NA       0.0000   UP       9999  300   0    
2019/06/16  07:26:00  BASE  1.36416  338  1.72284  338  -1.1  100   -1.1  0     0     978.5    NA       0.0000   UP       9999  260   0    
2019/06/16  07:27:00  BASE  1.35828  339  1.72284  338  -1.1  100   -1.1  0     0     978.4    NA       0.0000   UP       9999  300   0    
2019/06/16  07:28:00  BASE  1.323    342  1.63464  348  -1.1  100   -1.1  0     0     978.4    NA       0.0000   UP       9999  230   0    
2019/06/16  07:29:00  BASE  1.28772  348  1.57584  339  -1.1  100   -1.1  0     0     978.4    NA       0.0000   UP       9999  0     0    
2019/06/16  07:30:00  BASE  1.28772  343  1.57584  339  -1.1  100   -1.1  0     0     978.3    NA       0.0000   UP       9999  0     0    
2019/06/16  07:31:00  BASE  1.21716  346  1.51116  339  -1.1  100   -1.1  0     0     978.3    NA       0.0000   UP       9999  0     0    
2019/06/16  07:32:00  BASE  1.04076  357  1.51116  339  -1.1  100   -1.1  0     0     978.4    NA       0.0000   UP       9999  0     0    
2019/06/16  07:33:00  BASE  0.99372  356  1.51116  339  -1.2  100   -1.2  0     0     978.3    NA       0.0000   UP       9999  0     0    
2019/06/16  07:34:00  BASE  1.029    353  1.51116  339  -1.2  100   -1.2  0     0     978.3    NA       0.0000   UP       9999  300   0    
2019/06/16  07:35:00  BASE  1.01724  354  1.48176  335  -1.2  100   -1.2  0     0     978.3    NA       0.0000   -SN      9999  300   0    
2019/06/16  07:36:00  BASE  0.98784  358  1.42296  335  -1.2  100   -1.2  0     0     978.3    NA       0.0000   -SN      9999  300   0    
2019/06/16  07:37:00  BASE  1.05252  354  1.42296  335  -1.2  100   -1.2  0     0     978.2    NA       0.0000   -SN      9999  0     0    
2019/06/16  07:38:00  BASE  1.1466   349  1.42296  335  -1.2  100   -1.2  0     0     978.2    NA       0.0000   -SN      9999  360   0    
2019/06/16  07:39:00  BASE  1.2054   347  1.42296  335  -1.2  100   -1.2  0     0     978.2    NA       0.0000   -SN      9999  300   0    
2019/06/16  07:40:00  BASE  1.25244  347  1.29948  347  -1.2  100   -1.2  0     0     978.3    NA       0.0000   -SN      9999  0     0    
2019/06/16  07:41:00  BASE  1.31712  347  1.48176  352  -1.2  100   -1.2  0     0     978.2    NA       0.0000   -SN      9999  0     0    
2019/06/16  07:42:00  BASE  1.32888  346  1.48176  352  -1.2  100   -1.2  0     0     978.2    NA       0.0000   -SN      9999  0     0    
2019/06/16  07:43:00  BASE  1.2642   345  1.48176  352  -1.2  100   -1.2  0     0     978.2    NA       0.0000   -SN      9999  0     0    
2019/06/16  07:44:00  BASE  1.24656  347  1.48176  352  -1.2  100   -1.2  0     0     978.2    NA       0.0000   -SN      9999  0     0    
2019/06/16  07:45:00  BASE  1.22892  350  1.48176  352  -1.2  100   -1.2  0     0     978.2    NA       0.0000   -SN      9999  0     0    
2019/06/16  07:46:00  BASE  1.21716  353  1.48176  352  -1.2  100   -1.2  0     0     978.2    NA       0.0000   -SN      9999  0     0    
2019/06/16  07:47:00  BASE  1.28184  353  1.54056  353  -1.2  100   -1.2  0     0     978.1    NA       0.0000   -SN      9999  260   0    
2019/06/16  07:48:00  BASE  1.37004  352  1.54056  350  -1.1  100   -1.1  0     0     978.0    NA       0.0000   -SN      9999  330   0    
2019/06/16  07:49:00  BASE  1.39356  355  1.57584  2    -1.1  100   -1.1  0     0     978.0    NA       0.0000   -SN      9999  230   0    
2019/06/16  07:50:00  BASE  1.4406   360  1.69344  12   -1.1  100   -1.1  0     0     977.9    NA       0.0000   -SN      9999  0     0    
2019/06/16  07:51:00  BASE  1.47588  358  1.69344  12   -1.1  100   -1.1  0     0     977.9    NA       0.0000   -SN      9999  0     0    
2019/06/16  07:52:00  BASE  1.44648  355  1.69344  12   -1.1  100   -1.1  0     0     977.8    NA       0.0000   -SN      9999  0     0    
2019/06/16  07:53:00  BASE  1.48764  352  1.69344  349  -1.1  100   -1.1  0     0     977.7    NA       0.0000   -SN      9999  0     0    
2019/06/16  07:54:00  BASE  1.5288   352  1.69344  352  -1.0  100   -1.0  0     0     977.8    NA       0.0000   -SN      9999  0     0    
2019/06/16  07:55:00  BASE  1.5582   353  1.75224  3    -1.0  100   -1.0  0     0     977.7    NA       0.0000   -SN      9999  0     0    
2019/06/16  07:56:00  BASE  1.66992  355  1.96392  351  -1.0  100   -1.0  0     0     977.6    NA       0.0000   -SN      9999  0     0    
2019/06/16  07:57:00  BASE  1.764    353  2.0874   345  -1.0  100   -1.0  0     0     977.5    NA       0.0000   -SN      9999  0     0    
2019/06/16  07:58:00  BASE  1.7346   351  2.0874   345  -1.0  100   -1.0  0     0     977.6    NA       0.0000   -SN      9999  0     0    
2019/06/16  07:59:00  BASE  1.71108  352  2.0874   345  -1.0  100   -1.0  0     0     977.6    NA       0.0000   -SN      9999  0     0    
2019/06/16  08:00:00  BASE  1.71696  358  2.0874   345  -1.0  100   -1.0  0     0     977.6    NA       0.0000   -SN      9999  230   0    
2019/06/16  08:01:00  BASE  1.85808  2    2.1462   4    -1.0  100   -1.0  0     0     977.4    NA       0.0000   -SN      9999  330   0    
2019/06/16  08:02:00  BASE  2.03448  357  2.21088  2    -0.9  100   -0.9  0     0     977.3    NA       0.0000   -SN      9999  390   0    
2019/06/16  08:03:00  BASE  2.1462   360  2.35788  360  -0.9  100   -0.9  0     0     977.1    NA       0.0000   -SN      9999  430   0    
2019/06/16  08:04:00  BASE  2.16384  359  2.35788  360  -0.9  100   -0.9  0     0     977.2    NA       0.0000   -SN      9999  330   0    
2019/06/16  08:05:00  BASE  2.1462   359  2.35788  353  -0.9  100   -0.9  0     0     977.1    NA       0.0000   -SN      9999  390   0    
2019/06/16  08:06:00  BASE  2.16384  1    2.35788  353  -0.9  100   -0.9  0     0     977.2    NA       0.0000   -SN      9999  560   0    
2019/06/16  08:07:00  BASE  2.0874   356  2.35788  353  -0.8  100   -0.8  0     0     977.1    NA       0.0000   -SN      9999  430   0    
2019/06/16  08:08:00  BASE  1.95216  353  2.35788  353  -0.8  100   -0.8  0     0     977.2    NA       0.0000   -SN      9999  750   0    
2019/06/16  08:09:00  BASE  2.02272  352  2.35788  353  -0.8  100   -0.8  0     0     977.0    NA       0.0000   -SN      9999  720   0    
2019/06/16  08:10:00  BASE  2.08152  355  2.35788  353  -0.8  100   -0.8  0     0     977.1    NA       0.0000   -SN      9999  750   0    
2019/06/16  08:11:00  BASE  1.9992   352  2.35788  353  -0.7  100   -0.7  0     0     977.1    NA       0.0000   -SN      9999  490   0    
2019/06/16  08:12:00  BASE  2.1168   346  2.38728  1    -0.7  100   -0.7  0     0     977.0    NA       0.0000   -SN      9999  0     0    
2019/06/16  08:13:00  BASE  2.21676  355  2.51076  5    -0.7  100   -0.7  0     0     976.9    NA       0.0000   -SN      9999  0     0    
2019/06/16  08:14:00  BASE  2.24028  1    2.51076  5    -0.7  100   -0.7  0     0     976.9    NA       0.0000   -SN      9999  330   0    
2019/06/16  08:15:00  BASE  2.36964  2    2.56956  4    -0.7  100   -0.7  0     0     976.7    NA       0.0000   9999     0     0     0    
2019/06/16  08:16:00  BASE  2.40492  5    2.56956  4    -0.7  100   -0.7  0     0     976.8    NA       0.0000   9999     0     0     0    
2019/06/16  08:17:00  BASE  2.2932   8    2.56956  4    -0.7  100   -0.7  0     0     976.8    NA       0.0000   9999     0     0     0    
2019/06/16  08:18:00  BASE  2.31084  7    2.56956  4    -0.7  100   -0.7  0     0     976.6    NA       0.0000   9999     0     0     0    
2019/06/16  08:19:00  BASE  2.34612  9    2.59896  15   -0.7  100   -0.7  0     0     976.6    NA       0.0000   -SN      9999  0     0    
2019/06/16  08:20:00  BASE  2.40492  10   2.75184  12   -0.7  100   -0.7  0     0     976.5    NA       0.0000   -SN      9999  0     0    
2019/06/16  08:21:00  BASE  2.44608  8    2.75184  12   -0.7  100   -0.7  0     0     976.5    NA       0.0000   -SN      9999  0     0    
2019/06/16  08:22:00  BASE  2.4696   8    2.75184  12   -0.7  100   -0.7  0     0     976.4    NA       0.0000   -SN      9999  0     0    
2019/06/16  08:23:00  BASE  2.45784  7    2.75184  12   -0.7  100   -0.7  0     0     976.4    NA       0.0000   -SN      9999  260   0    
2019/06/16  08:24:00  BASE  2.42844  6    2.75184  12   -0.6  100   -0.6  0     0     976.4    NA       0.0000   -SN      9999  0     0    
2019/06/16  08:25:00  BASE  2.44608  8    2.75184  12   -0.6  100   -0.6  0     0     976.4    NA       0.0000   -SN      9999  0     0    
2019/06/16  08:26:00  BASE  2.39316  8    2.75184  12   -0.6  100   -0.6  0     0     976.4    NA       0.0000   -SN      9999  0     0    
2019/06/16  08:27:00  BASE  2.31672  10   2.75184  12   -0.6  100   -0.6  0     0     976.4    NA       0.0000   -SN      9999  300   0    
2019/06/16  08:28:00  BASE  2.24616  11   2.75184  12   -0.6  100   -0.6  0     0     976.3    NA       0.0000   -SN      9999  330   0    
2019/06/16  08:29:00  BASE  2.25204  13   2.75184  12   -0.6  100   -0.6  0     0     976.2    NA       0.0000   -SN      9999  0     0    
2019/06/16  08:30:00  BASE  2.34024  13   2.66364  9    -0.6  100   -0.6  0     0     976.1    NA       0.0000   -SN      7000  230   0    
2019/06/16  08:31:00  BASE  2.36964  13   2.66364  9    -0.6  100   -0.6  0     0     976.1    NA       0.0000   -SN      5000  0     0    
2019/06/16  08:32:00  BASE  2.41668  14   2.66364  17   -0.6  100   -0.6  0     0     976.0    NA       0.0000   -SN      BR    5000  330  
2019/06/16  08:33:00  BASE  2.47548  10   2.84592  3    -0.5  100   -0.5  0     0     975.9    NA       0.0000   -SN      BR    7000  330  
2019/06/16  08:34:00  BASE  2.53428  1    2.84592  3    -0.5  100   -0.5  0     0     975.7    NA       0.0000   -SN      BR    9999  330  
2019/06/16  08:35:00  BASE  2.646    2    2.84592  3    -0.5  100   -0.5  0     0     975.8    NA       0.0000   -SN      BR    9999  0    
2019/06/16  08:36:00  BASE  2.58132  10   2.84592  3    -0.4  100   -0.4  0     0     975.8    NA       0.0000   -SN      BR    8000  0    
2019/06/16  08:37:00  BASE  2.75184  15   3.65736  16   -0.4  100   -0.4  0     0     975.6    NA       0.0000   -SN      BR    6000  0    
2019/06/16  08:38:00  BASE  2.86944  12   3.65736  16   -0.4  100   -0.4  0     0     975.6    NA       0.0000   -SN      BR    4200  0    
2019/06/16  08:39:00  BASE  2.68716  7    3.65736  16   -0.4  100   -0.4  0     0     975.6    NA       0.0000   -SN      BR    4800  0    
2019/06/16  08:40:00  BASE  2.65776  4    3.65736  16   -0.3  100   -0.3  0     0     975.5    NA       0.0000   -SN      BR    6000  0    
2019/06/16  08:41:00  BASE  2.61072  360  3.65736  16   -0.2  100   -0.2  0     0     975.5    NA       0.0000   -SN      BR    9999  0    
2019/06/16  08:42:01  BASE  2.646    3    3.65736  16   -0.2  100   -0.2  0     0     975.4    NA       0.0000   -SN      BR    5000  0    
2019/06/16  08:43:01  BASE  2.56368  10   3.65736  16   -0.1  100   -0.1  0     0     975.7    NA       0.0000   -SN      BR    2600  0    
2019/06/16  08:44:01  BASE  2.45196  15   3.65736  16   -0.1  100   -0.1  0     0     975.6    NA       0.0000   -SN      BR    2100  0    
2019/06/16  08:45:01  BASE  2.6166   16   3.65736  16   -0.1  100   -0.1  0     0     975.4    NA       0.0000   -SN      BR    1400  0    
2019/06/16  08:46:00  BASE  2.75184  15   3.65736  16   -0.3  100   -0.3  0     0     975.4    NA       0.0000   -SN      BR    1400  0    
2019/06/16  08:47:00  BASE  2.66364  15   3.1458   21   -0.4  100   -0.4  0     0     975.5    NA       0.0000   -SN      BR    2000  0    
2019/06/16  08:48:01  BASE  2.5872   17   3.087    8    -0.5  100   -0.5  0     0     975.5    NA       0.0000   -SN      BR    1900  0    
2019/06/16  08:49:01  BASE  2.59896  15   3.087    8    -0.5  100   -0.5  0     0     975.4    NA       0.0000   -SN      BR    1900  0    
2019/06/16  08:50:01  BASE  2.66952  16   3.087    8    -0.5  100   -0.5  0     0     975.2    NA       0.0000   -SN      BR    1900  0    
2019/06/16  08:51:01  BASE  2.82828  19   3.1458   15   -0.5  100   -0.5  0     0     975.2    NA       0.0000   -SN      BR    1600  0    
2019/06/16  08:52:01  BASE  2.88708  20   3.1458   15   -0.5  100   -0.5  0     0     975.1    NA       0.0000   -SN      BR    1400  0    
2019/06/16  08:53:01  BASE  2.85768  18   3.1458   15   -0.5  100   -0.5  0     0     975.1    NA       0.0000   -SN      BR    1700  0    
2019/06/16  08:54:01  BASE  2.83416  16   3.1458   15   -0.5  100   -0.5  0     0     975.1    NA       0.0000   -SN      BR    2500  0    
2019/06/16  08:55:01  BASE  2.80476  16   3.1458   15   -0.5  100   -0.5  0     0     975.1    NA       0.0000   -SN      BR    2700  0    
2019/06/16  08:56:01  BASE  2.9106   17   3.26928  20   -0.5  100   -0.5  0     0     974.9    NA       0.0000   -SN      BR    2300  0    
2019/06/16  08:57:01  BASE  3.0282   15   3.26928  15   -0.5  100   -0.5  0     0     974.8    NA       0.0000   -SN      BR    1800  0    
2019/06/16  08:58:01  BASE  3.01056  13   3.32808  11   -0.4  100   -0.4  0     0     974.8    NA       0.0000   -SN      BR    1600  0    
2019/06/16  08:59:01  BASE  2.9694   14   3.32808  11   -0.4  100   -0.4  0     0     974.9    NA       0.0000   -SN      BR    2300  0    
2019/06/16  09:00:01  BASE  3.06348  14   3.48096  8    -0.4  100   -0.4  0     0     974.7    NA       0.0000   -SN      BR    3200  0    
2019/06/16  09:01:01  BASE  3.2046   14   3.48096  8    -0.3  100   -0.3  0     0     974.6    NA       0.0000   -SN      BR    3100  0    
2019/06/16  09:02:01  BASE  3.11052  14   3.48096  8    -0.3  100   -0.3  0     0     974.8    NA       0.0000   -SN      BR    2900  0    
2019/06/16  09:03:01  BASE  3.0576   14   3.48096  8    -0.2  100   -0.2  0     0     974.6    NA       0.0000   -SN      BR    3400  0    
2019/06/16  09:04:01  BASE  3.11052  12   3.48096  8    -0.2  100   -0.2  0     0     974.5    NA       0.0000   -SN      BR    3000  0    
2019/06/16  09:05:01  BASE  3.1164   13   3.48096  8    -0.2  100   -0.2  0     0     974.6    NA       0.0000   -SN      BR    2900  0    
2019/06/16  09:06:01  BASE  3.08112  15   3.56916  15   -0.2  100   -0.2  0     0     974.5    NA       0.0000   -SN      BR    3200  0    
2019/06/16  09:07:01  BASE  3.08112  11   3.56916  15   -0.2  100   -0.2  0     0     974.5    NA       0.0000   -SN      BR    3500  0    
2019/06/16  09:08:01  BASE  2.92824  7    3.56916  15   -0.2  100   -0.2  0     0     974.6    NA       0.0000   -SN      BR    9000  0    
2019/06/16  09:09:01  BASE  2.82828  4    3.56916  15   -0.1  100   -0.1  0     0     974.4    NA       0.0000   -SN      BR    9999  0    
2019/06/16  09:10:01  BASE  2.84592  4    3.56916  15   -0.1  100   -0.1  0     0     974.5    NA       0.0000   -SN      BR    9999  0    
2019/06/16  09:11:01  BASE  3.06348  9    3.93372  9    -0.1  100   -0.1  0     0     974.2    NA       0.0000   -SN      BR    9999  230  
2019/06/16  09:12:01  BASE  3.18108  11   3.93372  9    -0.0  100   -0.0  0     0     974.4    NA       0.0000   -SN      BR    9999  0    
2019/06/16  09:13:01  BASE  2.92236  10   3.93372  9    -0.1  100   -0.1  0     0     974.5    NA       0.0000   -SN      BR    9999  0    
2019/06/16  09:14:01  BASE  2.88708  357  3.93372  9    -0.0  100   -0.0  0     0     974.3    NA       0.0000   -SN      BR    9999  300  
2019/06/16  09:15:01  BASE  2.8224   354  3.93372  9    -0.0  100   -0.0  0     0     974.5    NA       0.0000   -SN      BR    9999  360  
2019/06/16  09:16:01  BASE  2.63424  356  3.93372  9    0.0   100   0.0   0     0     974.5    NA       0.0000   -SN      BR    9999  360  
2019/06/16  09:17:01  BASE  2.59308  354  3.93372  9    0.1   100   0.1   0     0     974.6    NA       0.0000   -SN      9999  0     0    
2019/06/16  09:18:01  BASE  2.66952  1    3.93372  9    0.1   100   0.1   0     0     974.6    NA       0.0000   -SN      9999  260   0    
2019/06/16  09:19:01  BASE  2.81064  359  3.93372  9    0.1   100   0.1   0     0     974.4    NA       0.0000   -SN      9999  0     0    
2019/06/16  09:20:01  BASE  2.99292  359  3.93372  9    0.1   100   0.1   0     0     974.4    NA       0.0000   -SN      9999  0     0    
2019/06/16  09:21:01  BASE  2.91648  358  3.44568  3    0.1   100   0.1   0     0     974.4    NA       0.0000   -SN      9999  0     0    
2019/06/16  09:22:01  BASE  2.62248  350  3.44568  3    0.1   100   0.1   0     0     974.6    NA       0.0000   -SN      9999  0     0    
2019/06/16  09:23:01  BASE  2.49312  352  3.44568  3    0.1   100   0.1   0     0     974.5    NA       0.0000   -SN      9999  0     0    
2019/06/16  09:24:01  BASE  2.59896  360  3.44568  3    0.1   100   0.1   0     0     974.3    NA       0.0000   -SN      9999  0     0    
2019/06/16  09:25:01  BASE  2.79888  356  3.44568  3    0.1   100   0.1   0     0     974.2    NA       0.0000   -SN      9999  0     0    
2019/06/16  09:26:01  BASE  2.71068  352  3.44568  3    0.1   100   0.1   0     0     974.4    NA       0.0000   -SN      9999  0     0    
2019/06/16  09:27:01  BASE  2.34024  351  3.44568  3    0.2   100   0.2   0     0     974.6    NA       0.0000   -SN      9999  0     0    
2019/06/16  09:28:01  BASE  2.16384  347  3.44568  3    0.2   100   0.2   0     0     974.6    NA       0.0000   -SN      9999  0     0    
2019/06/16  09:29:01  BASE  2.4696   346  3.44568  3    0.2   100   0.2   0     0     974.2    NA       0.0000   -SN      9999  300   0    
2019/06/16  09:30:01  BASE  2.71068  348  3.29868  1    0.2   100   0.2   0     0     974.3    NA       0.0000   -SN      9999  0     0    
2019/06/16  09:31:01  BASE  2.68716  350  3.29868  1    0.3   100   0.3   0     0     974.2    NA       0.0000   9999     0     0     0    
2019/06/16  09:32:01  BASE  2.84004  349  3.29868  349  0.3   100   0.3   0     0     974.1    NA       0.0000   9999     330   0     0    
2019/06/16  09:33:01  BASE  2.8518   349  3.29868  349  0.4   100   0.4   0     0     974.3    NA       0.0000   9999     330   0     0    
2019/06/16  09:34:01  BASE  2.85768  348  3.35748  350  0.4   100   0.4   0     0     974.2    NA       0.0000   9999     330   0     0    
2019/06/16  09:35:01  BASE  2.91648  349  3.41628  347  0.5   100   0.5   0     0     974.2    NA       0.0000   9999     390   0     0    
2019/06/16  09:36:01  BASE  2.88708  356  3.41628  347  0.5   100   0.5   0     0     974.2    NA       0.0000   9999     390   0     0    
2019/06/16  09:37:01  BASE  3.0282   1    3.62796  349  0.5   100   0.5   0     0     974.1    NA       0.0000   9999     0     0     0    
2019/06/16  09:38:01  BASE  3.04584  359  3.62796  349  0.5   100   0.5   0     0     974.1    NA       0.0000   9999     390   0     0    
2019/06/16  09:39:01  BASE  2.99292  358  3.62796  349  0.5   100   0.5   0     0     974.0    NA       0.0000   9999     390   0     0    
2019/06/16  09:40:01  BASE  3.12816  355  3.62796  349  0.5   100   0.5   0     0     973.9    NA       0.0000   9999     0     0     0    
2019/06/16  09:41:01  BASE  3.30456  356  3.78084  4    0.5   100   0.5   0     0     973.9    NA       0.0000   9999     0     0     0    
2019/06/16  09:42:01  BASE  3.2634   356  3.78084  4    0.5   100   0.5   0     0     973.9    NA       0.0000   9999     0     0     0    
2019/06/16  09:43:01  BASE  3.1164   358  3.78084  4    0.5   100   0.5   0     0     974.0    NA       0.0000   9999     0     0     0    
2019/06/16  09:44:01  BASE  3.23988  2    3.78084  4    0.4   100   0.4   0     0     973.8    NA       0.0000   -SN      9999  0     0    
2019/06/16  09:45:01  BASE  3.25164  357  3.78084  4    0.4   100   0.4   0     0     973.9    NA       0.0000   -SN      9999  0     0    
2019/06/16  09:46:01  BASE  3.19284  356  3.78084  4    0.4   100   0.4   0     0     973.8    NA       0.0000   -SN      9999  0     0    
2019/06/16  09:47:01  BASE  3.30456  356  3.78084  4    0.4   100   0.4   0     0     973.7    NA       0.0000   -SN      9999  0     0    
2019/06/16  09:48:01  BASE  3.34572  355  3.78084  4    0.4   100   0.4   0     0     973.8    NA       0.0000   -SN      9999  0     0    
2019/06/16  09:49:01  BASE  3.40452  356  3.78084  4    0.4   100   0.4   0     0     973.7    NA       0.0000   -SN      9999  0     0    
2019/06/16  09:50:01  BASE  3.51624  358  3.78084  4    0.4   100   0.4   0     0     973.7    NA       0.0000   -SN      9999  0     0    
2019/06/16  09:51:01  BASE  3.57504  1    3.81024  3    0.4   100   0.4   0     0     973.6    NA       0.0000   -SN      9999  0     0    
2019/06/16  09:52:01  BASE  3.47508  360  3.81024  3    0.4   100   0.4   0     0     973.7    NA       0.0000   -SN      9999  330   0    
2019/06/16  09:53:01  BASE  3.28104  356  3.81024  2    0.4   100   0.4   0     0     973.8    NA       0.0000   -SN      9999  330   0    
2019/06/16  09:54:01  BASE  3.09288  356  3.81024  2    0.4   100   0.4   0     0     973.9    NA       0.0000   -SN      9999  0     0    
2019/06/16  09:55:01  BASE  3.0576   0    3.81024  2    0.4   100   0.4   0     0     973.9    NA       0.0000   -SN      9999  0     0    
2019/06/16  09:56:01  BASE  3.23988  359  3.83964  354  0.4   100   0.4   0     0     973.6    NA       0.0000   -SN      9999  360   0    
2019/06/16  09:57:01  BASE  3.37512  356  3.83964  354  0.5   100   0.5   0     0     973.7    NA       0.0000   -SN      9999  300   0    
2019/06/16  09:58:01  BASE  3.43392  353  3.83964  354  0.5   100   0.5   0     0     973.6    NA       0.0000   -SN      9999  260   0    
2019/06/16  09:59:01  BASE  3.50448  351  3.83964  354  0.5   100   0.5   0     0     973.6    NA       0.0000   -SN      9999  0     0    
2019/06/16  10:00:01  BASE  3.53976  351  3.93372  346  0.5   100   0.5   0     0     973.6    NA       0.0000   -SN      9999  0     0    
2019/06/16  10:01:01  BASE  3.48684  351  3.93372  346  0.6   100   0.6   0     0     973.8    NA       0.0000   -SN      9999  0     0    
2019/06/16  10:02:01  BASE  3.49272  359  4.2042   354  0.6   100   0.6   0     0     973.7    NA       0.0000   -SN      9999  0     0    
2019/06/16  10:03:01  BASE  3.528    359  4.2042   354  0.5   100   0.5   0     0     973.7    NA       0.0000   -SN      9999  0     0    
2019/06/16  10:04:01  BASE  3.31044  353  4.2042   354  0.5   100   0.5   0     0     973.9    NA       0.0000   -SN      9999  0     0    
2019/06/16  10:05:01  BASE  3.25164  357  4.2042   354  0.5   100   0.5   0     0     973.8    NA       0.0000   -SN      9999  0     0    
2019/06/16  10:06:01  BASE  3.48096  2    4.2042   50   0.5   100   0.5   0     0     973.7    NA       0.0000   -SN      9999  0     0    
2019/06/16  10:07:01  BASE  3.56916  3    4.2042   50   0.5   100   0.5   0     0     973.7    NA       0.0000   -SN      9999  0     0    
2019/06/16  10:08:01  BASE  3.72204  352  4.38648  344  0.5   100   0.5   0     0     973.5    NA       0.0000   -SN      9999  0     0    
2019/06/16  10:09:01  BASE  3.7926   346  4.38648  344  0.5   100   0.5   0     0     973.7    NA       0.0000   -SN      9999  0     0    
2019/06/16  10:10:01  BASE  3.48096  346  4.38648  344  0.5   100   0.5   0     0     973.9    NA       0.0000   -SN      9999  0     0    
2019/06/16  10:11:01  BASE  3.4398   349  4.38648  344  0.5   100   0.5   0     0     973.7    NA       0.0000   -SN      9999  0     0    
2019/06/16  10:12:01  BASE  3.39864  357  4.38648  344  0.5   100   0.5   0     0     973.9    NA       0.0000   -SN      9999  0     0    
2019/06/16  10:13:01  BASE  3.39276  358  4.38648  344  0.5   100   0.5   0     0     973.8    NA       0.0000   -SN      9999  0     0    
2019/06/16  10:14:01  BASE  3.65148  356  4.41588  354  0.5   100   0.5   0     0     973.7    NA       0.0000   -SN      9999  0     0    
2019/06/16  10:15:01  BASE  3.71616  355  4.41588  354  0.5   100   0.5   0     0     973.7    NA       0.0000   -SN      9999  0     0    
2019/06/16  10:16:01  BASE  3.63384  353  4.41588  354  0.5   100   0.5   0     0     973.9    NA       0.0000   -SN      9999  0     0    
2019/06/16  10:17:01  BASE  3.52212  349  4.41588  354  0.4   100   0.4   0     0     973.9    NA       0.0000   -SN      9999  0     0    
2019/06/16  10:18:01  BASE  3.61032  348  4.47468  354  0.4   100   0.4   0     0     973.8    NA       0.0000   -SN      9999  0     0    
2019/06/16  10:19:01  BASE  3.69264  350  4.47468  354  0.4   100   0.4   0     0     973.8    NA       0.0000   -SN      9999  0     0    
2019/06/16  10:20:00  BASE  3.6456   346  4.47468  354  0.4   100   0.4   0     0     973.8    NA       0.0000   -SN      9999  0     0    
2019/06/16  10:21:01  BASE  3.36924  345  4.47468  354  0.4   100   0.4   0     0     974.1    NA       0.0000   -SN      9999  0     0    
2019/06/16  10:22:01  BASE  3.33984  348  4.47468  354  0.4   100   0.4   0     0     973.8    NA       0.0000   -SN      9999  0     0    
2019/06/16  10:23:01  BASE  3.43392  349  4.47468  354  0.4   100   0.4   0     0     974.0    NA       0.0000   -SN      9999  0     0    
2019/06/16  10:24:01  BASE  3.4986   347  4.47468  354  0.4   100   0.4   0     0     973.8    NA       0.0000   -SN      9999  0     0    
2019/06/16  10:25:01  BASE  3.4986   345  4.47468  354  0.3   100   0.3   0     0     974.0    NA       0.0000   -SN      9999  0     0    
2019/06/16  10:26:01  BASE  3.4692   338  4.47468  354  0.3   100   0.3   0     0     974.0    NA       0.0000   -SN      9999  0     0    
2019/06/16  10:27:00  BASE  3.56328  334  4.47468  354  0.3   100   0.3   0     0     974.0    NA       0.0000   -SN      9999  0     0    
2019/06/16  10:28:00  BASE  3.48096  337  4.29828  331  0.3   100   0.3   0     0     973.9    NA       0.0000   -SN      8000  0     0    
2019/06/16  10:29:01  BASE  3.52212  338  4.29828  331  0.2   100   0.2   0     0     974.0    NA       0.0000   -SN      9000  0     0    
2019/06/16  10:30:01  BASE  3.55152  340  4.29828  331  0.2   100   0.2   0     0     974.0    NA       0.0000   -SN      9000  0     0    
2019/06/16  10:31:00  BASE  3.36336  340  4.29828  331  0.2   100   0.2   0     0     974.1    NA       0.0000   -SN      8000  0     0    
2019/06/16  10:32:01  BASE  3.09876  337  4.29828  331  0.2   100   0.2   0     0     974.2    NA       0.0000   -SN      BR    7000  0    
2019/06/16  10:33:00  BASE  3.2046   338  4.29828  331  0.2   100   0.2   0     0     974.0    NA       0.0000   -SN      BR    7000  0    
2019/06/16  10:34:00  BASE  3.59268  340  4.29828  331  0.1   100   0.1   0     0     973.8    NA       0.0000   -SN      BR    8000  0    
2019/06/16  10:35:01  BASE  3.75732  338  4.29828  331  0.1   100   0.1   0     0     973.8    NA       0.0000   -SN      BR    7000  0    
2019/06/16  10:36:00  BASE  3.528    336  4.1454   338  0.1   100   0.1   0     0     974.1    NA       0.0000   -SN      BR    6000  0    
2019/06/16  10:37:00  BASE  3.528    331  4.1454   338  0.1   100   0.1   0     0     974.1    NA       0.0000   -SN      BR    5000  0    
2019/06/16  10:38:01  BASE  3.63384  328  4.1454   338  0.1   100   0.1   0     0     974.2    NA       0.0000   -SN      BR    3900  0    
2019/06/16  10:39:00  BASE  3.61032  327  4.1454   338  0.1   100   0.1   0     0     974.2    NA       0.0000   -SN      BR    3000  0    
2019/06/16  10:40:01  BASE  3.65148  328  4.1454   338  0.1   100   0.1   0     0     974.2    NA       0.0000   -SN      BR    3200  0    
2019/06/16  10:41:00  BASE  3.675    327  4.1748   329  0.1   100   0.1   0     0     974.3    NA       0.0000   -SN      BR    3200  0    
2019/06/16  10:42:01  BASE  3.36924  326  4.1748   329  0.1   100   0.1   0     0     974.5    NA       0.0000   -SN      BR    3200  0    
2019/06/16  10:43:00  BASE  3.21048  327  4.1748   329  0.1   100   0.1   0     0     974.4    NA       0.0000   -SN      BR    3600  0    
2019/06/16  10:44:00  BASE  3.42804  326  4.1748   329  0.0   100   0.0   0     0     974.4    NA       0.0000   -SN      BR    3600  0    
2019/06/16  10:45:01  BASE  3.55152  327  4.1748   329  0.0   100   0.0   0     0     974.3    NA       0.0000   -SN      BR    3700  0    
2019/06/16  10:46:00  BASE  3.55152  328  4.1748   329  0.0   100   0.0   0     0     974.4    NA       0.0000   -SN      BR    3600  0    
2019/06/16  10:47:00  BASE  3.68088  325  5.2038   323  0.0   100   0.0   0     0     974.4    NA       0.0000   -SN      BR    3500  0    
2019/06/16  10:48:00  BASE  4.15128  323  5.2038   323  0.0   100   0.0   0     0     974.5    NA       0.0000   -SN      BR    3400  360  
2019/06/16  10:49:00  BASE  4.31592  325  5.2038   323  0.0   100   0.0   0     0     974.5    NA       0.0000   -SN      BR    3400  430  
2019/06/16  10:50:01  BASE  4.26888  325  5.2038   323  0.0   100   0.0   0     0     974.5    NA       0.0000   -SN      BR    4600  330  
2019/06/16  10:51:00  BASE  4.12188  323  5.2038   323  0.0   100   0.0   0     0     974.6    NA       0.0000   -SN      BR    9999  360  
2019/06/16  10:52:00  BASE  4.11012  323  5.2038   323  0.0   100   0.0   0     0     974.6    NA       0.0000   -SN      BR    9000  330  
2019/06/16  10:53:00  BASE  4.19832  324  5.2038   323  -0.0  100   -0.0  0     0     974.7    NA       0.0000   -SN      BR    8000  330  
2019/06/16  10:54:00  BASE  4.12188  325  5.2038   323  -0.0  100   -0.0  0     0     974.6    NA       0.0000   -SN      BR    8000  0    
2019/06/16  10:55:01  BASE  3.96312  325  5.2038   323  -0.1  100   -0.1  0     0     974.8    NA       0.0000   -SN      BR    7000  260  
2019/06/16  10:56:01  BASE  3.6456   324  5.2038   323  -0.1  100   -0.1  0     0     974.8    NA       0.0000   -SN      BR    8000  360  
2019/06/16  10:57:00  BASE  3.73968  323  4.99212  327  -0.1  100   -0.1  0     0     974.8    NA       0.0000   -SN      BR    9999  430  
2019/06/16  10:58:00  BASE  4.01604  320  4.75104  320  -0.1  100   -0.1  0     0     974.8    NA       0.0000   -SN      BR    9999  430  
2019/06/16  10:59:00  BASE  3.89256  316  4.75104  320  -0.1  100   -0.1  0     0     975.0    NA       0.0000   -SN      BR    9999  390  
2019/06/16  11:00:01  BASE  3.77496  311  4.72164  327  -0.1  100   -0.1  0     0     975.0    NA       0.0000   -SN      BR    9999  360  
2019/06/16  11:01:01  BASE  3.88668  309  4.72164  327  -0.1  100   -0.1  0     0     975.0    NA       0.0000   -SN      BR    9999  300  
2019/06/16  11:02:00  BASE  3.93372  311  4.68636  323  -0.1  100   -0.1  0     0     975.0    NA       0.0000   -SN      BR    6000  0    
2019/06/16  11:03:00  BASE  3.84552  312  4.68636  323  -0.2  100   -0.2  0     0     975.1    NA       0.0000   -SN      BR    4800  0    
2019/06/16  11:04:00  BASE  3.78084  309  4.68636  323  -0.2  100   -0.2  0     0     975.1    NA       0.0000   -SN      BR    5000  300  
2019/06/16  11:05:01  BASE  3.78672  308  4.68636  323  -0.2  100   -0.2  0     0     975.1    NA       0.0000   -SN      BR    5000  300  
2019/06/16  11:06:00  BASE  3.65736  308  4.68636  323  -0.2  100   -0.2  0     0     975.2    NA       0.0000   -SN      BR    5000  360  
2019/06/16  11:07:00  BASE  3.63972  306  4.68636  323  -0.2  100   -0.2  0     0     975.2    NA       0.0000   -SN      BR    5000  330  
2019/06/16  11:08:00  BASE  3.63972  305  4.32768  310  -0.2  100   -0.2  0     0     975.3    NA       0.0000   -SN      BR    5000  360  
2019/06/16  11:09:00  BASE  3.45744  305  4.32768  310  -0.2  100   -0.2  0     0     975.3    NA       0.0000   -SN      BR    5000  520  
2019/06/16  11:10:01  BASE  3.61032  304  4.32768  310  -0.2  100   -0.2  0     0     975.3    NA       0.0000   -SN      BR    7000  620  
2019/06/16  11:11:00  BASE  3.63384  303  4.32768  310  -0.2  100   -0.2  0     0     975.4    NA       0.0000   -SN      BR    9999  560  
2019/06/16  11:12:00  BASE  3.38688  302  4.32768  310  -0.2  100   -0.2  0     0     975.4    NA       0.0000   -SN      BR    9999  690  
2019/06/16  11:13:00  BASE  3.46332  300  4.32768  310  -0.2  100   -0.2  0     0     975.4    NA       0.0000   -SN      BR    9999  620  
2019/06/16  11:14:00  BASE  3.52212  300  4.32768  310  -0.2  100   -0.2  0     0     975.5    NA       0.0000   BR       9999  590   0    
2019/06/16  11:15:00  BASE  3.4398   301  4.263    308  -0.2  100   -0.2  0     0     975.5    NA       0.0000   BR       9999  790   0    
2019/06/16  11:16:01  BASE  3.39864  302  4.263    308  -0.2  100   -0.2  0     0     975.5    NA       0.0000   BR       9999  850   0    
2019/06/16  11:17:00  BASE  3.46332  303  4.2042   302  -0.2  100   -0.2  0     0     975.5    NA       0.0000   BR       9999  850   0    
2019/06/16  11:18:00  BASE  3.66324  304  4.2042   302  -0.2  100   -0.2  0     0     975.5    NA       0.0000   9999     820   0     0    
2019/06/16  11:19:00  BASE  3.69852  306  4.2042   302  -0.2  100   -0.2  0     0     975.6    NA       0.0000   9999     720   0     0    
2019/06/16  11:20:01  BASE  3.52212  305  4.08072  302  -0.2  100   -0.2  0     0     975.6    NA       0.0000   9999     620   0     0    
2019/06/16  11:21:00  BASE  3.48684  303  4.08072  302  -0.2  100   -0.2  0     0     975.7    NA       0.0000   9999     890   0     0    
2019/06/16  11:22:00  BASE  3.32808  303  4.08072  302  -0.2  100   -0.2  0     0     975.7    NA       0.0000   9999     820   0     0    
2019/06/16  11:23:00  BASE  3.21636  301  4.08072  302  -0.2  100   -0.2  0     0     975.7    NA       0.0000   9999     690   0     0    
2019/06/16  11:24:00  BASE  3.33396  301  4.08072  302  -0.3  100   -0.3  0     0     975.7    NA       0.0000   9999     750   0     0    
2019/06/16  11:25:00  BASE  3.26928  302  4.08072  302  -0.3  100   -0.3  0     0     975.8    NA       0.0000   9999     850   0     0    
2019/06/16  11:26:00  BASE  3.29868  301  4.08072  302  -0.3  100   -0.3  0     0     975.8    NA       0.0000   9999     850   0     0    
2019/06/16  11:27:00  BASE  3.53388  301  4.2336   304  -0.3  100   -0.3  0     0     975.8    NA       0.0000   9999     920   0     0    
2019/06/16  11:28:00  BASE  3.75732  300  4.38648  302  -0.3  100   -0.3  0     0     975.8    NA       0.0000   9999     1050  0     0    
2019/06/16  11:29:00  BASE  3.62208  301  4.38648  302  -0.4  100   -0.4  0     0     975.9    NA       0.0000   9999     1150  0     0    
2019/06/16  11:30:00  BASE  3.51624  302  4.38648  302  -0.4  100   -0.4  0     0     975.8    NA       0.0000   9999     1080  0     0    
2019/06/16  11:31:00  BASE  3.59268  302  4.38648  302  -0.4  100   -0.4  0     0     975.9    NA       0.0000   9999     1180  0     0    
2019/06/16  11:32:00  BASE  3.49272  305  4.38648  302  -0.4  100   -0.4  0     0     975.9    NA       0.0000   9999     1050  0     0    
2019/06/16  11:33:00  BASE  3.45156  305  4.38648  302  -0.4  100   -0.4  0     0     975.9    NA       0.0000   9999     1280  0     0    
2019/06/16  11:34:00  BASE  3.32808  305  4.38648  302  -0.4  100   -0.4  0     0     976.0    NA       0.0000   9999     1280  0     0    
2019/06/16  11:35:00  BASE  3.19872  308  4.38648  302  -0.4  100   -0.4  0     0     976.0    NA       0.0000   9999     1180  0     0    
2019/06/16  11:36:00  BASE  3.01644  307  4.38648  302  -0.4  100   -0.4  0     0     976.0    NA       0.0000   9999     1350  0     0    
2019/06/16  11:37:00  BASE  2.99292  305  4.38648  302  -0.5  100   -0.5  0     0     976.0    NA       0.0000   9999     1350  0     0    
2019/06/16  11:38:00  BASE  3.13404  305  3.93372  311  -0.5  100   -0.5  0     0     976.0    NA       0.0000   9999     1280  0     0    
2019/06/16  11:39:00  BASE  3.01056  305  3.93372  311  -0.5  100   -0.5  0     0     976.0    NA       0.0000   9999     1410  0     0    
2019/06/16  11:40:00  BASE  3.15168  308  3.93372  311  -0.5  100   -0.5  0     0     976.0    NA       0.0000   9999     1250  0     0    
2019/06/16  11:41:00  BASE  3.34572  310  3.93372  311  -0.5  100   -0.5  0     0     976.0    NA       0.0000   9999     1350  0     0    
2019/06/16  11:42:00  BASE  3.3222   307  3.86904  306  -0.6  100   -0.6  0     0     976.0    NA       0.0000   9999     1380  0     0    
2019/06/16  11:43:00  BASE  3.25752  306  3.86904  306  -0.6  100   -0.6  0     0     976.1    NA       0.0000   9999     1440  0     0    
2019/06/16  11:44:01  BASE  3.25752  308  3.69264  309  -0.6  100   -0.6  0     0     976.1    NA       0.0000   9999     1440  0     0    
2019/06/16  11:45:01  BASE  3.24576  309  3.69264  309  -0.6  100   -0.6  0     0     976.2    NA       0.0000   9999     1480  0     0    
2019/06/16  11:46:01  BASE  3.12228  303  3.81024  299  -0.6  100   -0.6  0     0     976.2    NA       0.0000   9999     1570  0     0    
2019/06/16  11:47:01  BASE  3.00468  301  3.81024  299  -0.6  100   -0.6  0     0     976.2    NA       0.0000   9999     1610  0     0    
2019/06/16  11:48:01  BASE  2.9694   302  3.81024  299  -0.6  100   -0.6  0     0     976.2    NA       0.0000   9999     1570  0     0    
2019/06/16  11:49:01  BASE  3.087    299  3.81024  294  -0.6  100   -0.6  0     0     976.2    NA       0.0000   9999     1640  0     0    
2019/06/16  11:50:01  BASE  3.087    299  3.81024  294  -0.6  100   -0.6  0     0     976.3    NA       0.0000   9999     1540  0     0    
2019/06/16  11:51:01  BASE  2.96352  296  3.81024  294  -0.6  100   -0.6  0     0     976.3    NA       0.0000   9999     1510  0     0    
2019/06/16  11:52:01  BASE  2.9106   292  3.81024  294  -0.6  100   -0.6  0     0     976.3    NA       0.0000   9999     1510  0     0    
2019/06/16  11:53:01  BASE  2.81064  293  3.81024  294  -0.6  100   -0.6  0     0     976.4    NA       0.0000   9999     1610  0     0    
2019/06/16  11:54:01  BASE  2.646    293  3.81024  294  -0.6  100   -0.6  0     0     976.4    NA       0.0000   9999     1510  0     0    
2019/06/16  11:55:01  BASE  2.78712  295  3.81024  294  -0.6  100   -0.6  0     0     976.4    NA       0.0000   9999     1480  0     0    
2019/06/16  11:56:01  BASE  3.27516  293  3.96312  293  -0.6  100   -0.6  0     0     976.3    NA       0.0000   9999     1380  0     0    
2019/06/16  11:57:01  BASE  3.49272  289  3.96312  293  -0.6  100   -0.6  0     0     976.3    NA       0.0000   9999     1350  0     0    
2019/06/16  11:58:01  BASE  3.16344  290  3.96312  293  -0.5  100   -0.5  0     0     976.4    NA       0.0000   9999     1350  0     0    
2019/06/16  11:59:01  BASE  2.78712  294  3.96312  293  -0.5  100   -0.5  0     0     976.4    NA       0.0000   9999     1350  0     0    
2019/06/16  12:00:01  BASE  2.83416  294  3.96312  293  -0.5  100   -0.5  0     0     976.4    NA       0.0000   9999     1310  0     0    
2019/06/16  12:01:01  BASE  3.087    291  3.96312  293  -0.5  100   -0.5  0     0     976.4    NA       0.0000   9999     1310  0     0    
2019/06/16  12:02:01  BASE  2.84592  292  3.96312  293  -0.5  100   -0.5  0     0     976.5    NA       0.0000   9999     1280  0     0    
2019/06/16  12:03:01  BASE  2.81064  292  3.96312  293  -0.5  100   -0.5  0     0     976.5    NA       0.0000   9999     1280  0     0    
2019/06/16  12:04:01  BASE  2.98704  291  3.96312  293  -0.5  100   -0.5  0     0     976.5    NA       0.0000   9999     1210  0     0    
2019/06/16  12:05:01  BASE  3.1164   292  3.96312  293  -0.5  100   -0.5  0     0     976.5    NA       0.0000   9999     1250  0     0    
2019/06/16  12:06:01  BASE  3.1164   294  3.65736  296  -0.5  100   -0.5  0     0     976.5    NA       0.0000   9999     1210  0     0    
2019/06/16  12:07:01  BASE  3.00468  293  3.65736  296  -0.5  100   -0.5  0     0     976.5    NA       0.0000   9999     1180  0     0    
2019/06/16  12:08:01  BASE  3.087    291  3.65736  296  -0.5  100   -0.5  0     0     976.6    NA       0.0000   9999     1250  0     0    
2019/06/16  12:09:01  BASE  3.01644  293  3.65736  296  -0.5  100   -0.5  0     0     976.6    NA       0.0000   9999     1210  0     0    
2019/06/16  12:10:01  BASE  2.98116  295  3.65736  296  -0.5  100   -0.5  0     0     976.6    NA       0.0000   9999     1210  0     0    
2019/06/16  12:11:01  BASE  2.84004  295  3.65736  296  -0.5  100   -0.5  0     0     976.7    NA       0.0000   9999     1210  0     0    
2019/06/16  12:12:01  BASE  2.51664  293  3.65736  296  -0.5  100   -0.5  0     0     976.7    NA       0.0000   9999     1210  0     0    
2019/06/16  12:13:01  BASE  2.80476  291  3.99252  283  -0.5  100   -0.5  0     0     976.6    NA       0.0000   9999     1180  0     0    
2019/06/16  12:14:01  BASE  3.28692  293  3.99252  283  -0.5  100   -0.5  0     0     976.6    NA       0.0000   9999     1250  0     0    
2019/06/16  12:15:01  BASE  3.12228  297  3.99252  283  -0.5  100   -0.5  0     0     976.6    NA       0.0000   9999     1250  0     0    
2019/06/16  12:16:01  BASE  2.9106   295  3.99252  283  -0.5  100   -0.5  0     0     976.7    NA       0.0000   9999     1210  0     0    
2019/06/16  12:17:01  BASE  2.92236  293  3.99252  283  -0.5  100   -0.5  0     0     976.7    NA       0.0000   9999     1180  0     0    
2019/06/16  12:18:01  BASE  2.95764  293  3.99252  283  -0.5  100   -0.5  0     0     976.7    NA       0.0000   9999     1180  0     0    
2019/06/16  12:19:01  BASE  2.98116  292  3.99252  283  -0.5  100   -0.5  0     0     976.7    NA       0.0000   9999     1120  0     0    
2019/06/16  12:20:01  BASE  2.9106   290  3.99252  283  -0.5  100   -0.5  0     0     976.8    NA       0.0000   9999     1180  0     0    
2019/06/16  12:21:01  BASE  2.75772  289  3.99252  283  -0.5  100   -0.5  0     0     976.8    NA       0.0000   9999     1180  0     0    
2019/06/16  12:22:01  BASE  2.75772  290  3.99252  283  -0.5  100   -0.5  0     0     976.8    NA       0.0000   9999     1120  0     0    
2019/06/16  12:23:01  BASE  3.01056  291  3.86904  294  -0.5  100   -0.5  0     0     976.7    NA       0.0000   9999     1120  0     0    
2019/06/16  12:24:01  BASE  3.27516  291  3.93372  293  -0.5  100   -0.5  0     0     976.8    NA       0.0000   9999     1120  0     0    
2019/06/16  12:25:01  BASE  3.02232  295  3.93372  293  -0.5  100   -0.5  0     0     976.8    NA       0.0000   9999     1180  0     0    
2019/06/16  12:26:01  BASE  2.6754   297  3.93372  293  -0.5  100   -0.5  0     0     976.8    NA       0.0000   9999     1120  0     0    
2019/06/16  12:27:01  BASE  2.63424  295  3.93372  293  -0.5  100   -0.5  0     0     976.8    NA       0.0000   9999     1150  0     0    
2019/06/16  12:28:01  BASE  2.74596  295  3.93372  293  -0.5  100   -0.5  0     0     976.8    NA       0.0000   9999     1120  0     0    
2019/06/16  12:29:01  BASE  2.8224   295  3.93372  293  -0.5  100   -0.5  0     0     976.8    NA       0.0000   9999     1210  0     0    
2019/06/16  12:30:01  BASE  2.90472  293  3.93372  293  -0.5  100   -0.5  0     0     976.8    NA       0.0000   9999     1120  0     0    
2019/06/16  12:31:01  BASE  2.9106   290  3.93372  293  -0.5  100   -0.5  0     0     976.8    NA       0.0000   9999     1080  0     0    
2019/06/16  12:32:01  BASE  2.85768  292  3.93372  293  -0.5  100   -0.5  0     0     976.8    NA       0.0000   9999     1150  0     0    
2019/06/16  12:33:01  BASE  2.79888  294  3.93372  293  -0.5  100   -0.5  0     0     976.8    NA       0.0000   9999     1210  0     0    
2019/06/16  12:34:01  BASE  2.7048   290  3.62796  288  -0.5  100   -0.5  0     0     976.8    NA       0.0000   9999     1050  0     0    
2019/06/16  12:35:01  BASE  2.89884  289  3.62796  288  -0.5  100   -0.5  0     0     976.8    NA       0.0000   9999     1080  0     0    
2019/06/16  12:36:01  BASE  3.19284  292  3.62796  288  -0.5  100   -0.5  0     0     976.7    NA       0.0000   9999     1080  0     0    
2019/06/16  12:37:01  BASE  3.28692  294  3.86904  290  -0.5  100   -0.5  0     0     976.8    NA       0.0000   9999     1180  0     0    
2019/06/16  12:38:01  BASE  3.34572  292  3.93372  288  -0.5  100   -0.5  0     0     976.8    NA       0.0000   9999     1180  0     0    
2019/06/16  12:39:01  BASE  3.234    291  3.93372  288  -0.5  100   -0.5  0     0     976.8    NA       0.0000   9999     1120  0     0    
2019/06/16  12:40:01  BASE  3.3222   293  4.1454   292  -0.5  100   -0.5  0     0     976.8    NA       0.0000   9999     1120  0     0    
2019/06/16  12:41:01  BASE  3.3222   292  4.1454   292  -0.5  100   -0.5  0     0     976.9    NA       0.0000   9999     1180  0     0    
2019/06/16  12:42:01  BASE  2.9106   293  4.1454   292  -0.5  100   -0.5  0     0     976.9    NA       0.0000   9999     1180  0     0    
2019/06/16  12:43:01  BASE  2.8812   296  4.1454   292  -0.5  100   -0.5  0     0     976.9    NA       0.0000   9999     1380  2170  0    
2019/06/16  12:44:01  BASE  2.90472  296  4.1454   292  -0.5  100   -0.5  0     0     976.9    NA       0.0000   9999     1350  1970  0    
2019/06/16  12:45:01  BASE  2.8812   294  4.1454   292  -0.5  100   -0.5  0     0     976.9    NA       0.0000   9999     1210  0     0    
2019/06/16  12:46:01  BASE  2.96352  292  4.1454   292  -0.5  100   -0.5  0     0     977.0    NA       0.0000   9999     1250  0     0    
2019/06/16  12:47:01  BASE  3.0282   290  4.1454   292  -0.5  100   -0.5  0     0     976.9    NA       0.0000   9999     1280  0     0    
2019/06/16  12:48:01  BASE  2.8812   291  4.1454   292  -0.5  100   -0.5  0     0     977.0    NA       0.0000   9999     1210  0     0    
2019/06/16  12:49:01  BASE  2.7636   292  4.1454   292  -0.5  100   -0.5  0     0     977.0    NA       0.0000   9999     1250  0     0    
2019/06/16  12:50:01  BASE  2.92236  292  3.69264  282  -0.5  100   -0.5  0     0     976.9    NA       0.0000   9999     1180  0     0    
2019/06/16  12:51:01  BASE  2.98116  292  3.69264  282  -0.5  100   -0.5  0     0     976.9    NA       0.0000   9999     1180  0     0    
2019/06/16  12:52:01  BASE  3.1164   291  3.69264  290  -0.5  100   -0.5  0     0     977.0    NA       0.0000   9999     1080  0     0    
2019/06/16  12:53:01  BASE  3.23988  291  3.83964  296  -0.5  100   -0.5  0     0     976.9    NA       0.0000   9999     1080  0     0    
2019/06/16  12:54:01  BASE  3.02232  293  3.83964  296  -0.5  100   -0.5  0     0     977.0    NA       0.0000   9999     1080  0     0    
2019/06/16  12:55:01  BASE  2.86356  294  3.83964  296  -0.5  100   -0.5  0     0     977.0    NA       0.0000   9999     1080  0     0    
2019/06/16  12:56:01  BASE  2.99292  296  3.83964  296  -0.5  100   -0.5  0     0     977.0    NA       0.0000   9999     1050  0     0    
2019/06/16  12:57:01  BASE  3.12228  296  3.83964  296  -0.5  100   -0.5  0     0     977.0    NA       0.0000   9999     1080  0     0    
2019/06/16  12:58:01  BASE  3.06936  295  3.83964  296  -0.5  100   -0.5  0     0     977.0    NA       0.0000   9999     1280  0     0    
2019/06/16  12:59:01  BASE  3.06348  294  3.83964  296  -0.5  100   -0.5  0     0     977.0    NA       0.0000   9999     1120  0     0    
2019/06/16  13:00:01  BASE  3.33396  293  3.96312  279  -0.5  100   -0.5  0     0     977.0    NA       0.0000   9999     1120  0     0    
2019/06/16  13:01:01  BASE  3.39276  292  3.96312  279  -0.5  100   -0.5  0     0     977.1    NA       0.0000   9999     1020  0     0    
2019/06/16  13:02:01  BASE  3.30456  291  3.96312  279  -0.5  100   -0.5  0     0     977.0    NA       0.0000   9999     1020  0     0    
2019/06/16  13:03:01  BASE  3.31632  292  3.96312  279  -0.5  100   -0.5  0     0     977.1    NA       0.0000   9999     980   0     0    
2019/06/16  13:04:01  BASE  3.19284  293  3.96312  279  -0.5  100   -0.5  0     0     977.1    NA       0.0000   9999     1020  0     0    
2019/06/16  13:05:01  BASE  3.29868  292  3.96312  279  -0.5  100   -0.5  0     0     977.0    NA       0.0000   9999     1080  0     0    
2019/06/16  13:06:01  BASE  3.47508  291  3.96312  279  -0.5  100   -0.5  0     0     977.0    NA       0.0000   9999     1020  0     0    
2019/06/16  13:07:01  BASE  3.51624  292  3.96312  279  -0.5  100   -0.5  0     0     977.0    NA       0.0000   9999     1020  0     0    
2019/06/16  13:08:01  BASE  3.3222   293  3.96312  279  -0.5  100   -0.5  0     0     977.1    NA       0.0000   9999     920   0     0    
2019/06/16  13:09:01  BASE  3.18108  292  3.96312  279  -0.5  100   -0.5  0     0     977.0    NA       0.0000   9999     920   0     0    
2019/06/16  13:10:01  BASE  3.35748  292  3.86904  290  -0.5  100   -0.5  0     0     977.0    NA       0.0000   9999     850   0     0    
2019/06/16  13:11:01  BASE  3.53976  292  3.96312  299  -0.5  100   -0.5  0     0     977.1    NA       0.0000   9999     950   0     0    
2019/06/16  13:12:01  BASE  3.5574   292  3.96312  299  -0.5  100   -0.5  0     0     977.1    NA       0.0000   9999     890   0     0    
2019/06/16  13:13:01  BASE  3.37512  291  3.96312  299  -0.5  100   -0.5  0     0     977.1    NA       0.0000   9999     980   0     0    
2019/06/16  13:14:01  BASE  3.27516  289  3.96312  299  -0.5  100   -0.5  0     0     977.1    NA       0.0000   9999     950   0     0    
2019/06/16  13:15:01  BASE  3.28104  286  3.96312  299  -0.5  100   -0.5  0     0     977.1    NA       0.0000   9999     950   0     0    
2019/06/16  13:16:01  BASE  3.2046   286  3.96312  299  -0.5  100   -0.5  0     0     977.2    NA       0.0000   9999     920   0     0    
2019/06/16  13:17:01  BASE  3.27516  287  3.96312  299  -0.5  100   -0.5  0     0     977.1    NA       0.0000   9999     920   0     0    
2019/06/16  13:18:01  BASE  3.4398   287  4.08072  287  -0.5  100   -0.5  0     0     977.1    NA       0.0000   9999     950   0     0    
2019/06/16  13:19:01  BASE  3.48684  288  4.08072  287  -0.5  100   -0.5  0     0     977.2    NA       0.0000   9999     920   0     0    
2019/06/16  13:20:01  BASE  3.37512  290  4.08072  287  -0.5  100   -0.5  0     0     977.2    NA       0.0000   9999     950   0     0    
2019/06/16  13:21:01  BASE  3.27516  290  4.08072  287  -0.5  100   -0.5  0     0     977.2    NA       0.0000   9999     850   0     0    
2019/06/16  13:22:01  BASE  3.10464  290  4.08072  287  -0.5  100   -0.5  0     0     977.3    NA       0.0000   9999     890   0     0    
2019/06/16  13:23:01  BASE  3.16932  293  4.263    303  -0.5  100   -0.5  0     0     977.1    NA       0.0000   9999     950   0     0    
2019/06/16  13:24:01  BASE  3.39276  292  4.263    303  -0.5  100   -0.5  0     0     977.2    NA       0.0000   9999     920   0     0    
2019/06/16  13:25:01  BASE  3.01644  286  4.263    303  -0.5  100   -0.5  0     0     977.2    NA       0.0000   9999     1020  0     0    
2019/06/16  13:26:01  BASE  2.81652  287  4.263    303  -0.5  100   -0.5  0     0     977.2    NA       0.0000   9999     1020  0     0    
2019/06/16  13:27:00  BASE  3.27516  289  4.263    303  -0.5  100   -0.5  0     0     977.2    NA       0.0000   9999     1020  0     0    
2019/06/16  13:28:01  BASE  3.57504  286  4.263    303  -0.5  100   -0.5  0     0     977.2    NA       0.0000   9999     890   0     0    
2019/06/16  13:29:00  BASE  3.39864  286  4.263    303  -0.5  100   -0.5  0     0     977.2    NA       0.0000   9999     330   0     0    
2019/06/16  13:30:01  BASE  3.21048  286  4.263    303  -0.5  100   -0.5  0     0     977.2    NA       0.0000   9999     260   1080  0    
2019/06/16  13:31:00  BASE  3.00468  285  4.263    303  -0.4  100   -0.4  0     0     977.2    NA       0.0000   UP       9999  300   0    
2019/06/16  13:32:00  BASE  3.19284  284  4.41588  278  -0.4  100   -0.4  0     0     977.1    NA       0.0000   UP       9999  300   0    
2019/06/16  13:33:00  BASE  3.15756  285  4.41588  278  -0.4  100   -0.4  0     0     977.2    NA       0.0000   UP       9999  1480  3510 
2019/06/16  13:34:00  BASE  3.08112  286  4.41588  278  -0.4  100   -0.4  0     0     977.1    NA       0.0000   UP       9999  1350  4170 
2019/06/16  13:35:01  BASE  3.22224  286  4.41588  278  -0.4  100   -0.4  0     0     977.2    NA       0.0000   UP       9999  1210  4200 
2019/06/16  13:36:00  BASE  3.09288  290  4.41588  278  -0.4  100   -0.4  0     0     977.1    NA       0.0000   UP       9999  1350  5120 
2019/06/16  13:37:00  BASE  2.99292  291  4.41588  278  -0.4  100   -0.4  0     0     977.2    NA       0.0000   UP       9999  4950  0    
2019/06/16  13:38:00  BASE  2.95176  289  4.41588  278  -0.5  100   -0.5  0     0     977.2    NA       0.0000   UP       9999  3580  4990 
2019/06/16  13:39:01  BASE  3.01056  289  4.41588  278  -0.5  100   -0.5  0     0     977.2    NA       0.0000   UP       9999  3580  4760 
2019/06/16  13:40:01  BASE  3.00468  289  4.41588  278  -0.5  100   -0.5  0     0     977.2    NA       0.0000   UP       9999  1350  0    
2019/06/16  13:41:00  BASE  2.88708  285  4.41588  278  -0.5  100   -0.5  0     0     977.2    NA       0.0000   9999     1020  0     0    
2019/06/16  13:42:01  BASE  2.86356  285  4.116    292  -0.5  100   -0.5  0     0     977.2    NA       0.0000   9999     1210  0     0    
2019/06/16  13:43:00  BASE  2.86356  287  4.116    292  -0.5  100   -0.5  0     0     977.2    NA       0.0000   9999     920   3380  0    
2019/06/16  13:44:00  BASE  2.68716  288  3.62796  293  -0.5  100   -0.5  0     0     977.2    NA       0.0000   9999     1050  0     0    
2019/06/16  13:45:01  BASE  2.7048   287  3.62796  293  -0.5  100   -0.5  0     0     977.1    NA       0.0000   9999     1020  0     0    
2019/06/16  13:46:00  BASE  2.79888  289  3.48096  284  -0.5  100   -0.5  0     0     977.2    NA       0.0000   9999     1380  0     0    
2019/06/16  13:47:00  BASE  2.8224   292  3.44568  284  -0.5  100   -0.5  0     0     977.2    NA       0.0000   9999     1280  0     0    
2019/06/16  13:48:01  BASE  2.9106   291  3.56916  289  -0.5  100   -0.5  0     0     977.2    NA       0.0000   9999     1510  0     0    
2019/06/16  13:49:00  BASE  2.94588  291  3.56916  289  -0.5  100   -0.5  0     0     977.2    NA       0.0000   9999     1280  0     0    
2019/06/16  13:50:01  BASE  2.89884  292  3.56916  289  -0.5  100   -0.5  0     0     977.2    NA       0.0000   9999     980   0     0    
2019/06/16  13:51:00  BASE  2.91648  292  3.56916  289  -0.5  100   -0.5  0     0     977.2    NA       0.0000   9999     1180  0     0    
2019/06/16  13:52:01  BASE  2.95764  294  3.56916  289  -0.5  100   -0.5  0     0     977.2    NA       0.0000   9999     1120  0     0    
2019/06/16  13:53:00  BASE  2.91648  297  3.56916  289  -0.5  100   -0.5  0     0     977.3    NA       0.0000   9999     1210  0     0    
2019/06/16  13:54:01  BASE  2.81064  298  3.56916  289  -0.5  100   -0.5  0     0     977.3    NA       0.0000   9999     1080  0     0    
2019/06/16  13:55:01  BASE  2.85768  297  3.56916  289  -0.5  100   -0.5  0     0     977.3    NA       0.0000   9999     950   0     0    
2019/06/16  13:56:00  BASE  2.91648  296  3.56916  289  -0.5  100   -0.5  0     0     977.3    NA       0.0000   9999     920   0     0    
2019/06/16  13:57:00  BASE  2.84592  296  3.56916  289  -0.5  100   -0.5  0     0     977.3    NA       0.0000   9999     950   0     0    
2019/06/16  13:58:00  BASE  2.86356  296  3.51036  287  -0.5  100   -0.5  0     0     977.3    NA       0.0000   9999     850   0     0    
2019/06/16  13:59:01  BASE  2.97528  293  3.51036  287  -0.5  100   -0.5  1     0     977.3    NA       0.0000   9999     890   0     0    
2019/06/16  14:00:01  BASE  2.9988   294  3.62796  290  -0.5  100   -0.5  1     0     977.3    NA       0.0000   9999     890   0     0    
2019/06/16  14:01:00  BASE  2.88708  295  3.62796  290  -0.5  100   -0.5  1     0     977.3    NA       0.0000   9999     850   0     0    
2019/06/16  14:02:00  BASE  2.83416  294  3.62796  290  -0.5  100   -0.5  1     0     977.3    NA       0.0000   9999     890   0     0    
2019/06/16  14:03:00  BASE  2.95176  295  3.62796  290  -0.5  100   -0.5  1     0     977.3    NA       0.0000   9999     890   0     0    
2019/06/16  14:04:00  BASE  3.18696  296  3.75144  294  -0.5  100   -0.5  1     0     977.3    NA       0.0000   9999     950   0     0    
2019/06/16  14:05:01  BASE  3.19872  295  3.75144  294  -0.5  100   -0.5  1     0     977.3    NA       0.0000   9999     1020  0     0    
2019/06/16  14:06:00  BASE  3.15168  293  3.75144  294  -0.5  100   -0.5  1     0     977.3    NA       0.0000   9999     1020  0     0    
2019/06/16  14:07:00  BASE  3.06348  291  3.75144  294  -0.5  100   -0.5  1     0     977.4    NA       0.0000   9999     1080  0     0    
2019/06/16  14:08:00  BASE  3.03996  294  3.75144  294  -0.5  100   -0.5  1     0     977.3    NA       0.0000   9999     1050  0     0    
2019/06/16  14:09:00  BASE  3.48096  296  4.29828  296  -0.5  100   -0.5  1     0     977.3    NA       0.0000   9999     1050  0     0    
2019/06/16  14:10:00  BASE  3.78672  297  4.29828  296  -0.5  100   -0.5  1     0     977.3    NA       0.0000   9999     1210  0     0    
2019/06/16  14:11:00  BASE  3.80436  296  4.29828  296  -0.5  100   -0.5  1     0     977.3    NA       0.0000   9999     980   0     0    
2019/06/16  14:12:00  BASE  3.66324  296  4.29828  296  -0.5  100   -0.5  1     0     977.3    NA       0.0000   9999     1050  0     0    
2019/06/16  14:13:00  BASE  3.57504  299  4.29828  296  -0.5  100   -0.5  1     0     977.3    NA       0.0000   9999     950   0     0    
2019/06/16  14:14:00  BASE  3.46332  298  4.29828  296  -0.5  100   -0.5  1     0     977.3    NA       0.0000   9999     1020  0     0    
2019/06/16  14:15:01  BASE  3.40452  298  4.29828  296  -0.5  100   -0.5  1     0     977.3    NA       0.0000   9999     980   0     0    
2019/06/16  14:16:00  BASE  3.62208  299  4.80984  296  -0.5  100   -0.5  1     0     977.3    NA       0.0000   9999     1120  2300  0    
2019/06/16  14:17:00  BASE  4.47468  299  7.92624  301  -0.5  100   -0.5  1     0     977.2    NA       0.0000   9999     1050  2400  0    
2019/06/16  14:18:00  BASE  7.40292  297  10.6193  299  -0.5  100   -0.5  1     0     977.2    NA       0.0000   9999     2760  0     0    
2019/06/16  14:19:00  BASE  9.30804  294  10.6193  299  -0.5  100   -0.5  1     0     977.2    NA       0.0000   SQ       9999  1640  2790 
2019/06/16  14:20:00  BASE  9.17868  291  10.6193  299  -0.5  100   -0.5  1     0     977.3    NA       0.0000   9999     620   0     0    
2019/06/16  14:21:00  BASE  9.47856  289  10.6193  299  -0.5  100   -0.5  1     0     977.2    NA       0.0000   8000     0     0     0    
2019/06/16  14:22:00  BASE  9.69612  290  10.6193  299  -0.5  100   -0.5  1     0     977.2    NA       0.0000   -SN      8000  1020  0    
2019/06/16  14:23:00  BASE  9.69612  290  10.978   285  -0.5  100   -0.5  1     0     977.2    NA       0.0000   -SN      9999  1080  0    
2019/06/16  14:24:00  BASE  9.5844   292  11.072   293  -0.5  100   -0.5  1     0     977.2    NA       0.0000   -SN      9999  1150  0    
2019/06/16  14:25:00  BASE  8.9964   299  11.072   293  -0.5  100   -0.5  1     0     977.2    NA       0.0000   -SN      9999  1150  0    
2019/06/16  14:26:00  BASE  8.45544  300  11.072   293  -0.5  100   -0.5  1     0     977.2    NA       0.0000   -SN      9999  950   0    
2019/06/16  14:27:00  BASE  8.72592  300  11.072   293  -0.5  100   -0.5  1     0     977.2    NA       0.0000   -SN      9999  1020  0    
2019/06/16  14:28:00  BASE  9.10224  301  11.072   293  -0.5  100   -0.5  1     0     977.2    NA       0.0000   -SN      9999  1050  0    
2019/06/16  14:29:00  BASE  9.15516  301  11.072   293  -0.5  100   -0.5  1     0     977.2    NA       0.0000   -SN      9999  950   0    
2019/06/16  14:30:00  BASE  9.48444  301  11.072   293  -0.5  100   -0.5  1     0     977.2    NA       0.0000   -SN      9999  920   0    
2019/06/16  14:31:00  BASE  9.69612  299  11.072   293  -0.5  100   -0.5  1     0     977.2    NA       0.0000   9999     920   0     0    
2019/06/16  14:32:00  BASE  9.44916  296  11.072   293  -0.5  100   -0.5  1     0     977.3    NA       0.0000   9999     850   0     0    
2019/06/16  14:33:00  BASE  9.4374   299  11.072   293  -0.5  100   -0.5  2     0     977.3    NA       0.0000   9999     950   0     0    
2019/06/16  14:34:00  BASE  9.59028  303  10.5899  299  -0.5  100   -0.5  1     0     977.3    NA       0.0000   9999     950   0     0    
2019/06/16  14:35:00  BASE  9.03168  302  10.5899  299  -0.5  100   -0.5  2     0     977.4    NA       0.0000   9999     980   0     0    
2019/06/16  14:36:00  BASE  8.54364  300  10.5899  299  -0.5  100   -0.5  2     0     977.4    NA       0.0000   9999     920   0     0    
2019/06/16  14:37:00  BASE  8.93172  297  10.5899  299  -0.5  100   -0.5  2     0     977.4    NA       0.0000   9999     890   0     0    
2019/06/16  14:38:00  BASE  8.75532  298  10.5899  299  -0.5  100   -0.5  1     0     977.4    NA       0.0000   9999     950   0     0    
2019/06/16  14:39:00  BASE  8.93172  298  10.5899  299  -0.5  100   -0.5  2     0     977.4    NA       0.0000   9999     950   0     0    
2019/06/16  14:40:00  BASE  9.13752  295  10.5899  299  -0.5  100   -0.5  2     0     977.4    NA       0.0000   9999     980   0     0    
2019/06/16  14:41:00  BASE  9.68436  293  12.101   291  -0.5  100   -0.5  1     0     977.3    NA       0.0000   9999     1020  0     0    
2019/06/16  14:42:00  BASE  10.1606  291  12.101   291  -0.5  100   -0.5  1     0     977.4    NA       0.0000   9999     920   0     0    
2019/06/16  14:43:00  BASE  9.83724  293  12.101   291  -0.5  100   -0.5  1     0     977.4    NA       0.0000   9999     980   0     0    
2019/06/16  14:44:00  BASE  10.3488  292  12.3127  290  -0.5  100   -0.5  1     0     977.4    NA       0.0000   9999     850   0     0    
2019/06/16  14:45:00  BASE  10.1136  291  12.3127  290  -0.5  100   -0.5  1     0     977.6    NA       0.0000   9000     750   0     0    
2019/06/16  14:46:00  BASE  9.36684  292  12.3127  290  -0.6  100   -0.6  2     0     977.6    NA       0.0000   8000     390   0     0    
2019/06/16  14:47:00  BASE  8.94936  295  12.3127  290  -0.6  100   -0.6  2     0     977.6    NA       0.0000   -SN      8000  390   0    
2019/06/16  14:48:00  BASE  9.2904   293  12.4303  287  -0.6  100   -0.6  2     0     977.6    NA       0.0000   -SN      6000  360   0    
2019/06/16  14:49:00  BASE  10.5076  292  12.4303  287  -0.6  100   -0.6  2     0     977.5    NA       0.0000   -SN      BR    4800  360  
2019/06/16  14:50:00  BASE  10.1489  293  12.4303  287  -0.6  100   -0.6  2     0     977.6    NA       0.0000   -SN      BR    4100  260  
2019/06/16  14:51:00  BASE  8.80824  290  12.4303  287  -0.6  100   -0.6  2     0     977.6    NA       0.0000   -SN      BR    3900  0    
2019/06/16  14:52:00  BASE  8.94348  291  12.4303  287  -0.6  100   -0.6  2     0     977.6    NA       0.0000   -SN      BR    4000  300  
2019/06/16  14:53:00  BASE  9.114    290  12.4303  287  -0.7  100   -0.7  2     0     977.6    NA       0.0000   -SN      BR    3000  0    
2019/06/16  14:54:00  BASE  9.06696  289  12.4303  287  -0.7  100   -0.7  2     0     977.6    NA       0.0000   -SN      BR    2600  0    
2019/06/16  14:55:00  BASE  8.6436   292  12.4303  287  -0.7  100   -0.7  2     0     977.7    NA       0.0000   -SN      BR    3200  0    
2019/06/16  14:56:00  BASE  8.30844  294  12.4303  287  -0.7  100   -0.7  2     0     977.6    NA       0.0000   -SN      BR    4200  0    
2019/06/16  14:57:00  BASE  8.90232  294  12.4303  287  -0.7  100   -0.7  2     0     977.6    NA       0.0000   -SN      BR    4700  260  
2019/06/16  14:58:00  BASE  9.51972  293  11.9482  290  -0.7  100   -0.7  2     0     977.6    NA       0.0000   -SN      BR    5000  0    
2019/06/16  14:59:00  BASE  9.50208  293  11.466   285  -0.7  100   -0.7  2     0     977.6    NA       0.0000   -SN      BR    6000  330  
2019/06/16  15:00:00  BASE  9.10224  290  11.466   285  -0.7  100   -0.7  2     0     977.7    NA       0.0000   -SN      BR    8000  360  
2019/06/16  15:01:00  BASE  9.07284  289  11.466   285  -0.8  100   -0.8  3     0     977.7    NA       0.0000   -SN      BR    9000  750  
2019/06/16  15:02:00  BASE  8.9082   291  11.466   285  -0.8  100   -0.8  3     0     977.7    NA       0.0000   -SN      BR    9000  1250 
2019/06/16  15:03:00  BASE  9.16692  292  11.466   285  -0.8  100   -0.8  2     0     977.7    NA       0.0000   -SN      BR    9000  1610 
2019/06/16  15:04:00  BASE  9.48444  290  11.5248  289  -0.8  100   -0.8  3     0     977.7    NA       0.0000   -SN      BR    9999  1250 
2019/06/16  15:05:00  BASE  9.35508  288  11.5248  289  -0.8  100   -0.8  3     0     977.7    NA       0.0000   -SN      BR    9999  1280 
2019/06/16  15:06:00  BASE  9.47856  290  11.5248  289  -0.8  100   -0.8  3     0     977.7    NA       0.0000   -SN      BR    9999  1280 
2019/06/16  15:07:00  BASE  10.5193  288  14.2178  279  -0.8  100   -0.8  3     0     977.6    NA       0.0000   -SN      BR    9999  1250 
2019/06/16  15:08:00  BASE  10.5546  285  14.2178  279  -0.8  100   -0.8  2     0     977.7    NA       0.0000   -SN      BR    9999  0    
2019/06/16  15:09:00  BASE  10.0195  283  14.2178  273  -0.8  100   -0.8  2     0     977.7    NA       0.0000   -SN      9999  1380  0    
2019/06/16  15:10:00  BASE  10.5958  283  14.2178  273  -0.8  100   -0.8  2     0     977.7    NA       0.0000   9999     820   3450  0    
2019/06/16  15:11:00  BASE  11.0426  282  14.2178  273  -0.8  100   -0.8  3     0     977.7    NA       0.0000   9999     1310  0     0    
2019/06/16  15:12:00  BASE  11.4425  283  14.2178  273  -0.8  100   -0.8  3     0     977.7    NA       0.0000   9999     1440  0     0    
2019/06/16  15:13:00  BASE  11.8658  282  14.2178  273  -0.8  100   -0.8  3     0     977.7    NA       0.0000   9999     4170  0     0    
2019/06/16  15:14:00  BASE  11.9776  280  14.2178  273  -0.8  100   -0.8  3     0     977.7    NA       0.0000   9999     2720  0     0    
2019/06/16  15:15:00  BASE  11.9717  282  14.2178  273  -0.8  100   -0.8  4     0     977.7    NA       0.0000   9999     2790  4360  0    
2019/06/16  15:16:00  BASE  11.86    281  14.2178  273  -0.8  100   -0.8  4     0     977.7    NA       0.0000   9999     2690  0     0    
2019/06/16  15:17:00  BASE  11.2426  279  14.2178  273  -0.8  100   -0.8  4     0     977.8    NA       0.0000   9999     2720  4630  0    
2019/06/16  15:18:00  BASE  10.1489  279  14.2178  273  -0.8  100   -0.8  4     0     977.8    NA       0.0000   9999     2690  0     0    
2019/06/16  15:19:00  BASE  9.30216  280  13.8533  282  -0.8  100   -0.8  4     0     977.8    NA       0.0000   9999     4560  0     0    
2019/06/16  15:20:00  BASE  9.25512  283  13.8533  282  -0.8  100   -0.8  4     0     977.9    NA       0.0000   9999     3080  4230  0    
2019/06/16  15:21:00  BASE  9.75492  284  13.8533  282  -0.8  100   -0.8  4     0     977.8    NA       0.0000   9999     2690  4170  0    
2019/06/16  15:22:00  BASE  10.3135  283  13.8533  282  -0.8  100   -0.8  4     0     977.9    NA       0.0000   9999     2690  4300  0    
2019/06/16  15:23:00  BASE  10.243   281  13.8533  282  -0.8  100   -0.8  4     0     977.9    NA       0.0000   9999     2820  4300  0    
2019/06/16  15:24:00  BASE  9.51384  280  13.8533  282  -0.8  100   -0.8  4     0     977.9    NA       0.0000   9999     4300  0     0    
2019/06/16  15:25:00  BASE  9.61968  279  13.036   269  -0.8  100   -0.8  4     0     977.9    NA       0.0000   9999     4270  0     0    
2019/06/16  15:26:00  BASE  10.19    281  12.5244  272  -0.8  100   -0.8  4     0     978.0    NA       0.0000   9999     4300  0     0    
2019/06/16  15:27:00  BASE  10.8898  285  12.9772  279  -0.8  100   -0.8  4     0     977.9    NA       0.0000   9999     4360  0     0    
2019/06/16  15:28:00  BASE  10.831   286  12.9772  279  -0.8  100   -0.8  5     0     977.9    NA       0.0000   9999     4300  0     0    
2019/06/16  15:29:00  BASE  9.43152  288  12.9772  279  -0.8  100   -0.8  5     0     978.1    NA       0.0000   9999     4330  0     0    
2019/06/16  15:30:00  BASE  8.77296  287  12.9772  279  -0.8  100   -0.8  5     0     978.1    NA       0.0000   9999     4360  0     0    
2019/06/16  15:31:00  BASE  9.408    285  12.9772  279  -0.8  100   -0.8  5     0     978.1    NA       0.0000   9999     4360  0     0    
2019/06/16  15:32:00  BASE  10.7369  285  13.0654  280  -0.8  100   -0.8  5     0     978.0    NA       0.0000   9999     4100  0     0    
2019/06/16  15:33:00  BASE  9.94308  284  13.0654  280  -0.8  100   -0.8  5     0     978.1    NA       0.0000   9999     4230  0     0    
2019/06/16  15:34:00  BASE  8.74944  284  13.0654  280  -0.8  100   -0.8  5     0     978.1    NA       0.0000   9999     4200  0     0    
2019/06/16  15:35:00  BASE  9.702    286  13.0654  280  -0.8  100   -0.8  5     0     978.1    NA       0.0000   9999     4200  0     0    
2019/06/16  15:36:00  BASE  10.0078  287  13.0654  280  -0.8  100   -0.8  5     0     978.2    NA       0.0000   9999     3580  0     0    
2019/06/16  15:37:00  BASE  9.54324  288  13.0654  280  -0.8  100   -0.8  5     0     978.2    NA       0.0000   9999     3970  0     0    
2019/06/16  15:38:00  BASE  9.63732  288  13.0654  280  -0.8  100   -0.8  5     0     978.2    NA       0.0000   9999     3870  0     0    
2019/06/16  15:39:00  BASE  10.0489  288  13.0654  280  -0.8  100   -0.8  5     0     978.2    NA       0.0000   9999     3670  0     0    
2019/06/16  15:40:00  BASE  10.3429  290  13.0654  280  -0.8  100   -0.8  5     0     978.2    NA       0.0000   9999     3810  0     0    
2019/06/16  15:41:00  BASE  10.3606  292  13.0654  280  -0.8  100   -0.8  4     0     978.3    NA       0.0000   9999     3770  0     0    
2019/06/16  15:42:00  BASE  10.4429  292  12.2186  290  -0.7  100   -0.7  5     0     978.2    NA       0.0000   9999     3840  0     0    
2019/06/16  15:43:00  BASE  10.2077  293  12.2186  290  -0.7  100   -0.7  5     0     978.3    NA       0.0000   9999     3970  0     0    
2019/06/16  15:44:00  BASE  9.68436  295  12.2186  290  -0.7  100   -0.7  5     0     978.4    NA       0.0000   9999     4000  0     0    
2019/06/16  15:45:00  BASE  9.31392  296  12.1892  280  -0.7  100   -0.7  5     0     978.4    NA       0.0000   9999     3970  0     0    
2019/06/16  15:46:00  BASE  9.0258   295  12.1892  280  -0.7  100   -0.7  5     0     978.4    NA       0.0000   9999     3970  0     0    
2019/06/16  15:47:00  BASE  9.0846   296  12.1892  280  -0.7  100   -0.7  5     0     978.4    NA       0.0000   9999     4000  0     0    
2019/06/16  15:48:00  BASE  9.45504  298  12.007   292  -0.7  100   -0.7  5     0     978.4    NA       0.0000   9999     3970  0     0    
2019/06/16  15:49:00  BASE  10.043   299  12.007   292  -0.7  100   -0.7  5     0     978.4    NA       0.0000   9999     4040  0     0    
2019/06/16  15:50:00  BASE  9.93132  298  12.007   292  -0.7  100   -0.7  5     0     978.4    NA       0.0000   9999     2560  0     0    
2019/06/16  15:51:00  BASE  9.12576  297  12.007   292  -0.7  100   -0.7  5     0     978.5    NA       0.0000   9999     2820  4100  0    
2019/06/16  15:52:00  BASE  8.379    296  12.007   292  -0.7  100   -0.7  5     0     978.6    NA       0.0000   9999     2850  3770  0    
2019/06/16  15:53:00  BASE  8.1144   296  12.007   292  -0.7  100   -0.7  5     0     978.6    NA       0.0000   9999     2760  0     0    
2019/06/16  15:54:00  BASE  8.19084  296  11.1014  297  -0.7  100   -0.7  5     0     978.6    NA       0.0000   9999     2690  4230  0    
2019/06/16  15:55:00  BASE  8.2026   294  11.1014  297  -0.7  100   -0.7  5     0     978.6    NA       0.0000   9999     2300  2790  0    
2019/06/16  15:56:00  BASE  8.71416  293  11.1014  297  -0.7  100   -0.7  5     0     978.6    NA       0.0000   9999     2690  0     0    
2019/06/16  15:57:00  BASE  9.01992  296  11.1014  297  -0.7  100   -0.7  5     0     978.7    NA       0.0000   9999     4100  0     0    
2019/06/16  15:58:00  BASE  9.25512  299  11.1014  297  -0.7  100   -0.7  5     0     978.7    NA       0.0000   9999     2690  4270  0    
2019/06/16  15:59:00  BASE  9.18456  298  10.8604  299  -0.7  100   -0.7  6     0     978.7    NA       0.0000   9999     2560  0     0    
2019/06/16  16:00:00  BASE  8.85528  296  10.6781  289  -0.6  100   -0.6  6     0     978.8    NA       0.0000   9999     2560  4100  0    
2019/06/16  16:01:00  BASE  9.53148  295  11.0426  290  -0.6  100   -0.6  6     0     978.7    NA       0.0000   9999     2560  4070  0    
2019/06/16  16:02:00  BASE  9.19632  297  11.0426  290  -0.6  100   -0.6  7     0     978.8    NA       0.0000   9999     4300  0     0    
2019/06/16  16:03:00  BASE  8.41428  298  11.0426  290  -0.6  100   -0.6  7     0     978.8    NA       0.0000   9999     4130  0     0    
2019/06/16  16:04:00  BASE  8.54364  296  11.0426  290  -0.6  100   -0.6  8     0     978.7    NA       0.0000   9999     4400  0     0    
2019/06/16  16:05:00  BASE  8.6436   296  11.0426  290  -0.6  100   -0.6  8     0     978.8    NA       0.0000   9999     4130  0     0    
2019/06/16  16:06:00  BASE  8.43192  297  11.0426  290  -0.6  100   -0.6  8     0     978.8    NA       0.0000   9999     3640  4560  0    
2019/06/16  16:07:00  BASE  8.57892  298  11.0426  290  -0.6  100   -0.6  8     0     978.7    NA       0.0000   9999     4130  0     0    
2019/06/16  16:08:00  BASE  9.1728   297  11.0426  290  -0.6  100   -0.6  8     0     978.8    NA       0.0000   9999     4000  0     0    
2019/06/16  16:09:00  BASE  9.01404  296  11.0426  290  -0.6  100   -0.6  8     0     978.8    NA       0.0000   9999     4300  0     0    
2019/06/16  16:10:00  BASE  8.57304  296  11.0426  290  -0.6  100   -0.6  7     0     978.9    NA       0.0000   9999     4400  0     0    
2019/06/16  16:11:00  BASE  8.47308  296  10.3782  295  -0.6  100   -0.6  7     0     978.9    NA       0.0000   9999     4630  0     0    
2019/06/16  16:12:00  BASE  9.06696  295  10.8898  291  -0.6  100   -0.6  7     0     978.8    NA       0.0000   9999     4170  0     0    
2019/06/16  16:13:00  BASE  9.13752  296  10.8898  291  -0.6  100   -0.6  6     0     978.9    NA       0.0000   9999     4270  0     0    
2019/06/16  16:14:00  BASE  8.49072  298  10.8898  291  -0.6  100   -0.6  6     0     978.9    NA       0.0000   9999     4170  0     0    
2019/06/16  16:15:00  BASE  8.4084   299  10.8898  291  -0.6  100   -0.6  7     0     978.9    NA       0.0000   9999     4200  0     0    
2019/06/16  16:16:00  BASE  8.24964  297  10.8898  291  -0.6  100   -0.6  7     0     979.0    NA       0.0000   9999     4070  0     0    
2019/06/16  16:17:00  BASE  8.04972  298  10.8898  291  -0.6  100   -0.6  7     0     979.0    NA       0.0000   9999     4040  0     0    
2019/06/16  16:18:00  BASE  8.18496  296  10.8898  291  -0.6  100   -0.6  7     0     979.0    NA       0.0000   9999     4200  0     0    
2019/06/16  16:19:00  BASE  7.65576  294  10.8898  291  -0.6  100   -0.6  8     0     979.1    NA       0.0000   9999     4230  0     0    
2019/06/16  16:20:01  BASE  7.36176  298  10.8898  291  -0.6  100   -0.6  8     0     979.0    NA       0.0000   9999     4330  0     0    
2019/06/16  16:21:01  BASE  7.66164  302  10.8898  291  -0.6  100   -0.6  8     0     979.0    NA       0.0000   9999     4270  0     0    
2019/06/16  16:22:00  BASE  7.99092  301  10.2547  295  -0.6  100   -0.6  8     0     979.0    NA       0.0000   9999     4230  0     0    
2019/06/16  16:23:00  BASE  8.0262   300  10.1018  291  -0.6  100   -0.6  7     0     979.1    NA       0.0000   9999     4040  0     0    
2019/06/16  16:24:00  BASE  7.39704  299  10.1018  291  -0.6  100   -0.6  7     0     979.1    NA       0.0000   9999     3900  0     0    
2019/06/16  16:25:00  BASE  7.5558   296  10.1018  291  -0.6  100   -0.6  8     0     979.1    NA       0.0000   9999     3810  0     0    
2019/06/16  16:26:00  BASE  8.26728  295  11.1602  291  -0.6  100   -0.6  8     0     979.1    NA       0.0000   9999     3970  0     0    
2019/06/16  16:27:01  BASE  8.45544  296  11.1602  291  -0.6  100   -0.6  9     0     979.1    NA       0.0000   9999     4230  0     0    
2019/06/16  16:28:00  BASE  8.33784  297  11.1602  291  -0.6  100   -0.6  9     0     979.1    NA       0.0000   9999     4270  0     0    
2019/06/16  16:29:00  BASE  8.5848   297  11.1602  291  -0.6  100   -0.6  9     0     979.2    NA       0.0000   9999     4300  0     0    
2019/06/16  16:30:00  BASE  8.80236  297  11.1602  291  -0.6  100   -0.6  9     0     979.2    NA       0.0000   9999     4170  0     0    
2019/06/16  16:31:00  BASE  9.07284  297  11.1602  291  -0.6  100   -0.6  9     0     979.2    NA       0.0000   9999     4040  0     0    
2019/06/16  16:32:00  BASE  8.75532  296  11.1602  291  -0.6  100   -0.6  9     0     979.2    NA       0.0000   9999     4170  0     0    
2019/06/16  16:33:00  BASE  8.57892  300  11.1602  291  -0.6  100   -0.6  9     0     979.2    NA       0.0000   9999     4300  0     0    
2019/06/16  16:34:01  BASE  8.88468  301  11.1602  291  -0.6  100   -0.6  9     0     979.2    NA       0.0000   9999     4300  0     0    
2019/06/16  16:35:00  BASE  8.63184  299  11.1602  291  -0.6  100   -0.6  9     0     979.3    NA       0.0000   9999     4460  0     0    
2019/06/16  16:36:00  BASE  8.49072  299  10.3782  286  -0.6  100   -0.6  9     0     979.2    NA       0.0000   9999     4530  0     0    
2019/06/16  16:37:00  BASE  8.4966   298  10.2547  293  -0.6  100   -0.6  9     0     979.3    NA       0.0000   9999     4490  0     0    
2019/06/16  16:38:00  BASE  8.3202   298  10.2547  293  -0.6  100   -0.6  9     0     979.3    NA       0.0000   9999     4590  0     0    
2019/06/16  16:39:00  BASE  8.32608  297  10.2547  293  -0.6  100   -0.6  9     0     979.3    NA       0.0000   9999     4660  0     0    
2019/06/16  16:40:01  BASE  8.59656  297  10.3135  296  -0.6  100   -0.6  9     0     979.3    NA       0.0000   9999     4690  0     0    
2019/06/16  16:41:00  BASE  8.65536  301  10.3135  296  -0.6  100   -0.6  10    0     979.4    NA       0.0000   9999     4720  0     0    
2019/06/16  16:42:00  BASE  8.54952  303  10.3135  296  -0.6  100   -0.6  10    0     979.4    NA       0.0000   9999     4790  0     0    
2019/06/16  16:43:00  BASE  8.47896  303  10.3135  296  -0.6  100   -0.6  10    0     979.3    NA       0.0000   9999     4820  0     0    
2019/06/16  16:44:00  BASE  8.33784  301  10.3135  296  -0.6  100   -0.6  10    0     979.4    NA       0.0000   9999     4890  0     0    
2019/06/16  16:45:01  BASE  8.3496   301  10.3135  296  -0.6  100   -0.6  10    0     979.4    NA       0.0000   9999     4890  0     0    
2019/06/16  16:46:00  BASE  8.60832  300  10.437   303  -0.6  100   -0.6  9     0     979.4    NA       0.0000   9999     4950  0     0    
2019/06/16  16:47:00  BASE  8.83176  299  10.437   303  -0.6  100   -0.6  9     0     979.4    NA       0.0000   9999     4950  0     0    
2019/06/16  16:48:01  BASE  8.68476  299  10.437   303  -0.6  100   -0.6  9     0     979.4    NA       0.0000   9999     4990  0     0    
2019/06/16  16:49:00  BASE  8.31432  301  10.437   303  -0.6  100   -0.6  8     0     979.5    NA       0.0000   9999     4990  0     0    
2019/06/16  16:50:00  BASE  8.44956  303  10.437   303  -0.6  100   -0.6  8     0     979.4    NA       0.0000   9999     5050  0     0    
2019/06/16  16:51:00  BASE  8.81412  299  10.9486  281  -0.6  100   -0.6  7     0     979.5    NA       0.0000   9999     5050  0     0    
2019/06/16  16:52:00  BASE  8.64948  298  10.9486  281  -0.6  100   -0.6  8     0     979.5    NA       0.0000   9999     5120  0     0    
2019/06/16  16:53:00  BASE  8.19672  300  10.9486  281  -0.6  100   -0.6  8     0     979.6    NA       0.0000   9999     5120  0     0    
2019/06/16  16:54:00  BASE  8.74944  300  10.9486  281  -0.6  100   -0.6  8     0     979.5    NA       0.0000   9999     5120  0     0    
2019/06/16  16:55:01  BASE  9.30804  297  10.9486  281  -0.6  100   -0.6  9     0     979.5    NA       0.0000   9999     5150  0     0    
2019/06/16  16:56:00  BASE  8.77296  297  10.9486  281  -0.6  100   -0.6  9     0     979.6    NA       0.0000   9999     5150  0     0    
2019/06/16  16:57:00  BASE  8.97288  298  10.9486  281  -0.6  100   -0.6  9     0     979.6    NA       0.0000   9999     5150  0     0    
2019/06/16  16:58:00  BASE  9.11988  297  10.9486  281  -0.6  100   -0.6  9     0     979.6    NA       0.0000   9999     5180  0     0    
2019/06/16  16:59:00  BASE  8.7318   296  10.9486  281  -0.6  100   -0.6  9     0     979.6    NA       0.0000   9999     5180  0     0    
2019/06/16  17:00:00  BASE  8.52012  297  10.9486  281  -0.6  100   -0.6  9     0     979.7    NA       0.0000   9999     5180  0     0    
2019/06/16  17:01:00  BASE  8.7024   299  10.7369  293  -0.6  100   -0.6  9     0     979.6    NA       0.0000   9999     5180  0     0    
2019/06/16  17:02:00  BASE  8.59068  299  10.7369  293  -0.6  100   -0.6  10    0     979.7    NA       0.0000   9999     5180  0     0    
2019/06/16  17:03:00  BASE  7.8498   301  10.7369  293  -0.6  100   -0.6  10    0     979.7    NA       0.0000   9999     5220  0     0    
2019/06/16  17:04:00  BASE  7.89096  302  10.2547  310  -0.6  100   -0.6  10    0     979.6    NA       0.0000   9999     5250  0     0    
2019/06/16  17:05:01  BASE  7.5558   301  10.2547  310  -0.6  100   -0.6  9     0     979.7    NA       0.0000   9999     5280  0     0    
2019/06/16  17:06:00  BASE  7.37352  302  10.2547  310  -0.6  100   -0.6  9     0     979.6    NA       0.0000   9999     5280  0     0    
2019/06/16  17:07:00  BASE  7.5852   303  10.043   290  -0.6  100   -0.6  10    0     979.7    NA       0.0000   9999     5250  0     0    
2019/06/16  17:08:00  BASE  7.791    304  10.043   290  -0.6  100   -0.6  10    0     979.6    NA       0.0000   9999     5220  0     0    
2019/06/16  17:09:00  BASE  8.1144   307  10.043   290  -0.6  100   -0.6  10    0     979.6    NA       0.0000   9999     5280  0     0    
2019/06/16  17:10:00  BASE  8.33196  307  10.043   290  -0.6  100   -0.6  11    0     979.6    NA       0.0000   9999     5350  0     0    
2019/06/16  17:11:00  BASE  8.26728  306  9.5256   306  -0.6  100   -0.6  12    0     979.7    NA       0.0000   9999     5320  0     0    
2019/06/16  17:12:00  BASE  7.82628  306  9.5256   306  -0.6  100   -0.6  11    0     979.7    NA       0.0000   9999     5350  0     0    
2019/06/16  17:13:00  BASE  7.97916  306  9.5256   306  -0.6  100   -0.6  11    0     979.8    NA       0.0000   9999     5280  0     0    
2019/06/16  17:14:00  BASE  8.22024  304  9.5256   306  -0.6  100   -0.6  11    0     979.8    NA       0.0000   9999     5320  0     0    
2019/06/16  17:15:00  BASE  8.13792  301  9.5256   306  -0.6  100   -0.6  11    0     979.8    NA       0.0000   9999     0     0     0    
2019/06/16  17:16:00  BASE  7.76748  299  9.5256   306  -0.7  100   -0.7  11    0     979.8    NA       0.0000   9999     5280  0     0    
2019/06/16  17:17:00  BASE  7.7616   301  9.5256   306  -0.7  100   -0.7  10    0     979.8    NA       0.0000   9999     5280  0     0    
2019/06/16  17:18:00  BASE  8.63184  304  9.89016  303  -0.7  100   -0.7  10    0     979.8    NA       0.0000   9999     5320  0     0    
2019/06/16  17:19:00  BASE  8.84352  305  9.89016  303  -0.7  100   -0.7  10    0     979.8    NA       0.0000   9999     5320  0     0    
2019/06/16  17:20:00  BASE  8.4672   304  9.89016  303  -0.7  100   -0.7  10    0     979.8    NA       0.0000   9999     5320  0     0    
2019/06/16  17:21:00  BASE  8.8494   302  10.1312  301  -0.7  100   -0.7  10    0     979.8    NA       0.0000   9999     5320  0     0    
2019/06/16  17:22:00  BASE  9.0846   300  10.1312  301  -0.7  100   -0.7  10    0     979.8    NA       0.0000   9999     5350  0     0    
2019/06/16  17:23:00  BASE  8.94936  300  10.437   291  -0.7  100   -0.7  9     0     979.8    NA       0.0000   9999     5350  0     0    
2019/06/16  17:24:00  BASE  8.70828  299  10.437   291  -0.7  100   -0.7  9     0     979.8    NA       0.0000   9999     5320  0     0    
2019/06/16  17:25:00  BASE  8.7612   301  10.437   291  -0.7  100   -0.7  9     0     979.8    NA       0.0000   9999     5350  0     0    
2019/06/16  17:26:00  BASE  8.84352  302  10.437   291  -0.7  100   -0.7  10    0     979.8    NA       0.0000   9999     5350  0     0    
2019/06/16  17:27:00  BASE  8.45544  297  10.437   291  -0.7  100   -0.8  10    0     979.8    NA       0.0000   9999     5350  0     0    
2019/06/16  17:28:00  BASE  8.40252  297  10.437   291  -0.7  99    -0.8  11    0     979.8    NA       0.0000   9999     5320  0     0    
2019/06/16  17:29:00  BASE  8.23788  300  10.437   291  -0.7  99    -0.8  12    0     979.8    NA       0.0000   9999     5320  0     0    
2019/06/16  17:30:00  BASE  8.33196  298  10.437   291  -0.7  99    -0.8  14    0     979.8    NA       0.0000   9999     5280  0     0    
2019/06/16  17:31:00  BASE  8.39076  298  10.437   291  -0.7  99    -0.9  15    0     979.8    NA       0.0000   9999     5510  0     0    
2019/06/16  17:32:00  BASE  7.938    301  10.437   291  -0.7  98    -0.9  15    0     979.9    NA       0.0000   9999     5410  0     0    
2019/06/16  17:33:00  BASE  8.17908  299  9.95484  306  -0.7  98    -0.9  16    0     979.9    NA       0.0000   9999     5380  0     0    
2019/06/16  17:34:00  BASE  8.47308  298  9.95484  306  -0.7  98    -0.9  17    0     979.9    NA       0.0000   9999     5540  0     0    
2019/06/16  17:35:00  BASE  8.36724  298  10.7663  289  -0.7  98    -0.9  17    0     979.9    NA       0.0000   9999     5870  0     0    
2019/06/16  17:36:00  BASE  8.60832  296  10.7663  289  -0.7  99    -0.9  18    0     979.9    NA       0.0000   9999     5870  0     0    
2019/06/16  17:37:00  BASE  8.7906   296  10.7663  289  -0.7  99    -0.9  18    0     979.9    NA       0.0000   9999     5840  0     0    
2019/06/16  17:38:00  BASE  8.09088  298  10.7663  289  -0.7  99    -0.8  18    0     979.9    NA       0.0000   9999     5740  0     0    
2019/06/16  17:39:00  BASE  7.75572  298  10.7663  289  -0.7  99    -0.8  18    0     979.9    NA       0.0000   9999     5680  0     0    
2019/06/16  17:40:00  BASE  8.4378   297  10.7663  289  -0.7  99    -0.8  17    0     979.9    NA       0.0000   9999     5640  0     0    
2019/06/16  17:41:00  BASE  8.54364  298  10.7663  289  -0.7  99    -0.8  16    0     979.9    NA       0.0000   9999     5640  0     0    
2019/06/16  17:42:00  BASE  8.2026   298  10.7663  289  -0.7  99    -0.8  15    0     979.9    NA       0.0000   9999     5610  0     0    
2019/06/16  17:43:00  BASE  8.085    296  10.7663  289  -0.7  99    -0.8  14    0     979.9    NA       0.0000   9999     5540  0     0    
2019/06/16  17:44:00  BASE  8.46132  298  10.7663  289  -0.7  99    -0.8  14    0     979.9    NA       0.0000   9999     5480  0     0    
2019/06/16  17:45:00  BASE  8.91408  299  10.437   294  -0.7  99    -0.8  13    0     979.9    NA       0.0000   9999     5410  0     0    
2019/06/16  17:46:00  BASE  8.82588  299  9.80196  301  -0.7  99    -0.8  13    0     979.9    NA       0.0000   9999     5350  0     0    
2019/06/16  17:47:00  BASE  8.93172  300  10.1018  304  -0.7  99    -0.8  13    0     979.9    NA       0.0000   9999     5280  0     0    
2019/06/16  17:48:00  BASE  9.21984  302  10.1018  300  -0.7  99    -0.8  13    0     979.9    NA       0.0000   9999     5150  0     0    
2019/06/16  17:49:00  BASE  9.6432   301  11.5248  301  -0.7  99    -0.8  13    0     979.9    NA       0.0000   9999     4990  0     0    
2019/06/16  17:50:00  BASE  9.72552  297  11.5248  301  -0.7  99    -0.8  13    0     979.9    NA       0.0000   9999     4760  0     0    
2019/06/16  17:51:00  BASE  9.20808  298  11.5248  301  -0.7  99    -0.8  12    0     980.0    NA       0.0000   9999     4490  0     0    
2019/06/16  17:52:00  BASE  9.43152  297  11.5248  301  -0.7  99    -0.8  12    0     979.9    NA       0.0000   9999     4530  0     0    
2019/06/16  17:53:00  BASE  9.4668   297  11.5248  301  -0.7  99    -0.8  11    0     980.0    NA       0.0000   9999     2130  4130  0    
2019/06/16  17:54:00  BASE  8.87292  299  11.5248  301  -0.7  99    -0.8  10    0     980.0    NA       0.0000   9999     2070  4200  0    
2019/06/16  17:55:00  BASE  8.66124  298  11.5248  301  -0.7  99    -0.8  10    0     980.0    NA       0.0000   9999     2530  0     0    
2019/06/16  17:56:00  BASE  8.84352  297  11.5248  301  -0.7  99    -0.8  11    0     980.0    NA       0.0000   9999     2760  0     0    
2019/06/16  17:57:00  BASE  9.04344  299  11.5248  301  -0.7  100   -0.8  11    0     980.0    NA       0.0000   9999     2360  0     0    
2019/06/16  17:58:00  BASE  8.89056  299  11.5248  301  -0.7  100   -0.7  10    0     980.0    NA       0.0000   9999     2950  3610  0    
2019/06/16  17:59:00  BASE  8.57892  298  10.7369  294  -0.7  100   -0.7  10    0     980.0    NA       0.0000   9999     2200  3250  0    
2019/06/16  18:00:00  BASE  9.24924  296  11.5248  293  -0.7  100   -0.7  11    0     979.9    NA       0.0000   9999     2330  3380  0    
2019/06/16  18:01:00  BASE  10.437   296  11.8894  305  -0.7  100   -0.7  12    0     979.9    NA       0.0000   9999     3350  0     0    
2019/06/16  18:02:00  BASE  10.7369  297  11.9188  287  -0.7  100   -0.7  12    0     979.9    NA       0.0000   9999     3150  0     0    
2019/06/16  18:03:00  BASE  10.7545  295  12.642   291  -0.7  100   -0.7  12    0     979.9    NA       0.0000   9999     2430  3280  0    
2019/06/16  18:04:00  BASE  10.6604  293  12.642   291  -0.7  100   -0.7  12    0     980.0    NA       0.0000   9999     3380  0     0    
2019/06/16  18:05:00  BASE  10.3253  292  12.642   291  -0.8  100   -0.8  11    0     980.0    NA       0.0000   9999     3510  0     0    
2019/06/16  18:06:00  BASE  9.77256  293  12.642   291  -0.8  100   -0.8  10    0     980.1    NA       0.0000   9999     2070  3610  0    
2019/06/16  18:07:00  BASE  10.1195  297  12.642   291  -0.8  100   -0.8  9     0     979.9    NA       0.0000   9999     3710  0     0    
2019/06/16  18:08:00  BASE  10.7898  295  12.642   291  -0.8  100   -0.8  8     0     979.9    NA       0.0000   9999     4040  0     0    
2019/06/16  18:09:00  BASE  10.631   292  12.642   291  -0.8  100   -0.8  8     0     980.0    NA       0.0000   9999     2100  4300  0    
2019/06/16  18:10:00  BASE  10.1136  293  12.642   291  -0.8  100   -0.8  7     0     980.0    NA       0.0000   9999     1940  4660  0    
2019/06/16  18:11:00  BASE  10.3547  292  12.642   291  -0.8  100   -0.8  7     0     980.0    NA       0.0000   9999     1710  4760  0    
2019/06/16  18:12:00  BASE  10.6134  293  12.642   291  -0.8  100   -0.8  6     0     980.0    NA       0.0000   9999     5150  0     0    
2019/06/16  18:13:00  BASE  9.72552  296  12.4303  287  -0.8  100   -0.8  6     0     980.1    NA       0.0000   9999     1900  5350  0    
2019/06/16  18:14:00  BASE  9.76668  297  12.4303  287  -0.8  100   -0.8  6     0     980.1    NA       0.0000   9999     2000  6070  0    
2019/06/16  18:15:00  BASE  10.4958  296  12.4303  287  -0.8  100   -0.8  6     0     980.1    NA       0.0000   9999     2070  0     0    
2019/06/16  18:16:00  BASE  10.1018  295  12.4303  287  -0.8  100   -0.8  6     0     980.2    NA       0.0000   9999     1710  4660  0    
2019/06/16  18:17:00  BASE  9.41388  296  12.4303  287  -0.8  100   -0.8  6     0     980.1    NA       0.0000   9999     1710  2760  0    
2019/06/16  18:18:00  BASE  9.23748  298  12.4303  287  -0.8  100   -0.8  6     0     980.2    NA       0.0000   9999     1840  2460  0    
2019/06/16  18:19:00  BASE  9.97836  297  11.9188  302  -0.8  100   -0.8  6     0     980.1    NA       0.0000   9999     2030  0     0    
2019/06/16  18:20:00  BASE  10.7722  294  12.0364  294  -0.9  100   -0.9  7     0     980.1    NA       0.0000   9999     1840  5250  0    
2019/06/16  18:21:00  BASE  10.19    297  12.0364  294  -0.9  100   -0.9  7     0     980.2    NA       0.0000   9999     2000  0     0    
2019/06/16  18:22:00  BASE  9.7608   299  12.0364  294  -0.9  100   -0.9  7     0     980.2    NA       0.0000   9999     2760  6200  0    
2019/06/16  18:23:00  BASE  9.44328  301  12.0364  294  -0.9  100   -0.9  6     0     980.2    NA       0.0000   9999     2330  0     0    
2019/06/16  18:24:00  BASE  9.9078   303  12.3127  303  -0.9  100   -0.9  5     0     980.1    NA       0.0000   9999     1770  0     0    
2019/06/16  18:25:00  BASE  10.4076  302  12.3127  303  -0.9  100   -0.9  5     0     980.1    NA       0.0000   9999     1800  0     0    
2019/06/16  18:26:00  BASE  10.29    302  12.3127  303  -0.9  100   -0.9  4     0     980.1    NA       0.0000   9999     1610  0     0    
2019/06/16  18:27:00  BASE  9.82548  303  12.3127  303  -0.9  100   -0.9  4     0     980.2    NA       0.0000   9999     1640  2260  0    
2019/06/16  18:28:00  BASE  9.4374   303  12.3127  303  -0.9  100   -0.9  3     0     980.2    NA       0.0000   9999     1570  0     0    
2019/06/16  18:29:00  BASE  10.4664  302  12.3127  303  -0.9  100   -0.9  3     0     980.1    NA       0.0000   9999     2130  6230  0    
2019/06/16  18:30:00  BASE  10.6369  302  12.3127  303  -0.9  100   -0.9  3     0     980.2    NA       0.0000   9999     1940  0     0    
2019/06/16  18:31:00  BASE  9.97836  303  12.3127  303  -1.0  100   -1.0  2     0     980.2    NA       0.0000   9999     2070  6000  0    
2019/06/16  18:32:00  BASE  10.096   304  12.3127  303  -1.0  100   -1.0  2     0     980.2    NA       0.0000   9999     6000  0     0    
2019/06/16  18:33:00  BASE  10.0136  303  12.3127  303  -1.0  100   -1.0  2     0     980.2    NA       0.0000   9999     6000  0     0    
2019/06/16  18:34:00  BASE  9.51972  303  11.7659  304  -1.0  100   -1.0  1     0     980.2    NA       0.0000   9999     6140  0     0    
2019/06/16  18:35:00  BASE  9.63732  306  11.7659  304  -1.0  100   -1.0  1     0     980.2    NA       0.0000   9999     2100  6100  0    
2019/06/16  18:36:00  BASE  9.6138   306  11.7659  304  -1.0  100   -1.0  1     0     980.2    NA       0.0000   9999     1900  0     0    
2019/06/16  18:37:00  BASE  9.21984  304  11.7659  304  -1.0  100   -1.0  1     0     980.2    NA       0.0000   9999     2850  6040  0    
2019/06/16  18:38:00  BASE  8.98464  303  11.7659  304  -1.0  100   -1.0  1     0     980.3    NA       0.0000   9999     2330  6040  0    
2019/06/16  18:39:00  BASE  8.69652  304  11.6483  307  -1.0  100   -1.0  1     0     980.3    NA       0.0000   9999     2660  0     0    
2019/06/16  18:40:00  BASE  8.63772  304  11.6483  307  -1.0  100   -1.0  1     0     980.3    NA       0.0000   9999     1970  0     0    
2019/06/16  18:41:00  BASE  8.73768  305  11.6483  307  -1.0  100   -1.0  1     0     980.3    NA       0.0000   9999     1740  5970  0    
2019/06/16  18:42:00  BASE  8.3496   303  10.8604  313  -1.0  100   -1.0  1     0     980.3    NA       0.0000   9999     5910  0     0    
2019/06/16  18:43:00  BASE  7.86744  301  10.8604  313  -1.0  100   -1.0  1     0     980.4    NA       0.0000   9999     5810  0     0    
2019/06/16  18:44:00  BASE  7.89684  300  10.8604  313  -1.1  100   -1.1  1     0     980.4    NA       0.0000   9999     1970  5840  0    
2019/06/16  18:45:00  BASE  8.24376  301  10.4958  299  -1.1  100   -1.1  0     0     980.3    NA       0.0000   9999     5740  0     0    
2019/06/16  18:46:00  BASE  8.29668  304  10.1018  304  -1.1  100   -1.1  1     0     980.3    NA       0.0000   9999     5840  0     0    
2019/06/16  18:47:00  BASE  8.72592  303  10.1018  299  -1.1  100   -1.1  0     0     980.3    NA       0.0000   9999     5810  6270  0    
2019/06/16  18:48:00  BASE  9.27864  303  10.1018  299  -1.1  100   -1.1  0     0     980.3    NA       0.0000   9999     5910  0     0    
2019/06/16  18:49:00  BASE  8.56128  300  10.1018  299  -1.1  100   -1.1  0     0     980.4    NA       0.0000   9999     5840  0     0    
2019/06/16  18:50:00  BASE  8.16144  298  10.1018  299  -1.1  100   -1.1  0     0     980.4    NA       0.0000   9999     5740  0     0    
2019/06/16  18:51:00  BASE  8.07324  299  10.1018  299  -1.1  100   -1.1  0     0     980.4    NA       0.0000   9999     5740  0     0    
2019/06/16  18:52:00  BASE  8.16144  299  10.1018  299  -1.1  100   -1.1  0     0     980.4    NA       0.0000   9999     1900  5870  0    
2019/06/16  18:53:00  BASE  8.44368  299  10.1018  299  -1.1  100   -1.1  0     0     980.4    NA       0.0000   9999     5710  0     0    
2019/06/16  18:54:00  BASE  8.36724  302  10.1018  299  -1.1  100   -1.1  0     0     980.4    NA       0.0000   9999     5770  0     0    
2019/06/16  18:55:00  BASE  8.62008  303  10.1018  299  -1.1  100   -1.1  0     0     980.4    NA       0.0000   9999     6140  0     0    
2019/06/16  18:56:00  BASE  8.57892  303  10.1018  299  -1.1  100   -1.1  0     0     980.4    NA       0.0000   9999     6370  0     0    
2019/06/16  18:57:00  BASE  8.10852  304  9.80196  300  -1.1  100   -1.1  0     0     980.4    NA       0.0000   9999     6430  0     0    
2019/06/16  18:58:00  BASE  7.82628  304  9.59028  302  -1.0  100   -1.0  0     0     980.4    NA       0.0000   9999     6400  0     0    
2019/06/16  18:59:00  BASE  8.16144  302  9.86076  300  -1.1  100   -1.1  0     0     980.4    NA       0.0000   9999     6300  0     0    
2019/06/16  19:00:00  BASE  8.72004  301  9.86076  300  -1.1  100   -1.1  0     0     980.4    NA       0.0000   9999     6230  0     0    
2019/06/16  19:01:00  BASE  9.01992  299  9.86076  294  -1.1  100   -1.1  0     0     980.5    NA       0.0000   9999     2000  6370  0    
2019/06/16  19:02:00  BASE  9.2022   300  9.95484  312  -1.1  100   -1.1  0     0     980.5    NA       0.0000   9999     1840  6460  0    
2019/06/16  19:03:00  BASE  9.261    299  10.437   292  -1.1  100   -1.1  0     0     980.5    NA       0.0000   9999     1870  0     0    
2019/06/16  19:04:00  BASE  8.9376   297  10.437   292  -1.1  100   -1.1  0     0     980.6    NA       0.0000   9999     1840  6270  0    
2019/06/16  19:05:00  BASE  8.83764  296  11.2543  297  -1.1  100   -1.1  0     0     980.6    NA       0.0000   9999     1900  3770  0    
2019/06/16  19:06:00  BASE  8.9376   295  11.2543  297  -1.1  100   -1.1  0     0     980.6    NA       0.0000   9999     1900  0     0    
2019/06/16  19:07:00  BASE  8.81412  298  11.2543  297  -1.1  100   -1.1  0     0     980.6    NA       0.0000   9999     1970  5380  0    
2019/06/16  19:08:00  BASE  8.91408  296  11.2543  297  -1.1  100   -1.1  0     0     980.6    NA       0.0000   9999     2030  0     0    
2019/06/16  19:09:00  BASE  9.74904  292  11.2543  286  -1.1  100   -1.1  0     0     980.6    NA       0.0000   9999     1740  0     0    
2019/06/16  19:10:00  BASE  9.99012  290  11.2543  286  -1.1  100   -1.1  0     0     980.6    NA       0.0000   9999     1870  0     0    
2019/06/16  19:11:00  BASE  9.06696  286  11.2543  286  -1.1  100   -1.1  0     0     980.7    NA       0.0000   9999     1870  0     0    
2019/06/16  19:12:00  BASE  9.22572  284  11.4366  291  -1.1  100   -1.1  0     0     980.7    NA       0.0000   9999     1870  0     0    
2019/06/16  19:13:00  BASE  9.27864  287  11.4366  291  -1.1  100   -1.1  0     0     980.7    NA       0.0000   9999     2130  0     0    
2019/06/16  19:14:00  BASE  9.03756  287  11.5542  277  -1.1  100   -1.1  0     0     980.7    NA       0.0000   9999     2200  0     0    
2019/06/16  19:15:00  BASE  10.2253  287  13.0066  284  -1.1  100   -1.1  0     0     980.7    NA       0.0000   9999     1800  2430  0    
2019/06/16  19:16:00  BASE  9.98424  289  13.0066  284  -1.1  100   -1.1  0     0     980.8    NA       0.0000   9999     2430  0     0    
2019/06/16  19:17:00  BASE  8.63184  287  13.0066  284  -1.1  100   -1.1  0     0     980.8    NA       0.0000   9999     2620  0     0    
2019/06/16  19:18:00  BASE  8.84352  286  13.0066  284  -1.1  100   -1.1  0     0     980.8    NA       0.0000   9999     2360  0     0    
2019/06/16  19:19:00  BASE  9.24336  280  13.0066  284  -1.1  100   -1.1  0     0     980.8    NA       0.0000   9999     1970  2530  0    
2019/06/16  19:20:00  BASE  9.24336  275  13.0066  284  -1.1  100   -1.1  0     0     980.8    NA       0.0000   9999     1840  0     0    
2019/06/16  19:21:00  BASE  9.24924  276  13.0066  284  -1.1  100   -1.1  0     0     980.8    NA       0.0000   9999     1740  0     0    
2019/06/16  19:22:00  BASE  8.7612   278  13.0066  284  -1.1  100   -1.1  0     0     980.8    NA       0.0000   9999     1870  0     0    
2019/06/16  19:23:00  BASE  8.24376  279  13.0066  284  -1.1  100   -1.1  0     0     980.9    NA       0.0000   9999     1840  0     0    
2019/06/16  19:24:00  BASE  7.94976  275  13.0066  284  -1.0  100   -1.0  0     0     980.9    NA       0.0000   9999     1710  0     0    
2019/06/16  19:25:01  BASE  7.94976  274  11.6483  282  -1.0  100   -1.0  0     0     980.8    NA       0.0000   9999     1800  0     0    
2019/06/16  19:26:00  BASE  8.35548  278  11.6483  282  -1.0  100   -1.0  0     0     980.9    NA       0.0000   9999     1710  3080  0    
2019/06/16  19:27:00  BASE  8.69652  278  11.6483  282  -1.0  100   -1.0  0     0     980.8    NA       0.0000   9999     1670  2490  0    
2019/06/16  19:28:00  BASE  9.28452  276  11.1308  277  -1.0  100   -1.0  0     0     980.8    NA       0.0000   9999     1610  2660  0    
2019/06/16  19:29:00  BASE  9.36684  280  11.1308  277  -1.0  100   -1.0  0     0     980.8    NA       0.0000   9999     1770  0     0    
2019/06/16  19:30:00  BASE  8.89056  282  11.1308  277  -1.0  100   -1.0  0     0     980.9    NA       0.0000   UP       9999  1570  0    
2019/06/16  19:31:00  BASE  8.71416  280  11.7659  282  -1.0  100   -1.0  0     0     980.9    NA       0.0000   UP       9999  3280  0    
2019/06/16  19:32:00  BASE  9.20808  278  11.7659  282  -1.1  100   -1.1  0     0     980.9    NA       0.0000   UP       9999  1540  3450 
2019/06/16  19:33:00  BASE  9.6138   277  11.7659  282  -1.1  100   -1.1  0     0     980.9    NA       0.0000   UP       9999  1740  3380 
2019/06/16  19:34:00  BASE  9.51384  276  11.7659  282  -1.1  100   -1.1  0     0     980.9    NA       0.0000   UP       9999  1380  3610 
2019/06/16  19:35:00  BASE  9.41976  277  11.7659  282  -1.1  100   -1.1  0     0     980.9    NA       0.0000   UP       9999  2530  3710 
2019/06/16  19:36:00  BASE  9.80196  279  11.9482  268  -1.1  100   -1.1  0     0     980.9    NA       0.0000   UP       9999  2490  0    
2019/06/16  19:37:00  BASE  9.33744  281  11.9482  268  -1.2  100   -1.2  0     0     981.0    NA       0.0000   UP       9999  2200  0    
2019/06/16  19:38:00  BASE  8.42016  283  11.9482  268  -1.2  100   -1.2  0     0     981.0    NA       0.0000   UP       9999  1970  0    
2019/06/16  19:39:00  BASE  8.33196  283  11.9482  268  -1.2  100   -1.2  0     0     981.0    NA       0.0000   UP       9999  1900  0    
2019/06/16  19:40:00  BASE  8.0556   284  11.9482  268  -1.2  100   -1.2  0     0     981.0    NA       0.0000   UP       9999  0     0    
2019/06/16  19:41:00  BASE  8.13204  285  11.9482  268  -1.2  100   -1.2  0     0     981.0    NA       0.0000   9999     0     0     0    
2019/06/16  19:42:00  BASE  8.26728  285  11.9482  268  -1.2  100   -1.2  0     0     981.0    NA       0.0000   8000     0     0     0    
2019/06/16  19:43:00  BASE  8.22024  284  11.9482  268  -1.2  100   -1.2  0     0     981.0    NA       0.0000   UP       6000  360   0    
2019/06/16  19:44:00  BASE  8.42604  283  11.9482  268  -1.2  100   -1.2  0     0     981.0    NA       0.0000   UP       5000  300   1670 
2019/06/16  19:45:00  BASE  7.94976  284  11.9482  268  -1.2  100   -1.2  0     0     981.0    NA       0.0000   UP       BR    4800  0    
2019/06/16  19:46:00  BASE  7.00896  285  10.1665  272  -1.3  100   -1.3  0     0     981.0    NA       0.0000   UP       BR    5000  330  
2019/06/16  19:47:00  BASE  7.6146   287  10.437   281  -1.3  100   -1.3  0     0     981.0    NA       0.0000   UP       BR    4900  0    
2019/06/16  19:48:00  BASE  8.80824  286  10.437   281  -1.3  100   -1.3  0     0     980.9    NA       0.0000   UP       BR    3400  0    
2019/06/16  19:49:00  BASE  8.86116  287  10.437   281  -1.3  100   -1.3  0     0     980.9    NA       0.0000   UP       BR    3500  0    
2019/06/16  19:50:00  BASE  9.82548  290  12.4009  294  -1.3  100   -1.3  0     0     980.9    NA       0.0000   UP       BR    3500  0    
2019/06/16  19:51:00  BASE  10.8427  289  12.495   286  -1.3  100   -1.3  0     0     980.9    NA       0.0000   UP       BR    3000  0    
2019/06/16  19:52:00  BASE  10.7839  290  12.495   286  -1.4  100   -1.4  0     0     981.0    NA       0.0000   UP       BR    3900  0    
2019/06/16  19:53:00  BASE  10.9074  289  13.0066  282  -1.4  100   -1.4  0     0     981.0    NA       0.0000   UP       BR    4100  390  
2019/06/16  19:54:00  BASE  11.5483  286  13.1594  292  -1.4  100   -1.4  0     0     981.0    NA       0.0000   UP       BR    4100  0    
2019/06/16  19:55:00  BASE  11.6424  289  13.1594  292  -1.5  100   -1.5  0     0     981.0    NA       0.0000   UP       BR    5000  1250 
2019/06/16  19:56:00  BASE  12.0187  290  15.2174  294  -1.5  100   -1.5  0     0     980.9    NA       0.0000   UP       BR    9999  1280 
2019/06/16  19:57:00  BASE  12.9419  286  15.2174  294  -1.5  100   -1.5  0     0     981.0    NA       0.0000   UP       BR    9999  0    
2019/06/16  19:58:00  BASE  13.0771  283  15.2174  294  -1.6  100   -1.6  0     0     981.1    NA       0.0000   UP       BR    9000  0    
2019/06/16  19:59:00  BASE  11.954   284  15.2174  294  -1.6  100   -1.6  0     0     981.2    NA       0.0000   UP       BR    9000  0    
2019/06/16  20:00:00  BASE  10.39    288  15.2174  294  -1.6  100   -1.6  0     0     981.2    NA       0.0000   UP       BR    9000  0    
2019/06/16  20:01:00  BASE  10.7251  286  15.2174  294  -1.7  100   -1.7  0     0     981.2    NA       0.0000   UP       BR    9999  0    
2019/06/16  20:02:00  BASE  10.7545  285  15.2174  294  -1.7  100   -1.7  0     0     981.3    NA       0.0000   BR       9999  0     0    
2019/06/16  20:03:00  BASE  10.4135  284  15.2174  294  -1.7  100   -1.7  0     0     981.2    NA       0.0000   BR       9999  0     0    
2019/06/16  20:04:00  BASE  10.8016  282  15.2174  294  -1.7  100   -1.7  0     0     981.3    NA       0.0000   9999     0     0     0    
2019/06/16  20:05:00  BASE  11.7188  282  15.2174  294  -1.7  100   -1.7  0     0     981.2    NA       0.0000   9999     1250  0     0    
2019/06/16  20:06:00  BASE  12.4891  282  14.7     289  -1.7  100   -1.7  0     0     981.2    NA       0.0000   9999     0     0     0    
2019/06/16  20:07:00  BASE  12.3656  281  14.4883  287  -1.7  100   -1.7  0     0     981.2    NA       0.0000   9999     0     0     0    
2019/06/16  20:08:00  BASE  11.8129  280  14.4295  274  -1.7  100   -1.7  0     0     981.3    NA       0.0000   9999     0     0     0    
2019/06/16  20:09:00  BASE  11.2132  281  14.4295  274  -1.7  100   -1.7  0     0     981.3    NA       0.0000   9999     1210  0     0    
2019/06/16  20:10:00  BASE  10.8486  284  14.4295  274  -1.7  100   -1.7  0     0     981.3    NA       0.0000   9999     1480  0     0    
2019/06/16  20:11:00  BASE  10.925   285  14.4295  274  -1.7  100   -1.7  0     0     981.4    NA       0.0000   9999     1410  0     0    
2019/06/16  20:12:00  BASE  11.513   285  14.4295  274  -1.6  100   -1.6  0     0     981.3    NA       0.0000   9999     1150  0     0    
2019/06/16  20:13:00  BASE  11.7482  283  14.4295  274  -1.6  100   -1.6  0     0     981.4    NA       0.0000   9999     1800  0     0    
2019/06/16  20:14:00  BASE  12.0246  278  14.4295  274  -1.6  100   -1.6  0     0     981.3    NA       0.0000   9999     0     0     0    
2019/06/16  20:15:00  BASE  11.4895  278  14.4295  274  -1.6  100   -1.6  0     0     981.5    NA       0.0000   9999     0     0     0    
2019/06/16  20:16:00  BASE  11.5013  281  14.4295  274  -1.6  100   -1.6  0     0     981.5    NA       0.0000   9999     1120  0     0    
2019/06/16  20:17:00  BASE  11.1779  279  14.0356  280  -1.7  100   -1.7  0     0     981.6    NA       0.0000   9999     1120  0     0    
2019/06/16  20:18:00  BASE  9.93132  274  14.0356  280  -1.7  100   -1.7  0     0     981.6    NA       0.0000   9999     1380  3350  0    
2019/06/16  20:19:00  BASE  9.60792  272  14.0356  280  -1.7  100   -1.7  0     0     981.6    NA       0.0000   9999     2690  3410  0    
2019/06/16  20:20:00  BASE  9.27276  276  14.0356  280  -1.7  100   -1.7  0     0     981.7    NA       0.0000   9999     2760  0     0    
2019/06/16  20:21:00  BASE  9.22572  278  14.0356  280  -1.7  100   -1.7  0     0     981.7    NA       0.0000   9999     2660  0     0    
2019/06/16  20:22:00  BASE  8.42016  276  14.0356  280  -1.7  100   -1.7  0     0     981.7    NA       0.0000   9999     2820  3970  0    
2019/06/16  20:23:00  BASE  8.03796  275  13.8239  286  -1.7  100   -1.7  0     0     981.7    NA       0.0000   9999     2920  0     0    
2019/06/16  20:24:00  BASE  8.36724  275  13.8239  286  -1.7  100   -1.7  0     0     981.7    NA       0.0000   9999     3050  0     0    
2019/06/16  20:25:00  BASE  9.13164  276  13.8239  286  -1.7  100   -1.7  0     0     981.7    NA       0.0000   9999     3080  4490  0    
2019/06/16  20:26:00  BASE  10.2253  275  12.5244  277  -1.7  100   -1.7  0     0     981.7    NA       0.0000   9999     1410  3280  0    
2019/06/16  20:27:00  BASE  10.3253  273  12.2833  272  -1.7  100   -1.7  0     0     981.7    NA       0.0000   9999     3280  4460  0    
2019/06/16  20:28:00  BASE  9.69612  272  12.2833  272  -1.7  100   -1.7  0     0     981.8    NA       0.0000   9999     1970  4170  6690 
2019/06/16  20:29:00  BASE  9.77256  273  12.2833  272  -1.7  100   -1.7  0     0     981.8    NA       0.0000   9999     1440  0     0    
2019/06/16  20:30:00  BASE  10.7486  273  12.7067  273  -1.7  100   -1.7  0     0     981.7    NA       0.0000   9999     1570  0     0    
2019/06/16  20:31:00  BASE  11.1073  272  12.7067  273  -1.7  100   -1.7  0     0     981.8    NA       0.0000   9999     3580  7050  0    
2019/06/16  20:32:00  BASE  10.2371  271  12.7067  273  -1.7  100   -1.7  0     0     981.8    NA       0.0000   9999     7150  0     0    
2019/06/16  20:33:00  BASE  10.2959  274  12.7067  273  -1.7  100   -1.7  0     0     981.8    NA       0.0000   9999     3020  7190  0    
2019/06/16  20:34:00  BASE  10.29    278  12.7067  273  -1.7  100   -1.7  0     0     981.8    NA       0.0000   9999     2990  7220  0    
2019/06/16  20:35:00  BASE  9.56676  275  12.7067  273  -1.7  100   -1.7  0     0     981.8    NA       0.0000   9999     3120  7220  0    
2019/06/16  20:36:00  BASE  9.77256  274  12.7067  273  -1.7  100   -1.7  0     0     981.8    NA       0.0000   9999     7190  0     0    
2019/06/16  20:37:00  BASE  9.04344  279  12.7067  273  -1.7  100   -1.7  0     0     981.9    NA       0.0000   9999     7150  0     0    
2019/06/16  20:38:00  BASE  7.9674   275  12.7067  273  -1.7  100   -1.7  0     0     981.9    NA       0.0000   9999     7190  0     0    
2019/06/16  20:39:00  BASE  8.232    273  12.7067  273  -1.7  100   -1.7  0     0     981.9    NA       0.0000   9999     7220  0     0    
2019/06/16  20:40:00  BASE  8.95524  276  12.4656  274  -1.7  100   -1.7  0     0     981.8    NA       0.0000   9999     2000  6560  0    
2019/06/16  20:41:00  BASE  8.56716  275  12.3127  273  -1.6  100   -1.6  0     0     981.9    NA       0.0000   9999     1970  2790  0    
2019/06/16  20:42:00  BASE  8.02032  276  12.3127  273  -1.6  100   -1.6  0     0     981.9    NA       0.0000   9999     1870  0     0    
2019/06/16  20:43:00  BASE  8.50836  276  11.5248  285  -1.6  100   -1.6  0     0     981.9    NA       0.0000   9999     1840  0     0    
2019/06/16  20:44:00  BASE  8.379    279  11.5248  285  -1.6  100   -1.6  0     0     981.9    NA       0.0000   9999     1970  7550  0    
2019/06/16  20:45:00  BASE  8.4084   280  10.978   274  -1.6  100   -1.6  0     0     981.9    NA       0.0000   9999     2530  7480  0    
2019/06/16  20:46:00  BASE  9.01404  278  10.7075  282  -1.5  100   -1.5  0     0     981.9    NA       0.0000   9999     2260  0     0    
2019/06/16  20:47:00  BASE  8.6142   278  10.7075  282  -1.5  100   -1.5  0     0     981.9    NA       0.0000   9999     2360  0     0    
2019/06/16  20:48:00  BASE  8.30256  281  10.7075  282  -1.5  100   -1.5  0     0     981.9    NA       0.0000   9999     2360  0     0    
2019/06/16  20:49:00  BASE  8.33784  286  10.7075  282  -1.5  100   -1.5  0     0     981.8    NA       0.0000   9999     1670  0     0    
2019/06/16  20:50:01  BASE  8.71416  290  10.5546  295  -1.5  100   -1.5  0     0     981.8    NA       0.0000   9999     1440  0     0    
2019/06/16  20:51:00  BASE  8.93172  287  10.5546  295  -1.4  100   -1.4  0     0     981.9    NA       0.0000   9999     1610  0     0    
2019/06/16  20:52:00  BASE  8.6142   286  10.5546  295  -1.4  100   -1.4  0     0     981.9    NA       0.0000   9999     1710  7450  0    
2019/06/16  20:53:00  BASE  8.00856  290  10.5546  295  -1.4  100   -1.4  0     0     981.9    NA       0.0000   9999     1610  0     0    
2019/06/16  20:54:00  BASE  7.43232  293  10.5546  295  -1.4  100   -1.4  0     0     982.0    NA       0.0000   9999     7250  0     0    
2019/06/16  20:55:00  BASE  7.89096  295  10.5546  295  -1.4  100   -1.4  0     0     981.9    NA       0.0000   9999     7350  0     0    
2019/06/16  20:56:00  BASE  8.43192  294  10.5546  295  -1.4  100   -1.4  0     0     981.9    NA       0.0000   9999     1970  0     0    
2019/06/16  20:57:00  BASE  8.09088  294  10.5546  295  -1.4  100   -1.4  0     0     982.0    NA       0.0000   9999     1670  0     0    
2019/06/16  20:58:00  BASE  7.8204   296  10.5546  295  -1.4  100   -1.4  0     0     982.0    NA       0.0000   9999     1510  2070  0    
2019/06/16  20:59:00  BASE  7.77924  296  10.3135  284  -1.4  100   -1.4  0     0     982.0    NA       0.0000   9999     1570  0     0    
2019/06/16  21:00:00  BASE  8.10264  297  10.1959  289  -1.4  100   -1.4  0     0     982.0    NA       0.0000   9999     1480  2170  0    
2019/06/16  21:01:00  BASE  8.44368  298  10.1959  289  -1.4  100   -1.4  0     0     982.0    NA       0.0000   9999     1610  0     0    
2019/06/16  21:02:00  BASE  8.16144  300  10.1959  289  -1.3  100   -1.3  0     0     982.0    NA       0.0000   9999     1410  0     0    
2019/06/16  21:03:00  BASE  7.83804  299  10.1959  289  -1.3  100   -1.3  0     0     982.1    NA       0.0000   9999     1410  0     0    
2019/06/16  21:04:00  BASE  7.89684  298  10.1959  289  -1.3  100   -1.3  0     0     982.1    NA       0.0000   9999     1350  0     0    
2019/06/16  21:05:00  BASE  7.94976  300  10.1018  290  -1.3  100   -1.3  0     0     982.1    NA       0.0000   9999     1900  0     0    
2019/06/16  21:06:00  BASE  8.9082   302  10.978   297  -1.2  100   -1.2  0     0     982.0    NA       0.0000   9999     1670  0     0    
2019/06/16  21:07:00  BASE  9.94308  302  11.3425  299  -1.2  100   -1.2  0     0     982.1    NA       0.0000   9999     1770  0     0    
2019/06/16  21:08:00  BASE  8.76708  300  11.3425  299  -1.2  100   -1.2  0     0     982.2    NA       0.0000   9999     1770  2560  0    
2019/06/16  21:09:00  BASE  8.526    299  11.3425  299  -1.2  100   -1.2  0     0     982.1    NA       0.0000   9999     2230  0     0    
2019/06/16  21:10:00  BASE  9.44328  297  11.3425  299  -1.2  100   -1.2  0     0     982.1    NA       0.0000   9999     1940  0     0    
2019/06/16  21:11:00  BASE  9.1434   295  11.3425  299  -1.3  100   -1.3  0     0     982.1    NA       0.0000   9999     1740  2330  0    
2019/06/16  21:12:00  BASE  9.07872  295  11.6483  292  -1.3  100   -1.3  0     0     982.1    NA       0.0000   9999     2070  0     0    
2019/06/16  21:13:00  BASE  10.3018  293  14.159   291  -1.3  100   -1.3  0     0     982.0    NA       0.0000   9999     1480  0     0    
2019/06/16  21:14:00  BASE  11.6659  291  14.306   292  -1.3  100   -1.3  0     0     982.1    NA       0.0000   3400     950   0     0    
2019/06/16  21:15:00  BASE  12.6244  290  16.1524  287  -1.3  100   -1.3  0     0     982.1    NA       0.0000   BR       1900  0     0    
2019/06/16  21:16:00  BASE  11.9776  287  16.1524  287  -1.4  100   -1.4  0     0     982.2    NA       0.0000   UP       BR    2200  0    
2019/06/16  21:17:00  BASE  10.7545  286  16.1524  287  -1.5  100   -1.5  0     0     982.4    NA       0.0000   UP       BR    2400  0    
2019/06/16  21:18:00  BASE  10.878   288  16.1524  287  -1.6  100   -1.6  0     0     982.3    NA       0.0000   UP       BR    3400  2760 
2019/06/16  21:19:00  BASE  11.025   287  16.1524  287  -1.8  100   -1.8  0     0     982.4    NA       0.0000   UP       BR    5000  1740 
2019/06/16  21:20:00  BASE  10.9662  286  16.1524  287  -1.9  100   -1.9  0     0     982.4    NA       0.0000   UP       BR    9999  2030 
2019/06/16  21:21:00  BASE  11.1426  286  16.1524  287  -2.0  100   -2.0  0     0     982.3    NA       0.0000   UP       BR    9999  5410 
2019/06/16  21:22:00  BASE  11.7541  284  16.1524  287  -2.1  100   -2.1  0     0     982.3    NA       0.0000   UP       BR    9999  5090 
2019/06/16  21:23:00  BASE  12.1363  281  16.1524  287  -2.2  100   -2.2  0     0     982.4    NA       0.0000   UP       BR    3900  0    
2019/06/16  21:24:00  BASE  11.8952  282  16.1524  287  -2.2  100   -2.2  0     0     982.3    NA       0.0000   UP       BR    1900  0    
2019/06/16  21:25:00  BASE  11.3778  289  14.159   287  -2.3  100   -2.3  0     0     982.3    NA       0.0000   UP       BR    2100  0    
2019/06/16  21:26:00  BASE  11.1014  289  14.159   287  -2.4  100   -2.4  0     0     982.3    NA       0.0000   -SN      BR    4400  2560 
2019/06/16  21:27:00  BASE  11.025   287  14.159   287  -2.4  100   -2.4  0     0     982.3    NA       0.0000   -SN      BR    7000  0    
2019/06/16  21:28:00  BASE  10.5899  289  14.159   287  -2.4  100   -2.4  0     0     982.3    NA       0.0000   -SN      BR    5000  0    
2019/06/16  21:29:00  BASE  9.86076  288  14.159   287  -2.3  100   -2.3  0     0     982.4    NA       0.0000   -SN      BR    5000  0    
2019/06/16  21:30:00  BASE  8.97288  287  14.159   287  -2.2  100   -2.2  0     0     982.4    NA       0.0000   -SN      BR    5000  5250 
2019/06/16  21:31:00  BASE  8.75532  287  14.159   287  -2.1  100   -2.1  0     0     982.5    NA       0.0000   -SN      BR    7000  2820 
2019/06/16  21:32:00  BASE  9.06108  289  13.4299  280  -2.1  100   -2.1  0     0     982.5    NA       0.0000   -SN      BR    9999  4990 
2019/06/16  21:33:00  BASE  9.09048  290  13.2476  287  -2.0  100   -2.0  0     0     982.5    NA       0.0000   -SN      BR    9999  6040 
2019/06/16  21:34:00  BASE  8.5848   291  12.6773  284  -1.9  100   -1.9  0     0     982.6    NA       0.0000   -SN      BR    9999  8430 
2019/06/16  21:35:00  BASE  8.49072  293  12.6773  284  -1.9  100   -1.9  0     0     982.6    NA       0.0000   -SN      BR    9999  8430 
2019/06/16  21:36:00  BASE  8.5848   292  12.6773  284  -1.8  100   -1.8  0     0     982.6    NA       0.0000   -SN      BR    9999  8460 
2019/06/16  21:37:00  BASE  8.40252  294  11.2543  285  -1.8  100   -1.8  0     0     982.6    NA       0.0000   -SN      BR    9999  8460 
2019/06/16  21:38:00  BASE  8.42016  295  10.7663  281  -1.7  100   -1.7  0     0     982.7    NA       0.0000   9999     8530  0     0    
2019/06/16  21:39:00  BASE  8.23788  294  10.5899  289  -1.7  100   -1.7  0     0     982.7    NA       0.0000   9999     8600  0     0    
2019/06/16  21:40:00  BASE  8.63772  294  10.5899  289  -1.7  100   -1.7  0     0     982.7    NA       0.0000   9999     8630  0     0    
2019/06/16  21:41:00  BASE  8.7024   295  10.5899  289  -1.7  100   -1.7  0     0     982.8    NA       0.0000   9999     8630  0     0    
2019/06/16  21:42:00  BASE  8.19084  295  10.2547  295  -1.7  100   -1.7  0     0     982.8    NA       0.0000   9999     6460  8690  0    
2019/06/16  21:43:00  BASE  8.24376  296  10.2547  295  -1.7  100   -1.7  0     0     982.8    NA       0.0000   9999     6500  0     0    
2019/06/16  21:44:00  BASE  8.12028  297  10.2547  295  -1.7  100   -1.7  0     0     982.9    NA       0.0000   9999     6590  0     0    
2019/06/16  21:45:00  BASE  7.81452  297  10.2547  295  -1.7  100   -1.7  0     0     982.9    NA       0.0000   9999     3940  6660  0    
2019/06/16  21:46:00  BASE  7.91448  299  9.86076  291  -1.7  100   -1.7  0     0     982.9    NA       0.0000   9999     3970  6730  0    
2019/06/16  21:47:00  BASE  8.42016  298  10.1018  298  -1.6  100   -1.6  0     0     982.9    NA       0.0000   9999     4000  0     0    
2019/06/16  21:48:00  BASE  8.07324  299  10.1018  298  -1.6  100   -1.6  0     0     983.0    NA       0.0000   9999     4170  6820  0    
2019/06/16  21:49:00  BASE  7.37352  300  10.1018  298  -1.6  100   -1.6  0     0     983.0    NA       0.0000   9999     6790  0     0    
2019/06/16  21:50:00  BASE  7.70868  301  10.1018  298  -1.6  100   -1.6  0     0     983.0    NA       0.0000   9999     4790  6790  0    
2019/06/16  21:51:00  BASE  7.83804  299  10.1018  298  -1.6  100   -1.6  0     0     983.0    NA       0.0000   9999     3250  0     0    
2019/06/16  21:52:00  BASE  7.48524  297  10.1018  298  -1.6  100   -1.6  0     0     983.1    NA       0.0000   9999     2950  0     0    
2019/06/16  21:53:00  BASE  7.69692  300  10.1018  298  -1.6  100   -1.6  0     0     983.1    NA       0.0000   9999     1870  2820  0    
2019/06/16  21:54:00  BASE  7.8792   302  10.1018  298  -1.6  100   -1.6  0     0     983.1    NA       0.0000   9999     2850  0     0    
2019/06/16  21:55:00  BASE  7.66164  301  10.1018  298  -1.5  100   -1.5  0     0     983.1    NA       0.0000   9999     2820  0     0    
2019/06/16  21:56:00  BASE  8.09088  299  10.1018  298  -1.5  100   -1.5  0     0     983.1    NA       0.0000   9999     2990  0     0    
2019/06/16  21:57:00  BASE  8.15556  298  9.4668   303  -1.5  100   -1.5  0     0     983.1    NA       0.0000   9999     6530  0     0    
2019/06/16  21:58:00  BASE  8.30256  294  9.98424  289  -1.5  100   -1.5  0     0     983.1    NA       0.0000   9999     6530  0     0    
2019/06/16  21:59:00  BASE  8.72004  294  9.98424  289  -1.5  100   -1.5  0     0     983.1    NA       0.0000   9999     4300  6560  0    
2019/06/16  22:00:00  BASE  8.31432  296  9.98424  289  -1.5  100   -1.5  0     0     983.2    NA       0.0000   9999     6460  0     0    
2019/06/16  22:01:00  BASE  7.96152  294  9.98424  289  -1.5  100   -1.5  0     0     983.2    NA       0.0000   9999     1570  6460  0    
2019/06/16  22:02:00  BASE  7.98504  294  9.98424  289  -1.5  100   -1.5  0     0     983.2    NA       0.0000   9999     6370  0     0    
2019/06/16  22:03:00  BASE  7.90272  295  9.98424  289  -1.5  100   -1.5  0     0     983.2    NA       0.0000   9999     4040  6430  0    
2019/06/16  22:04:00  BASE  8.4084   294  10.9192  292  -1.5  100   -1.5  0     0     983.1    NA       0.0000   9999     6430  0     0    
2019/06/16  22:05:00  BASE  8.60244  292  10.9192  292  -1.5  100   -1.5  0     0     983.2    NA       0.0000   9999     1610  4070  0    
2019/06/16  22:06:00  BASE  8.03796  289  10.9192  292  -1.5  100   -1.5  0     0     983.3    NA       0.0000   9999     6500  0     0    
2019/06/16  22:07:00  BASE  7.99092  291  10.9192  292  -1.5  100   -1.5  0     0     983.2    NA       0.0000   9999     6460  0     0    
2019/06/16  22:08:00  BASE  8.4084   296  10.9192  292  -1.5  100   -1.5  0     0     983.3    NA       0.0000   9999     6500  0     0    
2019/06/16  22:09:00  BASE  8.64948  296  10.9192  292  -1.5  100   -1.5  0     0     983.3    NA       0.0000   9999     6560  0     0    
2019/06/16  22:10:00  BASE  8.69652  294  10.9192  292  -1.5  100   -1.5  0     0     983.3    NA       0.0000   9999     3540  0     0    
2019/06/16  22:11:00  BASE  9.14928  291  10.9192  292  -1.5  100   -1.5  0     0     983.3    NA       0.0000   9999     3810  6690  0    
2019/06/16  22:12:00  BASE  8.967    289  10.9192  292  -1.5  100   -1.5  0     0     983.4    NA       0.0000   9999     6330  0     0    
2019/06/16  22:13:00  BASE  9.03168  293  10.9192  292  -1.5  100   -1.5  0     0     983.4    NA       0.0000   9999     3120  0     0    
2019/06/16  22:14:00  BASE  9.16692  295  10.6193  297  -1.5  100   -1.5  0     0     983.4    NA       0.0000   9999     2000  3180  0    
2019/06/16  22:15:00  BASE  8.54952  296  10.6193  297  -1.4  100   -1.4  0     0     983.5    NA       0.0000   9999     3310  0     0    
2019/06/16  22:16:00  BASE  8.13792  297  10.6193  297  -1.4  100   -1.4  0     0     983.5    NA       0.0000   9999     6300  0     0    
2019/06/16  22:17:00  BASE  7.45584  298  10.6193  297  -1.4  100   -1.4  0     0     983.5    NA       0.0000   9999     6230  0     0    
2019/06/16  22:18:00  BASE  7.42056  299  10.6193  297  -1.4  100   -1.4  0     0     983.5    NA       0.0000   9999     6040  0     0    
2019/06/16  22:19:00  BASE  7.76748  298  10.6193  297  -1.4  100   -1.4  0     0     983.5    NA       0.0000   9999     1770  0     0    
2019/06/16  22:20:00  BASE  7.80864  299  10.6193  297  -1.4  100   -1.4  0     0     983.6    NA       0.0000   9999     2070  6330  0    
2019/06/16  22:21:00  BASE  7.66752  299  9.98424  281  -1.4  100   -1.4  0     0     983.6    NA       0.0000   9999     1840  0     0    
2019/06/16  22:22:00  BASE  7.50876  299  9.98424  281  -1.4  100   -1.4  0     0     983.6    NA       0.0000   9999     3280  0     0    
2019/06/16  22:23:00  BASE  7.74396  298  9.5256   292  -1.4  100   -1.4  0     0     983.6    NA       0.0000   9999     2170  3380  0    
2019/06/16  22:24:00  BASE  7.6734   299  8.86116  294  -1.4  100   -1.4  0     0     983.6    NA       0.0000   9999     1940  3310  0    
2019/06/16  22:25:00  BASE  8.03208  298  9.95484  291  -1.4  100   -1.4  0     0     983.6    NA       0.0000   9999     3220  0     0    
2019/06/16  22:26:00  BASE  8.71416  295  9.95484  291  -1.4  100   -1.4  0     0     983.6    NA       0.0000   9999     1870  3280  0    
2019/06/16  22:27:00  BASE  8.33196  296  9.95484  291  -1.4  100   -1.4  0     0     983.6    NA       0.0000   9999     2070  3120  0    
2019/06/16  22:28:00  BASE  7.42644  298  9.95484  291  -1.4  100   -1.4  0     0     983.7    NA       0.0000   9999     3280  0     0    
2019/06/16  22:29:00  BASE  7.203    297  9.95484  291  -1.4  100   -1.4  0     0     983.7    NA       0.0000   9999     3280  0     0    
2019/06/16  22:30:00  BASE  7.56756  298  9.95484  291  -1.4  100   -1.4  0     0     983.6    NA       0.0000   9999     3180  3940  0    
2019/06/16  22:31:00  BASE  7.44996  298  9.95484  291  -1.4  100   -1.4  0     0     983.7    NA       0.0000   9999     3120  0     0    
2019/06/16  22:32:00  BASE  6.78552  299  9.95484  291  -1.4  100   -1.4  0     0     983.7    NA       0.0000   9999     2000  3080  0    
2019/06/16  22:33:00  BASE  6.78552  301  9.95484  291  -1.3  100   -1.3  0     0     983.7    NA       0.0000   9999     1900  3080  0    
2019/06/16  22:34:00  BASE  7.2912   301  9.95484  291  -1.4  100   -1.4  0     0     983.7    NA       0.0000   9999     1670  2170  0    
2019/06/16  22:35:00  BASE  7.27944  300  9.83136  289  -1.3  100   -1.3  0     0     983.7    NA       0.0000   9999     1770  0     0    
2019/06/16  22:36:00  BASE  7.09128  299  9.4374   302  -1.3  100   -1.3  0     0     983.7    NA       0.0000   9999     3310  0     0    
2019/06/16  22:37:00  BASE  7.00308  298  8.98464  296  -1.3  100   -1.3  0     0     983.7    NA       0.0000   9999     1670  3380  0    
2019/06/16  22:38:00  BASE  7.15596  302  8.98464  296  -1.3  100   -1.3  0     0     983.7    NA       0.0000   9999     1770  0     0    
2019/06/16  22:39:00  BASE  7.53228  306  8.98464  296  -1.3  100   -1.3  0     0     983.6    NA       0.0000   9000     390   0     0    
2019/06/16  22:40:01  BASE  8.78472  307  10.9192  307  -1.3  100   -1.3  0     0     983.5    NA       0.0000   8000     1380  0     0    
2019/06/16  22:41:00  BASE  9.53736  306  10.9192  307  -1.3  100   -1.3  0     0     983.6    NA       0.0000   -SN      9999  1740  0    
2019/06/16  22:42:00  BASE  8.8494   307  10.9192  307  -1.3  100   -1.3  0     0     983.7    NA       0.0000   -SN      9999  1480  0    
2019/06/16  22:43:00  BASE  8.62008  306  10.9192  307  -1.3  100   -1.3  0     0     983.7    NA       0.0000   -SN      9999  1540  0    
2019/06/16  22:44:00  BASE  8.8788   306  10.9192  307  -1.3  100   -1.3  0     0     983.7    NA       0.0000   -SN      9999  1440  0    
2019/06/16  22:45:00  BASE  8.88468  309  10.9192  307  -1.3  100   -1.3  0     0     983.7    NA       0.0000   -SN      9999  1710  2720 
2019/06/16  22:46:00  BASE  8.56128  310  10.9192  307  -1.3  100   -1.3  0     0     983.7    NA       0.0000   -SN      9999  1570  2130 
2019/06/16  22:47:00  BASE  8.27316  310  10.9192  307  -1.3  100   -1.3  0     0     983.7    NA       0.0000   -SN      9999  1410  0    
2019/06/16  22:48:00  BASE  7.80276  311  10.9192  307  -1.3  100   -1.3  0     0     983.7    NA       0.0000   -SN      9999  1380  0    
2019/06/16  22:49:00  BASE  8.33196  309  10.9192  307  -1.3  100   -1.3  0     0     983.7    NA       0.0000   -SN      9999  1480  0    
2019/06/16  22:50:00  BASE  8.94936  306  9.98424  305  -1.3  100   -1.3  0     0     983.7    NA       0.0000   9999     1440  0     0    
2019/06/16  22:51:00  BASE  8.6436   307  9.86076  302  -1.2  100   -1.2  0     0     983.7    NA       0.0000   9999     1380  0     0    
2019/06/16  22:52:00  BASE  8.81412  308  9.86076  302  -1.2  100   -1.2  0     0     983.7    NA       0.0000   9999     1350  0     0    
2019/06/16  22:53:00  BASE  9.53736  310  10.8898  307  -1.2  100   -1.2  0     0     983.7    NA       0.0000   9999     1380  2100  0    
2019/06/16  22:54:00  BASE  10.5311  311  12.1598  305  -1.2  100   -1.2  0     0     983.6    NA       0.0000   9999     1250  0     0    
2019/06/16  22:55:00  BASE  10.437   310  12.1598  305  -1.2  100   -1.2  0     0     983.7    NA       0.0000   9999     1410  0     0    
2019/06/16  22:56:00  BASE  9.7902   307  12.1598  305  -1.2  100   -1.2  0     0     983.7    NA       0.0000   9999     1350  2890  0    
2019/06/16  22:57:00  BASE  9.68436  304  12.1598  305  -1.2  100   -1.2  0     0     983.8    NA       0.0000   9999     4860  0     0    
2019/06/16  22:58:00  BASE  9.60792  304  12.1598  305  -1.3  100   -1.3  0     0     983.8    NA       0.0000   9999     4400  0     0    
2019/06/16  22:59:00  BASE  9.77844  305  12.1598  305  -1.3  100   -1.3  0     0     983.8    NA       0.0000   9999     1570  0     0    
2019/06/16  23:00:00  BASE  10.0136  303  12.1598  305  -1.3  100   -1.3  0     0     983.8    NA       0.0000   9999     0     0     0    
2019/06/16  23:01:00  BASE  9.86664  302  12.1598  305  -1.3  100   -1.3  0     0     983.8    NA       0.0000   9999     1440  0     0    
2019/06/16  23:02:00  BASE  9.56676  300  12.1598  305  -1.3  100   -1.3  0     0     983.9    NA       0.0000   9999     0     0     0    
2019/06/16  23:03:00  BASE  9.41388  299  12.1598  305  -1.4  100   -1.4  0     0     983.9    NA       0.0000   9000     0     0     0    
2019/06/16  23:04:00  BASE  9.0258   299  11.072   304  -1.4  100   -1.4  0     0     984.0    NA       0.0000   -SN      8000  0     0    
2019/06/16  23:05:00  BASE  8.71416  298  10.8898  302  -1.4  100   -1.4  0     0     984.0    NA       0.0000   -SN      7000  2030  0    
2019/06/16  23:06:00  BASE  9.26688  297  11.0132  293  -1.4  100   -1.4  0     0     984.0    NA       0.0000   -SN      6000  0     0    
2019/06/16  23:07:00  BASE  9.89604  299  11.3719  301  -1.4  100   -1.4  0     0     984.0    NA       0.0000   -SN      BR    5000  300  
2019/06/16  23:08:00  BASE  9.99012  303  11.5248  306  -1.4  100   -1.4  0     0     984.0    NA       0.0000   -SN      BR    7000  430  
2019/06/16  23:09:00  BASE  10.1018  303  11.7071  303  -1.4  100   -1.4  0     0     984.0    NA       0.0000   -SN      BR    9999  0    
2019/06/16  23:10:00  BASE  10.0901  302  11.7071  303  -1.5  100   -1.5  0     0     984.1    NA       0.0000   -SN      BR    9999  2330 
2019/06/16  23:11:00  BASE  10.1783  301  11.7071  303  -1.5  100   -1.5  0     0     984.0    NA       0.0000   -SN      BR    9999  1900 
2019/06/16  23:12:00  BASE  9.91956  299  11.7071  303  -1.5  100   -1.5  0     0     984.1    NA       0.0000   -SN      BR    9999  1970 
2019/06/16  23:13:00  BASE  9.30216  299  11.7071  303  -1.5  100   -1.5  0     0     984.1    NA       0.0000   -SN      BR    9999  1940 
2019/06/16  23:14:00  BASE  8.86704  300  11.7071  303  -1.5  100   -1.5  0     0     984.1    NA       0.0000   -SN      BR    9999  1840 
2019/06/16  23:15:00  BASE  8.67888  302  11.7071  303  -1.4  100   -1.4  0     0     984.1    NA       0.0000   -SN      9999  1570  0    
2019/06/16  23:16:00  BASE  8.24376  302  11.7071  303  -1.4  100   -1.4  0     0     984.2    NA       0.0000   -SN      9999  2260  0    
2019/06/16  23:17:00  BASE  7.89096  300  11.7071  303  -1.4  100   -1.4  0     0     984.2    NA       0.0000   -SN      9999  1870  2990 
2019/06/16  23:18:00  BASE  8.63772  299  11.7071  303  -1.4  100   -1.4  0     0     984.1    NA       0.0000   -SN      9999  3050  5020 
2019/06/16  23:19:00  BASE  8.967    301  11.5248  295  -1.4  100   -1.4  0     0     984.1    NA       0.0000   9999     1610  0     0    
2019/06/16  23:20:00  BASE  9.00816  302  11.5248  295  -1.4  100   -1.4  0     0     984.1    NA       0.0000   9999     1510  2070  0    
2019/06/16  23:21:00  BASE  8.8788   298  10.7663  303  -1.4  100   -1.4  0     0     984.2    NA       0.0000   9999     1570  0     0    
2019/06/16  23:22:00  BASE  8.87292  297  10.7663  303  -1.5  100   -1.5  0     0     984.2    NA       0.0000   9999     1900  0     0    
2019/06/16  23:23:00  BASE  9.21396  297  10.7663  303  -1.5  100   -1.5  0     0     984.2    NA       0.0000   9999     1670  0     0    
2019/06/16  23:24:00  BASE  9.1434   296  10.831   290  -1.5  100   -1.5  0     0     984.3    NA       0.0000   9999     2170  0     0    
2019/06/16  23:25:00  BASE  8.80824  297  10.831   290  -1.5  100   -1.5  0     0     984.3    NA       0.0000   9999     1800  2560  0    
2019/06/16  23:26:00  BASE  8.39076  297  10.831   290  -1.5  100   -1.5  0     0     984.3    NA       0.0000   9999     1710  0     0    
2019/06/16  23:27:00  BASE  8.1732   297  10.831   290  -1.5  100   -1.5  0     0     984.3    NA       0.0000   9999     1640  0     0    
2019/06/16  23:28:00  BASE  8.49072  295  11.1308  290  -1.4  100   -1.4  0     0     984.3    NA       0.0000   9999     2170  0     0    
2019/06/16  23:29:00  BASE  8.9964   294  11.1308  290  -1.4  100   -1.4  0     0     984.3    NA       0.0000   9999     1840  2360  0    
2019/06/16  23:30:00  BASE  8.8494   295  11.1308  290  -1.4  100   -1.4  0     0     984.3    NA       0.0000   9999     1640  0     0    
2019/06/16  23:31:00  BASE  8.21436  293  11.1308  290  -1.4  100   -1.4  0     0     984.3    NA       0.0000   9999     1710  0     0    
2019/06/16  23:32:00  BASE  7.57344  292  11.1308  290  -1.4  100   -1.4  0     0     984.3    NA       0.0000   9999     1640  2590  0    
2019/06/16  23:33:00  BASE  7.13832  295  11.1308  290  -1.4  100   -1.4  0     0     984.3    NA       0.0000   9999     1670  0     0    
2019/06/16  23:34:00  BASE  7.13832  296  11.1308  290  -1.4  100   -1.4  0     0     984.3    NA       0.0000   9999     1640  0     0    
2019/06/16  23:35:00  BASE  7.60872  293  11.1308  290  -1.3  100   -1.3  0     0     984.3    NA       0.0000   9999     1840  0     0    
2019/06/16  23:36:00  BASE  7.68516  296  11.1308  290  -1.3  100   -1.3  0     0     984.3    NA       0.0000   9999     1940  0     0    
2019/06/16  23:37:00  BASE  8.02032  296  11.1308  290  -1.3  100   -1.3  0     0     984.3    NA       0.0000   9999     1770  0     0    
2019/06/16  23:38:00  BASE  8.085    294  10.1665  289  -1.3  100   -1.3  0     0     984.3    NA       0.0000   9999     1770  5480  0    
2019/06/16  23:39:00  BASE  7.80864  298  10.1665  289  -1.3  100   -1.3  0     0     984.3    NA       0.0000   9999     5480  0     0    
2019/06/16  23:40:00  BASE  8.19084  299  10.1665  289  -1.4  100   -1.4  0     0     984.3    NA       0.0000   9999     1770  5450  0    
2019/06/16  23:41:00  BASE  8.2908   299  10.1665  289  -1.4  100   -1.4  0     0     984.3    NA       0.0000   9999     5380  0     0    
2019/06/16  23:42:00  BASE  8.42604  298  10.1665  289  -1.4  100   -1.4  0     0     984.3    NA       0.0000   9999     5450  0     0    
2019/06/16  23:43:00  BASE  8.0262   297  10.1665  289  -1.4  100   -1.4  0     0     984.4    NA       0.0000   9999     2890  0     0    
2019/06/16  23:44:00  BASE  7.60872  299  10.1665  289  -1.3  100   -1.3  0     0     984.4    NA       0.0000   9999     3120  5380  0    
2019/06/16  23:45:00  BASE  7.9674   298  10.1665  289  -1.3  100   -1.3  0     0     984.4    NA       0.0000   9999     4990  0     0    
2019/06/16  23:46:00  BASE  7.90272  297  10.1665  289  -1.3  100   -1.3  0     0     984.4    NA       0.0000   9999     2760  5350  0    
2019/06/16  23:47:00  BASE  7.83216  299  9.83136  294  -1.3  100   -1.3  0     0     984.4    NA       0.0000   9999     2820  0     0    
2019/06/16  23:48:00  BASE  7.79688  301  9.83136  294  -1.3  100   -1.3  0     0     984.4    NA       0.0000   9999     3020  5450  0    
2019/06/16  23:49:00  BASE  7.62636  301  9.83136  294  -1.3  100   -1.3  0     0     984.4    NA       0.0000   9999     3180  5450  0    
2019/06/16  23:50:00  BASE  7.5558   301  9.83136  294  -1.3  100   -1.3  0     0     984.5    NA       0.0000   9999     3120  0     0    
2019/06/16  23:51:00  BASE  7.44996  301  9.83136  294  -1.3  100   -1.3  0     0     984.5    NA       0.0000   9999     3310  0     0    
2019/06/16  23:52:00  BASE  7.60872  303  9.4668   293  -1.3  100   -1.3  0     0     984.5    NA       0.0000   9999     3450  0     0    
2019/06/16  23:53:00  BASE  7.83216  304  9.4668   293  -1.3  100   -1.3  0     0     984.5    NA       0.0000   9999     5380  0     0    
2019/06/16  23:54:00  BASE  7.74984  304  9.4668   293  -1.3  100   -1.3  0     0     984.6    NA       0.0000   9999     3020  5380  0    
2019/06/16  23:55:00  BASE  7.69692  303  9.25512  299  -1.3  100   -1.3  0     0     984.5    NA       0.0000   9999     3540  0     0    
2019/06/16  23:56:00  BASE  7.59108  304  9.01404  301  -1.3  100   -1.3  0     0     984.6    NA       0.0000   9999     3250  5450  0    
2019/06/16  23:57:00  BASE  7.15596  305  9.01404  301  -1.3  100   -1.3  0     0     984.6    NA       0.0000   9999     3250  5410  0    
2019/06/16  23:58:00  BASE  6.9972   305  9.01404  301  -1.3  100   -1.3  0     0     984.6    NA       0.0000   9999     3220  0     0    
2019/06/16  23:59:00  BASE  6.94428  306  9.01404  301  -1.3  100   -1.3  0     0     984.6    NA       0.0000   9999     3150  5480  0